Wetterdaten: Samstag, 18.08.2018
Datum Zeit Temp. A. Feuchte A. Luftdruck Regen Wind Richtung Richtung Sonnenschein ET UV Solar Taupunkt Windchill Windböen
18.08.2018 00:00 17,6 °C 77 % 1015,2 hPa 0,0 mm 1,0 km/h (0 Bft) S 184 ° 0 min 0,000 mm 0,0 UV-I 0 W/m² 13,5 °C 17,6 °C 4,8 km/h (1 Bft)
18.08.2018 00:01 17,6 °C 77 % 1015,1 hPa 0,0 mm 0,2 km/h (0 Bft) S 184 ° 0 min 0,000 mm 0,0 UV-I 0 W/m² 13,5 °C 17,6 °C 1,6 km/h (1 Bft)
18.08.2018 00:02 17,6 °C 76 % 1015,2 hPa 0,0 mm 0,9 km/h (0 Bft) S 184 ° 0 min 0,000 mm 0,0 UV-I 0 W/m² 13,3 °C 17,6 °C 3,2 km/h (1 Bft)
18.08.2018 00:03 17,7 °C 76 % 1015,2 hPa 0,0 mm 0,9 km/h (0 Bft) S 184 ° 0 min 0,000 mm 0,0 UV-I 0 W/m² 13,4 °C 17,7 °C 3,2 km/h (1 Bft)
18.08.2018 00:04 17,8 °C 77 % 1015,3 hPa 0,0 mm 0,0 km/h (0 Bft) S 184 ° 0 min 0,000 mm 0,0 UV-I 0 W/m² 13,7 °C 17,8 °C 0,0 km/h (0 Bft)
18.08.2018 00:05 17,7 °C 76 % 1015,2 hPa 0,0 mm 0,0 km/h (0 Bft) S 184 ° 0 min 0,000 mm 0,0 UV-I 0 W/m² 13,4 °C 17,7 °C 0,0 km/h (0 Bft)
18.08.2018 00:06 17,7 °C 76 % 1015,2 hPa 0,0 mm 0,0 km/h (0 Bft) S 184 ° 0 min 0,000 mm 0,0 UV-I 0 W/m² 13,4 °C 17,7 °C 0,0 km/h (0 Bft)
18.08.2018 00:07 17,7 °C 76 % 1015,3 hPa 0,0 mm 0,3 km/h (0 Bft) S 185 ° 0 min 0,000 mm 0,0 UV-I 0 W/m² 13,4 °C 17,7 °C 1,6 km/h (1 Bft)
18.08.2018 00:08 17,7 °C 76 % 1015,3 hPa 0,0 mm 1,0 km/h (0 Bft) S 185 ° 0 min 0,000 mm 0,0 UV-I 0 W/m² 13,4 °C 17,7 °C 3,2 km/h (1 Bft)
18.08.2018 00:09 17,7 °C 77 % 1015,3 hPa 0,0 mm 0,5 km/h (0 Bft) S 185 ° 0 min 0,000 mm 0,0 UV-I 0 W/m² 13,6 °C 17,7 °C 1,6 km/h (1 Bft)
18.08.2018 00:10 17,7 °C 77 % 1015,4 hPa 0,0 mm 0,6 km/h (0 Bft) S 185 ° 0 min 0,000 mm 0,0 UV-I 0 W/m² 13,6 °C 17,7 °C 1,6 km/h (1 Bft)
18.08.2018 00:11 17,6 °C 77 % 1015,3 hPa 0,0 mm 0,3 km/h (0 Bft) S 185 ° 0 min 0,000 mm 0,0 UV-I 0 W/m² 13,5 °C 17,6 °C 1,6 km/h (1 Bft)
18.08.2018 00:12 17,6 °C 77 % 1015,3 hPa 0,0 mm 1,5 km/h (1 Bft) S 185 ° 0 min 0,000 mm 0,0 UV-I 0 W/m² 13,5 °C 17,6 °C 3,2 km/h (1 Bft)
18.08.2018 00:13 17,7 °C 76 % 1015,3 hPa 0,0 mm 0,7 km/h (0 Bft) S 185 ° 0 min 0,000 mm 0,0 UV-I 0 W/m² 13,4 °C 17,7 °C 3,2 km/h (1 Bft)
18.08.2018 00:14 17,7 °C 77 % 1015,4 hPa 0,0 mm 0,0 km/h (0 Bft) S 185 ° 0 min 0,000 mm 0,0 UV-I 0 W/m² 13,6 °C 17,7 °C 0,0 km/h (0 Bft)
18.08.2018 00:15 17,7 °C 76 % 1015,4 hPa 0,0 mm 0,6 km/h (0 Bft) S 185 ° 0 min 0,000 mm 0,0 UV-I 0 W/m² 13,4 °C 17,7 °C 1,6 km/h (1 Bft)
18.08.2018 00:16 17,7 °C 76 % 1015,4 hPa 0,0 mm 0,0 km/h (0 Bft) S 185 ° 0 min 0,000 mm 0,0 UV-I 0 W/m² 13,4 °C 17,7 °C 0,0 km/h (0 Bft)
18.08.2018 00:17 17,8 °C 76 % 1015,4 hPa 0,0 mm 0,6 km/h (0 Bft) S 185 ° 0 min 0,000 mm 0,0 UV-I 0 W/m² 13,5 °C 17,8 °C 1,6 km/h (1 Bft)
18.08.2018 00:18 17,9 °C 76 % 1015,4 hPa 0,0 mm 0,3 km/h (0 Bft) S 185 ° 0 min 0,000 mm 0,0 UV-I 0 W/m² 13,6 °C 17,9 °C 1,6 km/h (1 Bft)
18.08.2018 00:19 17,9 °C 75 % 1015,4 hPa 0,0 mm 0,5 km/h (0 Bft) S 185 ° 0 min 0,000 mm 0,0 UV-I 0 W/m² 13,4 °C 17,9 °C 1,6 km/h (1 Bft)
18.08.2018 00:20 17,9 °C 75 % 1015,4 hPa 0,0 mm 0,0 km/h (0 Bft) S 185 ° 0 min 0,000 mm 0,0 UV-I 0 W/m² 13,4 °C 17,9 °C 0,0 km/h (0 Bft)
18.08.2018 00:21 17,9 °C 76 % 1015,5 hPa 0,0 mm 0,0 km/h (0 Bft) S 185 ° 0 min 0,000 mm 0,0 UV-I 0 W/m² 13,6 °C 17,9 °C 0,0 km/h (0 Bft)
18.08.2018 00:22 17,9 °C 76 % 1015,4 hPa 0,0 mm 0,0 km/h (0 Bft) S 185 ° 0 min 0,000 mm 0,0 UV-I 0 W/m² 13,6 °C 17,9 °C 0,0 km/h (0 Bft)
18.08.2018 00:23 17,8 °C 76 % 1015,5 hPa 0,0 mm 0,0 km/h (0 Bft) S 185 ° 0 min 0,000 mm 0,0 UV-I 0 W/m² 13,5 °C 17,8 °C 0,0 km/h (0 Bft)
18.08.2018 00:24 17,8 °C 75 % 1015,5 hPa 0,0 mm 0,0 km/h (0 Bft) S 185 ° 0 min 0,000 mm 0,0 UV-I 0 W/m² 13,3 °C 17,8 °C 0,0 km/h (0 Bft)
18.08.2018 00:25 17,9 °C 75 % 1015,5 hPa 0,0 mm 0,0 km/h (0 Bft) S 185 ° 0 min 0,000 mm 0,0 UV-I 0 W/m² 13,4 °C 17,9 °C 0,0 km/h (0 Bft)
18.08.2018 00:26 17,9 °C 75 % 1015,5 hPa 0,0 mm 0,3 km/h (0 Bft) S 185 ° 0 min 0,000 mm 0,0 UV-I 0 W/m² 13,4 °C 17,9 °C 1,6 km/h (1 Bft)
18.08.2018 00:27 17,9 °C 75 % 1015,5 hPa 0,0 mm 0,0 km/h (0 Bft) S 185 ° 0 min 0,000 mm 0,0 UV-I 0 W/m² 13,4 °C 17,9 °C 0,0 km/h (0 Bft)
18.08.2018 00:28 18,0 °C 75 % 1015,5 hPa 0,0 mm 0,0 km/h (0 Bft) S 185 ° 0 min 0,000 mm 0,0 UV-I 0 W/m² 13,5 °C 18,0 °C 0,0 km/h (0 Bft)
18.08.2018 00:29 18,0 °C 75 % 1015,5 hPa 0,0 mm 0,0 km/h (0 Bft) S 185 ° 0 min 0,000 mm 0,0 UV-I 0 W/m² 13,5 °C 18,0 °C 0,0 km/h (0 Bft)
18.08.2018 00:30 18,0 °C 75 % 1015,5 hPa 0,0 mm 0,0 km/h (0 Bft) S 185 ° 0 min 0,000 mm 0,0 UV-I 0 W/m² 13,5 °C 18,0 °C 0,0 km/h (0 Bft)
18.08.2018 00:31 18,1 °C 75 % 1015,5 hPa 0,0 mm 0,2 km/h (0 Bft) S 185 ° 0 min 0,000 mm 0,0 UV-I 0 W/m² 13,6 °C 18,1 °C 1,6 km/h (1 Bft)
18.08.2018 00:32 18,0 °C 75 % 1015,5 hPa 0,0 mm 0,2 km/h (0 Bft) S 185 ° 0 min 0,000 mm 0,0 UV-I 0 W/m² 13,5 °C 18,0 °C 1,6 km/h (1 Bft)
18.08.2018 00:33 18,0 °C 75 % 1015,5 hPa 0,0 mm 0,1 km/h (0 Bft) S 185 ° 0 min 0,000 mm 0,0 UV-I 0 W/m² 13,5 °C 18,0 °C 1,6 km/h (1 Bft)
18.08.2018 00:34 18,0 °C 75 % 1015,5 hPa 0,0 mm 0,9 km/h (0 Bft) S 185 ° 0 min 0,000 mm 0,0 UV-I 0 W/m² 13,5 °C 18,0 °C 3,2 km/h (1 Bft)
18.08.2018 00:35 18,1 °C 75 % 1015,5 hPa 0,0 mm 1,9 km/h (1 Bft) S 185 ° 0 min 0,000 mm 0,0 UV-I 0 W/m² 13,6 °C 18,1 °C 4,8 km/h (1 Bft)
18.08.2018 00:36 18,1 °C 75 % 1015,5 hPa 0,0 mm 0,1 km/h (0 Bft) S 185 ° 0 min 0,000 mm 0,0 UV-I 0 W/m² 13,6 °C 18,1 °C 1,6 km/h (1 Bft)
18.08.2018 00:37 18,1 °C 75 % 1015,5 hPa 0,0 mm 0,0 km/h (0 Bft) S 185 ° 0 min 0,000 mm 0,0 UV-I 0 W/m² 13,6 °C 18,1 °C 0,0 km/h (0 Bft)
18.08.2018 00:38 18,1 °C 75 % 1015,5 hPa 0,0 mm 0,0 km/h (0 Bft) S 185 ° 0 min 0,000 mm 0,0 UV-I 0 W/m² 13,6 °C 18,1 °C 0,0 km/h (0 Bft)
18.08.2018 00:39 18,1 °C 74 % 1015,5 hPa 0,0 mm 0,0 km/h (0 Bft) S 185 ° 0 min 0,000 mm 0,0 UV-I 0 W/m² 13,4 °C 18,1 °C 0,0 km/h (0 Bft)
18.08.2018 00:40 18,1 °C 74 % 1015,5 hPa 0,0 mm 0,0 km/h (0 Bft) S 185 ° 0 min 0,000 mm 0,0 UV-I 0 W/m² 13,4 °C 18,1 °C 0,0 km/h (0 Bft)
18.08.2018 00:41 18,1 °C 75 % 1015,6 hPa 0,0 mm 0,0 km/h (0 Bft) S 185 ° 0 min 0,000 mm 0,0 UV-I 0 W/m² 13,6 °C 18,1 °C 0,0 km/h (0 Bft)
18.08.2018 00:42 18,1 °C 75 % 1015,5 hPa 0,0 mm 0,0 km/h (0 Bft) S 185 ° 0 min 0,000 mm 0,0 UV-I 0 W/m² 13,6 °C 18,1 °C 0,0 km/h (0 Bft)
18.08.2018 00:43 18,1 °C 74 % 1015,6 hPa 0,0 mm 2,0 km/h (1 Bft) S-SW 199 ° 0 min 0,000 mm 0,0 UV-I 0 W/m² 13,4 °C 18,1 °C 4,8 km/h (1 Bft)
18.08.2018 00:44 18,2 °C 74 % 1015,6 hPa 0,0 mm 4,6 km/h (1 Bft) S-SW 195 ° 0 min 0,000 mm 0,0 UV-I 0 W/m² 13,5 °C 18,2 °C 6,4 km/h (2 Bft)
18.08.2018 00:45 18,2 °C 74 % 1015,6 hPa 0,0 mm 2,9 km/h (1 Bft) S-SW 193 ° 0 min 0,000 mm 0,0 UV-I 0 W/m² 13,5 °C 18,2 °C 4,8 km/h (1 Bft)
18.08.2018 00:46 18,2 °C 74 % 1015,6 hPa 0,0 mm 5,2 km/h (1 Bft) S 181 ° 0 min 0,000 mm 0,0 UV-I 0 W/m² 13,5 °C 18,2 °C 8,0 km/h (2 Bft)
18.08.2018 00:47 18,2 °C 73 % 1015,6 hPa 0,0 mm 1,5 km/h (1 Bft) S 181 ° 0 min 0,000 mm 0,0 UV-I 0 W/m² 13,3 °C 18,2 °C 3,2 km/h (1 Bft)
18.08.2018 00:48 18,2 °C 73 % 1015,6 hPa 0,0 mm 3,7 km/h (1 Bft) S 191 ° 0 min 0,000 mm 0,0 UV-I 0 W/m² 13,3 °C 18,2 °C 6,4 km/h (2 Bft)
18.08.2018 00:49 18,2 °C 73 % 1015,6 hPa 0,0 mm 4,7 km/h (1 Bft) S 186 ° 0 min 0,000 mm 0,0 UV-I 0 W/m² 13,3 °C 18,2 °C 6,4 km/h (2 Bft)
18.08.2018 00:50 18,3 °C 72 % 1015,6 hPa 0,0 mm 6,4 km/h (2 Bft) S 191 ° 0 min 0,000 mm 0,0 UV-I 0 W/m² 13,2 °C 18,3 °C 8,0 km/h (2 Bft)
18.08.2018 00:51 18,3 °C 73 % 1015,7 hPa 0,0 mm 5,2 km/h (1 Bft) S-SW 211 ° 0 min 0,000 mm 0,0 UV-I 0 W/m² 13,4 °C 18,3 °C 6,4 km/h (2 Bft)
18.08.2018 00:52 18,3 °C 73 % 1015,7 hPa 0,0 mm 2,0 km/h (1 Bft) S-SW 198 ° 0 min 0,000 mm 0,0 UV-I 0 W/m² 13,4 °C 18,3 °C 3,2 km/h (1 Bft)
18.08.2018 00:53 18,3 °C 73 % 1015,7 hPa 0,0 mm 1,1 km/h (1 Bft) S-SW 198 ° 0 min 0,000 mm 0,0 UV-I 0 W/m² 13,4 °C 18,3 °C 3,2 km/h (1 Bft)
18.08.2018 00:54 18,3 °C 73 % 1015,7 hPa 0,0 mm 4,2 km/h (1 Bft) S-SW 198 ° 0 min 0,000 mm 0,0 UV-I 0 W/m² 13,4 °C 18,3 °C 8,0 km/h (2 Bft)
18.08.2018 00:55 18,3 °C 73 % 1015,7 hPa 0,0 mm 5,3 km/h (1 Bft) S 182 ° 0 min 0,000 mm 0,0 UV-I 0 W/m² 13,4 °C 18,3 °C 6,4 km/h (2 Bft)
18.08.2018 00:56 18,4 °C 72 % 1015,7 hPa 0,0 mm 4,3 km/h (1 Bft) S 190 ° 0 min 0,000 mm 0,0 UV-I 0 W/m² 13,3 °C 18,4 °C 8,0 km/h (2 Bft)
18.08.2018 00:57 18,4 °C 73 % 1015,8 hPa 0,0 mm 1,8 km/h (1 Bft) S-SW 201 ° 0 min 0,000 mm 0,0 UV-I 0 W/m² 13,5 °C 18,4 °C 3,2 km/h (1 Bft)
18.08.2018 00:58 18,4 °C 72 % 1015,8 hPa 0,0 mm 0,7 km/h (0 Bft) S-SW 202 ° 0 min 0,000 mm 0,0 UV-I 0 W/m² 13,3 °C 18,4 °C 3,2 km/h (1 Bft)
18.08.2018 00:59 18,4 °C 73 % 1015,8 hPa 0,0 mm 0,0 km/h (0 Bft) S-SW 202 ° 0 min 0,000 mm 0,0 UV-I 0 W/m² 13,5 °C 18,4 °C 0,0 km/h (0 Bft)
18.08.2018 01:00 18,2 °C 74 % 1015,9 hPa 0,0 mm 0,0 km/h (0 Bft) S-SW 202 ° 0 min 0,025 mm 0,0 UV-I 0 W/m² 13,5 °C 18,2 °C 0,0 km/h (0 Bft)
18.08.2018 01:01 17,9 °C 75 % 1015,9 hPa 0,0 mm 0,0 km/h (0 Bft) S-SW 202 ° 0 min 0,000 mm 0,0 UV-I 0 W/m² 13,4 °C 17,9 °C 0,0 km/h (0 Bft)
18.08.2018 01:02 17,7 °C 76 % 1016,0 hPa 0,0 mm 0,0 km/h (0 Bft) S-SW 202 ° 0 min 0,000 mm 0,0 UV-I 0 W/m² 13,4 °C 17,7 °C 0,0 km/h (0 Bft)
18.08.2018 01:03 17,5 °C 77 % 1016,1 hPa 0,0 mm 2,1 km/h (1 Bft) W-NW 289 ° 0 min 0,000 mm 0,0 UV-I 0 W/m² 13,4 °C 17,5 °C 6,4 km/h (2 Bft)
18.08.2018 01:04 17,3 °C 78 % 1016,1 hPa 0,0 mm 3,2 km/h (1 Bft) W-NW 286 ° 0 min 0,000 mm 0,0 UV-I 0 W/m² 13,4 °C 17,3 °C 6,4 km/h (2 Bft)
18.08.2018 01:05 17,1 °C 79 % 1016,1 hPa 0,0 mm 2,4 km/h (1 Bft) S-SW 199 ° 0 min 0,000 mm 0,0 UV-I 0 W/m² 13,4 °C 17,1 °C 4,8 km/h (1 Bft)
18.08.2018 01:06 17,0 °C 79 % 1016,1 hPa 0,0 mm 1,5 km/h (1 Bft) W 270 ° 0 min 0,000 mm 0,0 UV-I 0 W/m² 13,3 °C 17,0 °C 9,7 km/h (2 Bft)
18.08.2018 01:07 17,0 °C 80 % 1016,1 hPa 0,0 mm 9,0 km/h (2 Bft) W-SW 258 ° 0 min 0,000 mm 0,0 UV-I 0 W/m² 13,5 °C 17,0 °C 11,3 km/h (2 Bft)
18.08.2018 01:08 17,1 °C 80 % 1016,1 hPa 0,0 mm 5,2 km/h (1 Bft) W-NW 296 ° 0 min 0,000 mm 0,0 UV-I 0 W/m² 13,6 °C 17,1 °C 9,7 km/h (2 Bft)
18.08.2018 01:09 17,2 °C 79 % 1016,1 hPa 0,0 mm 3,1 km/h (1 Bft) NW 312 ° 0 min 0,000 mm 0,0 UV-I 0 W/m² 13,5 °C 17,2 °C 8,0 km/h (2 Bft)
18.08.2018 01:10 17,3 °C 79 % 1016,1 hPa 0,0 mm 4,6 km/h (1 Bft) W-SW 257 ° 0 min 0,000 mm 0,0 UV-I 0 W/m² 13,6 °C 17,3 °C 9,7 km/h (2 Bft)
18.08.2018 01:11 17,4 °C 79 % 1016,0 hPa 0,0 mm 4,4 km/h (1 Bft) W-NW 298 ° 0 min 0,000 mm 0,0 UV-I 0 W/m² 13,7 °C 17,4 °C 11,3 km/h (2 Bft)
18.08.2018 01:12 17,6 °C 79 % 1016,0 hPa 0,0 mm 3,5 km/h (1 Bft) W-NW 286 ° 0 min 0,000 mm 0,0 UV-I 0 W/m² 13,9 °C 17,6 °C 6,4 km/h (2 Bft)
18.08.2018 01:13 17,6 °C 78 % 1016,1 hPa 0,0 mm 6,8 km/h (2 Bft) W 274 ° 0 min 0,000 mm 0,0 UV-I 0 W/m² 13,7 °C 17,6 °C 12,9 km/h (3 Bft)
18.08.2018 01:14 17,7 °C 78 % 1016,1 hPa 0,0 mm 2,4 km/h (1 Bft) W 274 ° 0 min 0,000 mm 0,0 UV-I 0 W/m² 13,8 °C 17,7 °C 4,8 km/h (1 Bft)
18.08.2018 01:15 17,7 °C 77 % 1016,1 hPa 0,0 mm 5,0 km/h (1 Bft) W 263 ° 0 min 0,000 mm 0,0 UV-I 0 W/m² 13,6 °C 17,7 °C 11,3 km/h (2 Bft)
18.08.2018 01:16 17,7 °C 77 % 1016,1 hPa 0,0 mm 4,8 km/h (1 Bft) W-SW 251 ° 0 min 0,000 mm 0,0 UV-I 0 W/m² 13,6 °C 17,7 °C 6,4 km/h (2 Bft)
18.08.2018 01:17 17,8 °C 77 % 1016,1 hPa 0,0 mm 6,9 km/h (2 Bft) W-SW 249 ° 0 min 0,000 mm 0,0 UV-I 0 W/m² 13,7 °C 17,8 °C 11,3 km/h (2 Bft)
18.08.2018 01:18 17,8 °C 77 % 1016,1 hPa 0,0 mm 5,3 km/h (1 Bft) W 265 ° 0 min 0,000 mm 0,0 UV-I 0 W/m² 13,7 °C 17,8 °C 9,7 km/h (2 Bft)
18.08.2018 01:19 17,8 °C 77 % 1016,1 hPa 0,0 mm 2,6 km/h (1 Bft) W-SW 257 ° 0 min 0,000 mm 0,0 UV-I 0 W/m² 13,7 °C 17,8 °C 9,7 km/h (2 Bft)
18.08.2018 01:20 17,8 °C 76 % 1016,1 hPa 0,0 mm 4,8 km/h (1 Bft) W-SW 248 ° 0 min 0,000 mm 0,0 UV-I 0 W/m² 13,5 °C 17,8 °C 9,7 km/h (2 Bft)
18.08.2018 01:21 17,8 °C 77 % 1016,1 hPa 0,0 mm 9,0 km/h (2 Bft) W-SW 242 ° 0 min 0,000 mm 0,0 UV-I 0 W/m² 13,7 °C 17,8 °C 17,7 km/h (3 Bft)
18.08.2018 01:22 17,7 °C 76 % 1016,1 hPa 0,0 mm 6,6 km/h (2 Bft) W-SW 240 ° 0 min 0,000 mm 0,0 UV-I 0 W/m² 13,4 °C 17,7 °C 14,5 km/h (3 Bft)
18.08.2018 01:23 17,8 °C 76 % 1016,1 hPa 0,0 mm 2,5 km/h (1 Bft) W 268 ° 0 min 0,000 mm 0,0 UV-I 0 W/m² 13,5 °C 17,8 °C 6,4 km/h (2 Bft)
18.08.2018 01:24 17,8 °C 76 % 1016,1 hPa 0,0 mm 2,4 km/h (1 Bft) W-SW 239 ° 0 min 0,000 mm 0,0 UV-I 0 W/m² 13,5 °C 17,8 °C 8,0 km/h (2 Bft)
18.08.2018 01:25 17,8 °C 76 % 1016,1 hPa 0,0 mm 3,4 km/h (1 Bft) W-SW 246 ° 0 min 0,000 mm 0,0 UV-I 0 W/m² 13,5 °C 17,8 °C 6,4 km/h (2 Bft)
18.08.2018 01:26 17,8 °C 76 % 1016,1 hPa 0,0 mm 3,5 km/h (1 Bft) W-SW 251 ° 0 min 0,000 mm 0,0 UV-I 0 W/m² 13,5 °C 17,8 °C 6,4 km/h (2 Bft)
18.08.2018 01:27 17,8 °C 76 % 1016,1 hPa 0,0 mm 2,1 km/h (1 Bft) W-SW 250 ° 0 min 0,000 mm 0,0 UV-I 0 W/m² 13,5 °C 17,8 °C 8,0 km/h (2 Bft)
18.08.2018 01:28 17,8 °C 76 % 1016,1 hPa 0,0 mm 1,5 km/h (1 Bft) W 262 ° 0 min 0,000 mm 0,0 UV-I 0 W/m² 13,5 °C 17,8 °C 4,8 km/h (1 Bft)
18.08.2018 01:29 17,8 °C 76 % 1016,1 hPa 0,0 mm 2,3 km/h (1 Bft) W 262 ° 0 min 0,000 mm 0,0 UV-I 0 W/m² 13,5 °C 17,8 °C 3,2 km/h (1 Bft)
18.08.2018 01:30 17,8 °C 76 % 1016,1 hPa 0,0 mm 5,0 km/h (1 Bft) S-SW 201 ° 0 min 0,000 mm 0,0 UV-I 0 W/m² 13,5 °C 17,8 °C 11,3 km/h (2 Bft)
18.08.2018 01:31 17,8 °C 76 % 1016,1 hPa 0,0 mm 6,1 km/h (2 Bft) W-SW 243 ° 0 min 0,000 mm 0,0 UV-I 0 W/m² 13,5 °C 17,8 °C 11,3 km/h (2 Bft)
18.08.2018 01:32 17,7 °C 76 % 1016,1 hPa 0,0 mm 3,7 km/h (1 Bft) W 262 ° 0 min 0,000 mm 0,0 UV-I 0 W/m² 13,4 °C 17,7 °C 6,4 km/h (2 Bft)
18.08.2018 01:33 17,7 °C 76 % 1016,1 hPa 0,0 mm 3,1 km/h (1 Bft) W 270 ° 0 min 0,000 mm 0,0 UV-I 0 W/m² 13,4 °C 17,7 °C 6,4 km/h (2 Bft)
18.08.2018 01:34 17,7 °C 76 % 1016,1 hPa 0,0 mm 3,4 km/h (1 Bft) W 267 ° 0 min 0,000 mm 0,0 UV-I 0 W/m² 13,4 °C 17,7 °C 6,4 km/h (2 Bft)
18.08.2018 01:35 17,7 °C 76 % 1016,1 hPa 0,0 mm 8,4 km/h (2 Bft) W 267 ° 0 min 0,000 mm 0,0 UV-I 0 W/m² 13,4 °C 17,7 °C 12,9 km/h (3 Bft)
18.08.2018 01:36 17,7 °C 77 % 1016,1 hPa 0,0 mm 5,4 km/h (1 Bft) W-SW 239 ° 0 min 0,000 mm 0,0 UV-I 0 W/m² 13,6 °C 17,7 °C 9,7 km/h (2 Bft)
18.08.2018 01:37 17,7 °C 77 % 1016,1 hPa 0,0 mm 3,1 km/h (1 Bft) SW 221 ° 0 min 0,000 mm 0,0 UV-I 0 W/m² 13,6 °C 17,7 °C 8,0 km/h (2 Bft)
18.08.2018 01:38 17,7 °C 76 % 1016,1 hPa 0,0 mm 4,3 km/h (1 Bft) W-SW 246 ° 0 min 0,000 mm 0,0 UV-I 0 W/m² 13,4 °C 17,7 °C 9,7 km/h (2 Bft)
18.08.2018 01:39 17,7 °C 76 % 1016,1 hPa 0,0 mm 4,9 km/h (1 Bft) W 274 ° 0 min 0,000 mm 0,0 UV-I 0 W/m² 13,4 °C 17,7 °C 11,3 km/h (2 Bft)
18.08.2018 01:40 17,7 °C 76 % 1016,1 hPa 0,0 mm 11,1 km/h (2 Bft) W-SW 258 ° 0 min 0,000 mm 0,0 UV-I 0 W/m² 13,4 °C 17,7 °C 17,7 km/h (3 Bft)
18.08.2018 01:41 17,6 °C 76 % 1016,1 hPa 0,0 mm 8,6 km/h (2 Bft) W 259 ° 0 min 0,000 mm 0,0 UV-I 0 W/m² 13,3 °C 17,6 °C 14,5 km/h (3 Bft)
18.08.2018 01:42 17,6 °C 76 % 1016,1 hPa 0,0 mm 10,2 km/h (2 Bft) W-SW 258 ° 0 min 0,000 mm 0,0 UV-I 0 W/m² 13,3 °C 17,6 °C 14,5 km/h (3 Bft)
18.08.2018 01:43 17,6 °C 76 % 1016,1 hPa 0,0 mm 4,0 km/h (1 Bft) W-SW 240 ° 0 min 0,000 mm 0,0 UV-I 0 W/m² 13,3 °C 17,6 °C 6,4 km/h (2 Bft)
18.08.2018 01:44 17,7 °C 75 % 1016,1 hPa 0,0 mm 6,4 km/h (2 Bft) W 264 ° 0 min 0,000 mm 0,0 UV-I 0 W/m² 13,2 °C 17,7 °C 11,3 km/h (2 Bft)
18.08.2018 01:45 17,7 °C 75 % 1016,1 hPa 0,0 mm 6,0 km/h (2 Bft) W-SW 246 ° 0 min 0,000 mm 0,0 UV-I 0 W/m² 13,2 °C 17,7 °C 9,7 km/h (2 Bft)
18.08.2018 01:46 17,7 °C 75 % 1016,1 hPa 0,0 mm 4,3 km/h (1 Bft) W-SW 253 ° 0 min 0,000 mm 0,0 UV-I 0 W/m² 13,2 °C 17,7 °C 6,4 km/h (2 Bft)
18.08.2018 01:47 17,7 °C 75 % 1016,1 hPa 0,0 mm 4,0 km/h (1 Bft) W-SW 257 ° 0 min 0,000 mm 0,0 UV-I 0 W/m² 13,2 °C 17,7 °C 6,4 km/h (2 Bft)
18.08.2018 01:48 17,7 °C 74 % 1016,1 hPa 0,0 mm 5,2 km/h (1 Bft) W 266 ° 0 min 0,000 mm 0,0 UV-I 0 W/m² 13,0 °C 17,7 °C 6,4 km/h (2 Bft)
18.08.2018 01:49 17,7 °C 74 % 1016,1 hPa 0,0 mm 7,1 km/h (2 Bft) W-SW 248 ° 0 min 0,000 mm 0,0 UV-I 0 W/m² 13,0 °C 17,7 °C 12,9 km/h (3 Bft)
18.08.2018 01:50 17,7 °C 74 % 1016,1 hPa 0,0 mm 1,9 km/h (1 Bft) W-SW 255 ° 0 min 0,000 mm 0,0 UV-I 0 W/m² 13,0 °C 17,7 °C 4,8 km/h (1 Bft)
18.08.2018 01:51 17,8 °C 73 % 1016,1 hPa 0,0 mm 2,7 km/h (1 Bft) S-SW 207 ° 0 min 0,000 mm 0,0 UV-I 0 W/m² 12,9 °C 17,8 °C 3,2 km/h (1 Bft)
18.08.2018 01:52 17,8 °C 73 % 1016,1 hPa 0,0 mm 1,5 km/h (1 Bft) SW 231 ° 0 min 0,000 mm 0,0 UV-I 0 W/m² 12,9 °C 17,8 °C 4,8 km/h (1 Bft)
18.08.2018 01:53 17,8 °C 73 % 1016,1 hPa 0,0 mm 4,0 km/h (1 Bft) W-SW 238 ° 0 min 0,000 mm 0,0 UV-I 0 W/m² 12,9 °C 17,8 °C 6,4 km/h (2 Bft)
18.08.2018 01:54 17,8 °C 73 % 1016,1 hPa 0,0 mm 3,5 km/h (1 Bft) W-NW 283 ° 0 min 0,000 mm 0,0 UV-I 0 W/m² 12,9 °C 17,8 °C 11,3 km/h (2 Bft)
18.08.2018 01:55 17,8 °C 73 % 1016,1 hPa 0,0 mm 10,1 km/h (2 Bft) W 277 ° 0 min 0,000 mm 0,0 UV-I 0 W/m² 12,9 °C 17,8 °C 14,5 km/h (3 Bft)
18.08.2018 01:56 17,9 °C 73 % 1016,1 hPa 0,0 mm 3,2 km/h (1 Bft) SW 216 ° 0 min 0,000 mm 0,0 UV-I 0 W/m² 13,0 °C 17,9 °C 6,4 km/h (2 Bft)
18.08.2018 01:57 17,9 °C 72 % 1016,2 hPa 0,0 mm 2,2 km/h (1 Bft) SW 231 ° 0 min 0,000 mm 0,0 UV-I 0 W/m² 12,8 °C 17,9 °C 4,8 km/h (1 Bft)
18.08.2018 01:58 17,9 °C 72 % 1016,1 hPa 0,0 mm 1,2 km/h (1 Bft) W 264 ° 0 min 0,000 mm 0,0 UV-I 0 W/m² 12,8 °C 17,9 °C 4,8 km/h (1 Bft)
18.08.2018 01:59 17,9 °C 72 % 1016,2 hPa 0,0 mm 4,7 km/h (1 Bft) SW 228 ° 0 min 0,000 mm 0,0 UV-I 0 W/m² 12,8 °C 17,9 °C 6,4 km/h (2 Bft)
18.08.2018 02:00 17,9 °C 72 % 1016,2 hPa 0,0 mm 4,3 km/h (1 Bft) W 268 ° 0 min 0,026 mm 0,0 UV-I 0 W/m² 12,8 °C 17,9 °C 9,7 km/h (2 Bft)
18.08.2018 02:01 17,9 °C 73 % 1016,2 hPa 0,0 mm 3,8 km/h (1 Bft) W-SW 239 ° 0 min 0,000 mm 0,0 UV-I 0 W/m² 13,0 °C 17,9 °C 6,4 km/h (2 Bft)
18.08.2018 02:02 17,9 °C 72 % 1016,2 hPa 0,0 mm 1,3 km/h (1 Bft) W-SW 239 ° 0 min 0,000 mm 0,0 UV-I 0 W/m² 12,8 °C 17,9 °C 3,2 km/h (1 Bft)
18.08.2018 02:03 17,9 °C 72 % 1016,2 hPa 0,0 mm 0,6 km/h (0 Bft) W-SW 239 ° 0 min 0,000 mm 0,0 UV-I 0 W/m² 12,8 °C 17,9 °C 1,6 km/h (1 Bft)
18.08.2018 02:04 17,9 °C 73 % 1016,2 hPa 0,0 mm 6,8 km/h (2 Bft) SW 230 ° 0 min 0,000 mm 0,0 UV-I 0 W/m² 13,0 °C 17,9 °C 11,3 km/h (2 Bft)
18.08.2018 02:05 17,9 °C 73 % 1016,2 hPa 0,0 mm 2,2 km/h (1 Bft) SW 218 ° 0 min 0,000 mm 0,0 UV-I 0 W/m² 13,0 °C 17,9 °C 4,8 km/h (1 Bft)
18.08.2018 02:06 17,9 °C 73 % 1016,2 hPa 0,0 mm 0,1 km/h (0 Bft) SW 218 ° 0 min 0,000 mm 0,0 UV-I 0 W/m² 13,0 °C 17,9 °C 1,6 km/h (1 Bft)
18.08.2018 02:07 17,8 °C 73 % 1016,2 hPa 0,0 mm 0,2 km/h (0 Bft) SW 218 ° 0 min 0,000 mm 0,0 UV-I 0 W/m² 12,9 °C 17,8 °C 1,6 km/h (1 Bft)
18.08.2018 02:08 17,8 °C 72 % 1016,2 hPa 0,0 mm 2,8 km/h (1 Bft) S 189 ° 0 min 0,000 mm 0,0 UV-I 0 W/m² 12,7 °C 17,8 °C 6,4 km/h (2 Bft)
18.08.2018 02:09 17,8 °C 72 % 1016,2 hPa 0,0 mm 5,1 km/h (1 Bft) S 187 ° 0 min 0,000 mm 0,0 UV-I 0 W/m² 12,7 °C 17,8 °C 9,7 km/h (2 Bft)
18.08.2018 02:10 17,9 °C 72 % 1016,3 hPa 0,0 mm 3,8 km/h (1 Bft) S 184 ° 0 min 0,000 mm 0,0 UV-I 0 W/m² 12,8 °C 17,9 °C 8,0 km/h (2 Bft)
18.08.2018 02:11 17,9 °C 71 % 1016,2 hPa 0,0 mm 0,4 km/h (0 Bft) S 184 ° 0 min 0,000 mm 0,0 UV-I 0 W/m² 12,6 °C 17,9 °C 3,2 km/h (1 Bft)
18.08.2018 02:12 17,9 °C 71 % 1016,2 hPa 0,0 mm 0,1 km/h (0 Bft) S 184 ° 0 min 0,000 mm 0,0 UV-I 0 W/m² 12,6 °C 17,9 °C 1,6 km/h (1 Bft)
18.08.2018 02:13 17,9 °C 71 % 1016,2 hPa 0,0 mm 0,6 km/h (0 Bft) S 184 ° 0 min 0,000 mm 0,0 UV-I 0 W/m² 12,6 °C 17,9 °C 1,6 km/h (1 Bft)
18.08.2018 02:14 17,9 °C 71 % 1016,2 hPa 0,0 mm 2,8 km/h (1 Bft) S-SW 194 ° 0 min 0,000 mm 0,0 UV-I 0 W/m² 12,6 °C 17,9 °C 8,0 km/h (2 Bft)
18.08.2018 02:15 18,0 °C 71 % 1016,2 hPa 0,0 mm 6,5 km/h (2 Bft) S 189 ° 0 min 0,000 mm 0,0 UV-I 0 W/m² 12,7 °C 18,0 °C 9,7 km/h (2 Bft)
18.08.2018 02:16 18,1 °C 71 % 1016,2 hPa 0,0 mm 2,6 km/h (1 Bft) SW 234 ° 0 min 0,000 mm 0,0 UV-I 0 W/m² 12,8 °C 18,1 °C 6,4 km/h (2 Bft)
18.08.2018 02:17 18,1 °C 71 % 1016,2 hPa 0,0 mm 3,0 km/h (1 Bft) W 278 ° 0 min 0,000 mm 0,0 UV-I 0 W/m² 12,8 °C 18,1 °C 6,4 km/h (2 Bft)
18.08.2018 02:18 18,1 °C 71 % 1016,3 hPa 0,0 mm 1,2 km/h (1 Bft) W 278 ° 0 min 0,000 mm 0,0 UV-I 0 W/m² 12,8 °C 18,1 °C 3,2 km/h (1 Bft)
18.08.2018 02:19 17,9 °C 72 % 1016,3 hPa 0,0 mm 0,1 km/h (0 Bft) W 278 ° 0 min 0,000 mm 0,0 UV-I 0 W/m² 12,8 °C 17,9 °C 1,6 km/h (1 Bft)
18.08.2018 02:20 17,9 °C 71 % 1016,3 hPa 0,0 mm 0,1 km/h (0 Bft) W 278 ° 0 min 0,000 mm 0,0 UV-I 0 W/m² 12,6 °C 17,9 °C 1,6 km/h (1 Bft)
18.08.2018 02:21 17,8 °C 71 % 1016,3 hPa 0,0 mm 3,2 km/h (1 Bft) S-SW 200 ° 0 min 0,000 mm 0,0 UV-I 0 W/m² 12,5 °C 17,8 °C 9,7 km/h (2 Bft)
18.08.2018 02:22 17,9 °C 71 % 1016,3 hPa 0,0 mm 9,3 km/h (2 Bft) S 188 ° 0 min 0,000 mm 0,0 UV-I 0 W/m² 12,6 °C 17,9 °C 14,5 km/h (3 Bft)
18.08.2018 02:23 17,9 °C 71 % 1016,3 hPa 0,0 mm 4,8 km/h (1 Bft) S 181 ° 0 min 0,000 mm 0,0 UV-I 0 W/m² 12,6 °C 17,9 °C 8,0 km/h (2 Bft)
18.08.2018 02:24 17,9 °C 71 % 1016,2 hPa 0,0 mm 3,1 km/h (1 Bft) S-SW 213 ° 0 min 0,000 mm 0,0 UV-I 0 W/m² 12,6 °C 17,9 °C 11,3 km/h (2 Bft)
18.08.2018 02:25 18,0 °C 70 % 1016,2 hPa 0,0 mm 3,2 km/h (1 Bft) S-SW 198 ° 0 min 0,000 mm 0,0 UV-I 0 W/m² 12,4 °C 18,0 °C 6,4 km/h (2 Bft)
18.08.2018 02:26 18,0 °C 71 % 1016,2 hPa 0,0 mm 4,4 km/h (1 Bft) S 185 ° 0 min 0,000 mm 0,0 UV-I 0 W/m² 12,7 °C 18,0 °C 8,0 km/h (2 Bft)
18.08.2018 02:27 18,1 °C 71 % 1016,2 hPa 0,0 mm 3,1 km/h (1 Bft) W-SW 238 ° 0 min 0,000 mm 0,0 UV-I 0 W/m² 12,8 °C 18,1 °C 6,4 km/h (2 Bft)
18.08.2018 02:28 18,1 °C 71 % 1016,2 hPa 0,0 mm 5,3 km/h (1 Bft) S-SW 192 ° 0 min 0,000 mm 0,0 UV-I 0 W/m² 12,8 °C 18,1 °C 12,9 km/h (3 Bft)
18.08.2018 02:29 18,1 °C 70 % 1016,2 hPa 0,0 mm 3,1 km/h (1 Bft) SW 219 ° 0 min 0,000 mm 0,0 UV-I 0 W/m² 12,5 °C 18,1 °C 4,8 km/h (1 Bft)
18.08.2018 02:30 18,0 °C 71 % 1016,2 hPa 0,0 mm 6,7 km/h (2 Bft) S-SW 207 ° 0 min 0,000 mm 0,0 UV-I 0 W/m² 12,7 °C 18,0 °C 12,9 km/h (3 Bft)
18.08.2018 02:31 17,9 °C 71 % 1016,2 hPa 0,0 mm 2,5 km/h (1 Bft) S-SW 198 ° 0 min 0,000 mm 0,0 UV-I 0 W/m² 12,6 °C 17,9 °C 6,4 km/h (2 Bft)
18.08.2018 02:32 17,9 °C 71 % 1016,2 hPa 0,0 mm 0,3 km/h (0 Bft) S-SW 198 ° 0 min 0,000 mm 0,0 UV-I 0 W/m² 12,6 °C 17,9 °C 3,2 km/h (1 Bft)
18.08.2018 02:33 17,9 °C 71 % 1016,2 hPa 0,0 mm 1,5 km/h (1 Bft) S-SW 198 ° 0 min 0,000 mm 0,0 UV-I 0 W/m² 12,6 °C 17,9 °C 3,2 km/h (1 Bft)
18.08.2018 02:34 17,9 °C 71 % 1016,2 hPa 0,0 mm 1,7 km/h (1 Bft) SW 217 ° 0 min 0,000 mm 0,0 UV-I 0 W/m² 12,6 °C 17,9 °C 4,8 km/h (1 Bft)
18.08.2018 02:35 17,9 °C 71 % 1016,2 hPa 0,0 mm 3,1 km/h (1 Bft) W 265 ° 0 min 0,000 mm 0,0 UV-I 0 W/m² 12,6 °C 17,9 °C 4,8 km/h (1 Bft)
18.08.2018 02:36 17,9 °C 71 % 1016,2 hPa 0,0 mm 3,8 km/h (1 Bft) W 261 ° 0 min 0,000 mm 0,0 UV-I 0 W/m² 12,6 °C 17,9 °C 9,7 km/h (2 Bft)
18.08.2018 02:37 17,8 °C 71 % 1016,2 hPa 0,0 mm 1,4 km/h (1 Bft) W 261 ° 0 min 0,000 mm 0,0 UV-I 0 W/m² 12,5 °C 17,8 °C 3,2 km/h (1 Bft)
18.08.2018 02:38 17,8 °C 71 % 1016,2 hPa 0,0 mm 0,0 km/h (0 Bft) W 261 ° 0 min 0,000 mm 0,0 UV-I 0 W/m² 12,5 °C 17,8 °C 0,0 km/h (0 Bft)
18.08.2018 02:39 17,8 °C 72 % 1016,2 hPa 0,0 mm 0,2 km/h (0 Bft) W 261 ° 0 min 0,000 mm 0,0 UV-I 0 W/m² 12,7 °C 17,8 °C 1,6 km/h (1 Bft)
18.08.2018 02:40 17,7 °C 72 % 1016,2 hPa 0,0 mm 0,0 km/h (0 Bft) W 261 ° 0 min 0,000 mm 0,0 UV-I 0 W/m² 12,6 °C 17,7 °C 0,0 km/h (0 Bft)
18.08.2018 02:41 17,6 °C 74 % 1016,3 hPa 0,0 mm 0,0 km/h (0 Bft) W 261 ° 0 min 0,000 mm 0,0 UV-I 0 W/m² 12,9 °C 17,6 °C 0,0 km/h (0 Bft)
18.08.2018 02:42 17,4 °C 74 % 1016,3 hPa 0,0 mm 0,0 km/h (0 Bft) W 261 ° 0 min 0,000 mm 0,0 UV-I 0 W/m² 12,7 °C 17,4 °C 0,0 km/h (0 Bft)
18.08.2018 02:43 17,3 °C 74 % 1016,3 hPa 0,0 mm 0,1 km/h (0 Bft) W 261 ° 0 min 0,000 mm 0,0 UV-I 0 W/m² 12,6 °C 17,3 °C 1,6 km/h (1 Bft)
18.08.2018 02:44 17,3 °C 74 % 1016,3 hPa 0,0 mm 0,0 km/h (0 Bft) W 261 ° 0 min 0,000 mm 0,0 UV-I 0 W/m² 12,6 °C 17,3 °C 0,0 km/h (0 Bft)
18.08.2018 02:45 17,3 °C 74 % 1016,3 hPa 0,0 mm 0,0 km/h (0 Bft) W 261 ° 0 min 0,000 mm 0,0 UV-I 0 W/m² 12,6 °C 17,3 °C 0,0 km/h (0 Bft)
18.08.2018 02:46 17,3 °C 74 % 1016,3 hPa 0,0 mm 0,0 km/h (0 Bft) W 261 ° 0 min 0,000 mm 0,0 UV-I 0 W/m² 12,6 °C 17,3 °C 0,0 km/h (0 Bft)
18.08.2018 02:47 17,3 °C 74 % 1016,4 hPa 0,0 mm 0,0 km/h (0 Bft) W 261 ° 0 min 0,000 mm 0,0 UV-I 0 W/m² 12,6 °C 17,3 °C 0,0 km/h (0 Bft)
18.08.2018 02:48 17,2 °C 75 % 1016,3 hPa 0,0 mm 0,0 km/h (0 Bft) W 261 ° 0 min 0,000 mm 0,0 UV-I 0 W/m² 12,7 °C 17,2 °C 0,0 km/h (0 Bft)
18.08.2018 02:49 17,2 °C 75 % 1016,3 hPa 0,0 mm 0,0 km/h (0 Bft) W 261 ° 0 min 0,000 mm 0,0 UV-I 0 W/m² 12,7 °C 17,2 °C 0,0 km/h (0 Bft)
18.08.2018 02:50 17,2 °C 74 % 1016,4 hPa 0,0 mm 0,0 km/h (0 Bft) W 261 ° 0 min 0,000 mm 0,0 UV-I 0 W/m² 12,5 °C 17,2 °C 0,0 km/h (0 Bft)
18.08.2018 02:51 17,2 °C 74 % 1016,4 hPa 0,0 mm 0,0 km/h (0 Bft) W 261 ° 0 min 0,000 mm 0,0 UV-I 0 W/m² 12,5 °C 17,2 °C 0,0 km/h (0 Bft)
18.08.2018 02:52 17,2 °C 74 % 1016,4 hPa 0,0 mm 0,0 km/h (0 Bft) W 261 ° 0 min 0,000 mm 0,0 UV-I 0 W/m² 12,5 °C 17,2 °C 0,0 km/h (0 Bft)
18.08.2018 02:53 17,2 °C 74 % 1016,4 hPa 0,0 mm 0,0 km/h (0 Bft) W 261 ° 0 min 0,000 mm 0,0 UV-I 0 W/m² 12,5 °C 17,2 °C 0,0 km/h (0 Bft)
18.08.2018 02:54 17,1 °C 74 % 1016,4 hPa 0,0 mm 0,0 km/h (0 Bft) W 261 ° 0 min 0,000 mm 0,0 UV-I 0 W/m² 12,4 °C 17,1 °C 0,0 km/h (0 Bft)
18.08.2018 02:55 17,1 °C 74 % 1016,4 hPa 0,0 mm 0,0 km/h (0 Bft) W 261 ° 0 min 0,000 mm 0,0 UV-I 0 W/m² 12,4 °C 17,1 °C 0,0 km/h (0 Bft)
18.08.2018 02:56 17,1 °C 74 % 1016,4 hPa 0,0 mm 2,0 km/h (1 Bft) W 261 ° 0 min 0,000 mm 0,0 UV-I 0 W/m² 12,4 °C 17,1 °C 4,8 km/h (1 Bft)
18.08.2018 02:57 17,1 °C 73 % 1016,4 hPa 0,0 mm 1,4 km/h (1 Bft) W 261 ° 0 min 0,000 mm 0,0 UV-I 0 W/m² 12,2 °C 17,1 °C 3,2 km/h (1 Bft)
18.08.2018 02:58 17,1 °C 73 % 1016,4 hPa 0,0 mm 1,1 km/h (1 Bft) W 261 ° 0 min 0,000 mm 0,0 UV-I 0 W/m² 12,2 °C 17,1 °C 1,6 km/h (1 Bft)
18.08.2018 02:59 17,1 °C 73 % 1016,4 hPa 0,0 mm 0,7 km/h (0 Bft) W 261 ° 0 min 0,000 mm 0,0 UV-I 0 W/m² 12,2 °C 17,1 °C 1,6 km/h (1 Bft)
18.08.2018 03:00 17,1 °C 73 % 1016,4 hPa 0,0 mm 0,0 km/h (0 Bft) W 261 ° 0 min 0,000 mm 0,0 UV-I 0 W/m² 12,2 °C 17,1 °C 0,0 km/h (0 Bft)
18.08.2018 03:01 17,1 °C 73 % 1016,4 hPa 0,0 mm 0,1 km/h (0 Bft) W 261 ° 0 min 0,025 mm 0,0 UV-I 0 W/m² 12,2 °C 17,1 °C 1,6 km/h (1 Bft)
18.08.2018 03:02 17,1 °C 73 % 1016,4 hPa 0,0 mm 1,3 km/h (1 Bft) W-SW 257 ° 0 min 0,000 mm 0,0 UV-I 0 W/m² 12,2 °C 17,1 °C 3,2 km/h (1 Bft)
18.08.2018 03:03 17,1 °C 73 % 1016,4 hPa 0,0 mm 4,2 km/h (1 Bft) SW 221 ° 0 min 0,000 mm 0,0 UV-I 0 W/m² 12,2 °C 17,1 °C 9,7 km/h (2 Bft)
18.08.2018 03:04 17,1 °C 73 % 1016,4 hPa 0,0 mm 2,7 km/h (1 Bft) SW 229 ° 0 min 0,000 mm 0,0 UV-I 0 W/m² 12,2 °C 17,1 °C 6,4 km/h (2 Bft)
18.08.2018 03:05 17,1 °C 73 % 1016,4 hPa 0,0 mm 4,5 km/h (1 Bft) W-SW 238 ° 0 min 0,000 mm 0,0 UV-I 0 W/m² 12,2 °C 17,1 °C 9,7 km/h (2 Bft)
18.08.2018 03:06 17,1 °C 73 % 1016,4 hPa 0,0 mm 4,3 km/h (1 Bft) SW 220 ° 0 min 0,000 mm 0,0 UV-I 0 W/m² 12,2 °C 17,1 °C 4,8 km/h (1 Bft)
18.08.2018 03:07 17,1 °C 73 % 1016,4 hPa 0,0 mm 0,9 km/h (0 Bft) SW 217 ° 0 min 0,000 mm 0,0 UV-I 0 W/m² 12,2 °C 17,1 °C 3,2 km/h (1 Bft)
18.08.2018 03:08 17,2 °C 73 % 1016,4 hPa 0,0 mm 0,4 km/h (0 Bft) SW 217 ° 0 min 0,000 mm 0,0 UV-I 0 W/m² 12,3 °C 17,2 °C 1,6 km/h (1 Bft)
18.08.2018 03:09 17,1 °C 73 % 1016,4 hPa 0,0 mm 1,1 km/h (1 Bft) SW 217 ° 0 min 0,000 mm 0,0 UV-I 0 W/m² 12,2 °C 17,1 °C 3,2 km/h (1 Bft)
18.08.2018 03:10 17,1 °C 73 % 1016,4 hPa 0,0 mm 0,5 km/h (0 Bft) SW 217 ° 0 min 0,000 mm 0,0 UV-I 0 W/m² 12,2 °C 17,1 °C 3,2 km/h (1 Bft)
18.08.2018 03:11 17,1 °C 73 % 1016,4 hPa 0,0 mm 0,3 km/h (0 Bft) SW 217 ° 0 min 0,000 mm 0,0 UV-I 0 W/m² 12,2 °C 17,1 °C 1,6 km/h (1 Bft)
18.08.2018 03:12 17,1 °C 73 % 1016,4 hPa 0,0 mm 2,4 km/h (1 Bft) W 261 ° 0 min 0,000 mm 0,0 UV-I 0 W/m² 12,2 °C 17,1 °C 6,4 km/h (2 Bft)
18.08.2018 03:13 17,1 °C 73 % 1016,5 hPa 0,0 mm 2,5 km/h (1 Bft) W 261 ° 0 min 0,000 mm 0,0 UV-I 0 W/m² 12,2 °C 17,1 °C 6,4 km/h (2 Bft)
18.08.2018 03:14 17,1 °C 73 % 1016,4 hPa 0,0 mm 1,2 km/h (1 Bft) W-SW 251 ° 0 min 0,000 mm 0,0 UV-I 0 W/m² 12,2 °C 17,1 °C 4,8 km/h (1 Bft)
18.08.2018 03:15 17,1 °C 73 % 1016,5 hPa 0,0 mm 1,5 km/h (1 Bft) W-SW 251 ° 0 min 0,000 mm 0,0 UV-I 0 W/m² 12,2 °C 17,1 °C 4,8 km/h (1 Bft)
18.08.2018 03:16 17,0 °C 73 % 1016,5 hPa 0,0 mm 4,3 km/h (1 Bft) W-SW 250 ° 0 min 0,000 mm 0,0 UV-I 0 W/m² 12,1 °C 17,0 °C 6,4 km/h (2 Bft)
18.08.2018 03:17 17,0 °C 73 % 1016,5 hPa 0,0 mm 1,2 km/h (1 Bft) W-SW 250 ° 0 min 0,000 mm 0,0 UV-I 0 W/m² 12,1 °C 17,0 °C 4,8 km/h (1 Bft)
18.08.2018 03:18 17,0 °C 73 % 1016,5 hPa 0,0 mm 0,9 km/h (0 Bft) W-SW 250 ° 0 min 0,000 mm 0,0 UV-I 0 W/m² 12,1 °C 17,0 °C 4,8 km/h (1 Bft)
18.08.2018 03:19 16,9 °C 73 % 1016,5 hPa 0,0 mm 1,2 km/h (1 Bft) W-SW 250 ° 0 min 0,000 mm 0,0 UV-I 0 W/m² 12,0 °C 16,9 °C 3,2 km/h (1 Bft)
18.08.2018 03:20 16,9 °C 73 % 1016,5 hPa 0,0 mm 0,3 km/h (0 Bft) W-SW 250 ° 0 min 0,000 mm 0,0 UV-I 0 W/m² 12,0 °C 16,9 °C 1,6 km/h (1 Bft)
18.08.2018 03:21 16,9 °C 73 % 1016,5 hPa 0,0 mm 0,1 km/h (0 Bft) W-SW 250 ° 0 min 0,000 mm 0,0 UV-I 0 W/m² 12,0 °C 16,9 °C 1,6 km/h (1 Bft)
18.08.2018 03:22 16,9 °C 73 % 1016,5 hPa 0,0 mm 0,3 km/h (0 Bft) W-SW 250 ° 0 min 0,000 mm 0,0 UV-I 0 W/m² 12,0 °C 16,9 °C 1,6 km/h (1 Bft)
18.08.2018 03:23 16,9 °C 73 % 1016,5 hPa 0,0 mm 0,0 km/h (0 Bft) W-SW 250 ° 0 min 0,000 mm 0,0 UV-I 0 W/m² 12,0 °C 16,9 °C 0,0 km/h (0 Bft)
18.08.2018 03:24 16,9 °C 74 % 1016,5 hPa 0,0 mm 0,8 km/h (0 Bft) W-SW 250 ° 0 min 0,000 mm 0,0 UV-I 0 W/m² 12,2 °C 16,9 °C 3,2 km/h (1 Bft)
18.08.2018 03:25 16,9 °C 74 % 1016,5 hPa 0,0 mm 1,4 km/h (1 Bft) W-SW 250 ° 0 min 0,000 mm 0,0 UV-I 0 W/m² 12,2 °C 16,9 °C 4,8 km/h (1 Bft)
18.08.2018 03:26 16,9 °C 74 % 1016,5 hPa 0,0 mm 0,9 km/h (0 Bft) W-SW 250 ° 0 min 0,000 mm 0,0 UV-I 0 W/m² 12,2 °C 16,9 °C 3,2 km/h (1 Bft)
18.08.2018 03:27 16,9 °C 74 % 1016,5 hPa 0,0 mm 0,0 km/h (0 Bft) W-SW 250 ° 0 min 0,000 mm 0,0 UV-I 0 W/m² 12,2 °C 16,9 °C 0,0 km/h (0 Bft)
18.08.2018 03:28 16,8 °C 74 % 1016,5 hPa 0,0 mm 0,2 km/h (0 Bft) W-SW 250 ° 0 min 0,000 mm 0,0 UV-I 0 W/m² 12,1 °C 16,8 °C 1,6 km/h (1 Bft)
18.08.2018 03:29 16,7 °C 75 % 1016,5 hPa 0,0 mm 0,2 km/h (0 Bft) W-SW 250 ° 0 min 0,000 mm 0,0 UV-I 0 W/m² 12,2 °C 16,7 °C 1,6 km/h (1 Bft)
18.08.2018 03:30 16,6 °C 76 % 1016,5 hPa 0,0 mm 0,0 km/h (0 Bft) W-SW 250 ° 0 min 0,000 mm 0,0 UV-I 0 W/m² 12,3 °C 16,6 °C 0,0 km/h (0 Bft)
18.08.2018 03:31 16,5 °C 75 % 1016,5 hPa 0,0 mm 0,4 km/h (0 Bft) W-SW 250 ° 0 min 0,000 mm 0,0 UV-I 0 W/m² 12,1 °C 16,5 °C 3,2 km/h (1 Bft)
18.08.2018 03:32 16,4 °C 76 % 1016,5 hPa 0,0 mm 0,0 km/h (0 Bft) W-SW 250 ° 0 min 0,000 mm 0,0 UV-I 0 W/m² 12,2 °C 16,4 °C 0,0 km/h (0 Bft)
18.08.2018 03:33 16,4 °C 76 % 1016,5 hPa 0,0 mm 0,0 km/h (0 Bft) W-SW 250 ° 0 min 0,000 mm 0,0 UV-I 0 W/m² 12,2 °C 16,4 °C 0,0 km/h (0 Bft)
18.08.2018 03:34 16,3 °C 76 % 1016,5 hPa 0,0 mm 0,0 km/h (0 Bft) W-SW 250 ° 0 min 0,000 mm 0,0 UV-I 0 W/m² 12,1 °C 16,3 °C 0,0 km/h (0 Bft)
18.08.2018 03:35 16,3 °C 76 % 1016,5 hPa 0,0 mm 0,0 km/h (0 Bft) W-SW 250 ° 0 min 0,000 mm 0,0 UV-I 0 W/m² 12,1 °C 16,3 °C 0,0 km/h (0 Bft)
18.08.2018 03:36 16,3 °C 76 % 1016,5 hPa 0,0 mm 0,0 km/h (0 Bft) W-SW 250 ° 0 min 0,000 mm 0,0 UV-I 0 W/m² 12,1 °C 16,3 °C 0,0 km/h (0 Bft)
18.08.2018 03:37 16,3 °C 76 % 1016,5 hPa 0,0 mm 0,0 km/h (0 Bft) W-SW 250 ° 0 min 0,000 mm 0,0 UV-I 0 W/m² 12,1 °C 16,3 °C 0,0 km/h (0 Bft)
18.08.2018 03:38 16,3 °C 76 % 1016,5 hPa 0,0 mm 0,0 km/h (0 Bft) W-SW 250 ° 0 min 0,000 mm 0,0 UV-I 0 W/m² 12,1 °C 16,3 °C 0,0 km/h (0 Bft)
18.08.2018 03:39 16,3 °C 77 % 1016,5 hPa 0,0 mm 0,0 km/h (0 Bft) W-SW 250 ° 0 min 0,000 mm 0,0 UV-I 0 W/m² 12,3 °C 16,3 °C 0,0 km/h (0 Bft)
18.08.2018 03:40 16,3 °C 77 % 1016,5 hPa 0,0 mm 0,0 km/h (0 Bft) W-SW 250 ° 0 min 0,000 mm 0,0 UV-I 0 W/m² 12,3 °C 16,3 °C 0,0 km/h (0 Bft)
18.08.2018 03:41 16,3 °C 77 % 1016,5 hPa 0,0 mm 0,0 km/h (0 Bft) W-SW 250 ° 0 min 0,000 mm 0,0 UV-I 0 W/m² 12,3 °C 16,3 °C 0,0 km/h (0 Bft)
18.08.2018 03:42 16,3 °C 77 % 1016,4 hPa 0,0 mm 0,0 km/h (0 Bft) W-SW 250 ° 0 min 0,000 mm 0,0 UV-I 0 W/m² 12,3 °C 16,3 °C 0,0 km/h (0 Bft)
18.08.2018 03:43 16,3 °C 77 % 1016,5 hPa 0,0 mm 0,0 km/h (0 Bft) W-SW 250 ° 0 min 0,000 mm 0,0 UV-I 0 W/m² 12,3 °C 16,3 °C 0,0 km/h (0 Bft)
18.08.2018 03:44 16,3 °C 77 % 1016,5 hPa 0,0 mm 1,0 km/h (0 Bft) W-SW 250 ° 0 min 0,000 mm 0,0 UV-I 0 W/m² 12,3 °C 16,3 °C 3,2 km/h (1 Bft)
18.08.2018 03:45 16,3 °C 77 % 1016,5 hPa 0,0 mm 0,2 km/h (0 Bft) W-SW 250 ° 0 min 0,000 mm 0,0 UV-I 0 W/m² 12,3 °C 16,3 °C 1,6 km/h (1 Bft)
18.08.2018 03:46 16,4 °C 77 % 1016,5 hPa 0,0 mm 0,4 km/h (0 Bft) W-SW 250 ° 0 min 0,000 mm 0,0 UV-I 0 W/m² 12,4 °C 16,4 °C 1,6 km/h (1 Bft)
18.08.2018 03:47 16,4 °C 77 % 1016,5 hPa 0,0 mm 0,0 km/h (0 Bft) W-SW 250 ° 0 min 0,000 mm 0,0 UV-I 0 W/m² 12,4 °C 16,4 °C 0,0 km/h (0 Bft)
18.08.2018 03:48 16,5 °C 77 % 1016,5 hPa 0,0 mm 1,0 km/h (0 Bft) W-SW 250 ° 0 min 0,000 mm 0,0 UV-I 0 W/m² 12,5 °C 16,5 °C 3,2 km/h (1 Bft)
18.08.2018 03:49 16,5 °C 76 % 1016,5 hPa 0,0 mm 0,1 km/h (0 Bft) W-SW 250 ° 0 min 0,000 mm 0,0 UV-I 0 W/m² 12,3 °C 16,5 °C 1,6 km/h (1 Bft)
18.08.2018 03:50 16,6 °C 76 % 1016,5 hPa 0,0 mm 0,1 km/h (0 Bft) W-SW 250 ° 0 min 0,000 mm 0,0 UV-I 0 W/m² 12,3 °C 16,6 °C 1,6 km/h (1 Bft)
18.08.2018 03:51 16,7 °C 76 % 1016,5 hPa 0,0 mm 0,0 km/h (0 Bft) W-SW 250 ° 0 min 0,000 mm 0,0 UV-I 0 W/m² 12,4 °C 16,7 °C 0,0 km/h (0 Bft)
18.08.2018 03:52 16,7 °C 76 % 1016,6 hPa 0,0 mm 0,1 km/h (0 Bft) W-SW 249 ° 0 min 0,000 mm 0,0 UV-I 0 W/m² 12,4 °C 16,7 °C 1,6 km/h (1 Bft)
18.08.2018 03:53 16,7 °C 76 % 1016,5 hPa 0,0 mm 0,3 km/h (0 Bft) W-SW 249 ° 0 min 0,000 mm 0,0 UV-I 0 W/m² 12,4 °C 16,7 °C 1,6 km/h (1 Bft)
18.08.2018 03:54 16,7 °C 76 % 1016,5 hPa 0,0 mm 0,0 km/h (0 Bft) W-SW 249 ° 0 min 0,000 mm 0,0 UV-I 0 W/m² 12,4 °C 16,7 °C 0,0 km/h (0 Bft)
18.08.2018 03:55 16,7 °C 76 % 1016,6 hPa 0,0 mm 1,5 km/h (1 Bft) SW 236 ° 0 min 0,000 mm 0,0 UV-I 0 W/m² 12,4 °C 16,7 °C 4,8 km/h (1 Bft)
18.08.2018 03:56 16,8 °C 76 % 1016,6 hPa 0,0 mm 0,5 km/h (0 Bft) SW 236 ° 0 min 0,000 mm 0,0 UV-I 0 W/m² 12,5 °C 16,8 °C 1,6 km/h (1 Bft)
18.08.2018 03:57 16,8 °C 76 % 1016,5 hPa 0,0 mm 0,1 km/h (0 Bft) SW 236 ° 0 min 0,000 mm 0,0 UV-I 0 W/m² 12,5 °C 16,8 °C 1,6 km/h (1 Bft)
18.08.2018 03:58 16,8 °C 75 % 1016,5 hPa 0,0 mm 0,0 km/h (0 Bft) SW 236 ° 0 min 0,000 mm 0,0 UV-I 0 W/m² 12,3 °C 16,8 °C 0,0 km/h (0 Bft)
18.08.2018 03:59 16,8 °C 75 % 1016,5 hPa 0,0 mm 0,0 km/h (0 Bft) SW 236 ° 0 min 0,000 mm 0,0 UV-I 0 W/m² 12,3 °C 16,8 °C 0,0 km/h (0 Bft)
18.08.2018 04:00 16,8 °C 75 % 1016,5 hPa 0,0 mm 0,0 km/h (0 Bft) SW 236 ° 0 min 0,026 mm 0,0 UV-I 0 W/m² 12,3 °C 16,8 °C 0,0 km/h (0 Bft)
18.08.2018 04:01 16,8 °C 75 % 1016,6 hPa 0,0 mm 1,7 km/h (1 Bft) SW 225 ° 0 min 0,000 mm 0,0 UV-I 0 W/m² 12,3 °C 16,8 °C 3,2 km/h (1 Bft)
18.08.2018 04:02 16,9 °C 75 % 1016,6 hPa 0,0 mm 0,5 km/h (0 Bft) SW 225 ° 0 min 0,000 mm 0,0 UV-I 0 W/m² 12,4 °C 16,9 °C 1,6 km/h (1 Bft)
18.08.2018 04:03 16,9 °C 74 % 1016,5 hPa 0,0 mm 1,0 km/h (0 Bft) S-SW 196 ° 0 min 0,000 mm 0,0 UV-I 0 W/m² 12,2 °C 16,9 °C 3,2 km/h (1 Bft)
18.08.2018 04:04 17,0 °C 74 % 1016,5 hPa 0,0 mm 2,0 km/h (1 Bft) S-SW 196 ° 0 min 0,000 mm 0,0 UV-I 0 W/m² 12,3 °C 17,0 °C 4,8 km/h (1 Bft)
18.08.2018 04:05 17,1 °C 74 % 1016,5 hPa 0,0 mm 3,6 km/h (1 Bft) S-SW 196 ° 0 min 0,000 mm 0,0 UV-I 0 W/m² 12,4 °C 17,1 °C 4,8 km/h (1 Bft)
18.08.2018 04:06 17,2 °C 74 % 1016,5 hPa 0,0 mm 0,9 km/h (0 Bft) S-SW 196 ° 0 min 0,000 mm 0,0 UV-I 0 W/m² 12,5 °C 17,2 °C 3,2 km/h (1 Bft)
18.08.2018 04:07 17,2 °C 74 % 1016,5 hPa 0,0 mm 2,4 km/h (1 Bft) S-SW 194 ° 0 min 0,000 mm 0,0 UV-I 0 W/m² 12,5 °C 17,2 °C 4,8 km/h (1 Bft)
18.08.2018 04:08 17,3 °C 74 % 1016,5 hPa 0,0 mm 3,2 km/h (1 Bft) S-SW 194 ° 0 min 0,000 mm 0,0 UV-I 0 W/m² 12,6 °C 17,3 °C 4,8 km/h (1 Bft)
18.08.2018 04:09 17,3 °C 73 % 1016,5 hPa 0,0 mm 0,7 km/h (0 Bft) S-SW 192 ° 0 min 0,000 mm 0,0 UV-I 0 W/m² 12,4 °C 17,3 °C 3,2 km/h (1 Bft)
18.08.2018 04:10 17,3 °C 73 % 1016,6 hPa 0,0 mm 1,4 km/h (1 Bft) S-SW 193 ° 0 min 0,000 mm 0,0 UV-I 0 W/m² 12,4 °C 17,3 °C 4,8 km/h (1 Bft)
18.08.2018 04:11 17,4 °C 73 % 1016,5 hPa 0,0 mm 1,9 km/h (1 Bft) S-SW 206 ° 0 min 0,000 mm 0,0 UV-I 0 W/m² 12,5 °C 17,4 °C 4,8 km/h (1 Bft)
18.08.2018 04:12 17,3 °C 73 % 1016,5 hPa 0,0 mm 3,9 km/h (1 Bft) W-SW 248 ° 0 min 0,000 mm 0,0 UV-I 0 W/m² 12,4 °C 17,3 °C 6,4 km/h (2 Bft)
18.08.2018 04:13 17,4 °C 73 % 1016,6 hPa 0,0 mm 0,3 km/h (0 Bft) W-SW 248 ° 0 min 0,000 mm 0,0 UV-I 0 W/m² 12,5 °C 17,4 °C 1,6 km/h (1 Bft)
18.08.2018 04:14 17,4 °C 73 % 1016,6 hPa 0,0 mm 1,0 km/h (0 Bft) W-SW 244 ° 0 min 0,000 mm 0,0 UV-I 0 W/m² 12,5 °C 17,4 °C 3,2 km/h (1 Bft)
18.08.2018 04:15 17,4 °C 73 % 1016,6 hPa 0,0 mm 1,2 km/h (1 Bft) W-SW 244 ° 0 min 0,000 mm 0,0 UV-I 0 W/m² 12,5 °C 17,4 °C 3,2 km/h (1 Bft)
18.08.2018 04:16 17,4 °C 74 % 1016,6 hPa 0,0 mm 0,1 km/h (0 Bft) W-SW 244 ° 0 min 0,000 mm 0,0 UV-I 0 W/m² 12,7 °C 17,4 °C 1,6 km/h (1 Bft)
18.08.2018 04:17 17,3 °C 74 % 1016,5 hPa 0,0 mm 0,3 km/h (0 Bft) W-SW 244 ° 0 min 0,000 mm 0,0 UV-I 0 W/m² 12,6 °C 17,3 °C 1,6 km/h (1 Bft)
18.08.2018 04:18 17,3 °C 73 % 1016,5 hPa 0,0 mm 0,0 km/h (0 Bft) W-SW 244 ° 0 min 0,000 mm 0,0 UV-I 0 W/m² 12,4 °C 17,3 °C 0,0 km/h (0 Bft)
18.08.2018 04:19 17,3 °C 73 % 1016,5 hPa 0,0 mm 0,9 km/h (0 Bft) W-SW 246 ° 0 min 0,000 mm 0,0 UV-I 0 W/m² 12,4 °C 17,3 °C 3,2 km/h (1 Bft)
18.08.2018 04:20 17,3 °C 73 % 1016,6 hPa 0,0 mm 1,0 km/h (0 Bft) SW 221 ° 0 min 0,000 mm 0,0 UV-I 0 W/m² 12,4 °C 17,3 °C 3,2 km/h (1 Bft)
18.08.2018 04:21 17,3 °C 74 % 1016,6 hPa 0,0 mm 1,0 km/h (0 Bft) SW 222 ° 0 min 0,000 mm 0,0 UV-I 0 W/m² 12,6 °C 17,3 °C 3,2 km/h (1 Bft)
18.08.2018 04:22 17,4 °C 73 % 1016,6 hPa 0,0 mm 0,2 km/h (0 Bft) SW 222 ° 0 min 0,000 mm 0,0 UV-I 0 W/m² 12,5 °C 17,4 °C 1,6 km/h (1 Bft)
18.08.2018 04:23 17,4 °C 73 % 1016,6 hPa 0,0 mm 0,2 km/h (0 Bft) SW 222 ° 0 min 0,000 mm 0,0 UV-I 0 W/m² 12,5 °C 17,4 °C 1,6 km/h (1 Bft)
18.08.2018 04:24 17,3 °C 74 % 1016,6 hPa 0,0 mm 0,9 km/h (0 Bft) SW 223 ° 0 min 0,000 mm 0,0 UV-I 0 W/m² 12,6 °C 17,3 °C 3,2 km/h (1 Bft)
18.08.2018 04:25 17,3 °C 73 % 1016,6 hPa 0,0 mm 0,6 km/h (0 Bft) SW 223 ° 0 min 0,000 mm 0,0 UV-I 0 W/m² 12,4 °C 17,3 °C 1,6 km/h (1 Bft)
18.08.2018 04:26 17,3 °C 74 % 1016,6 hPa 0,0 mm 0,6 km/h (0 Bft) SW 223 ° 0 min 0,000 mm 0,0 UV-I 0 W/m² 12,6 °C 17,3 °C 1,6 km/h (1 Bft)
18.08.2018 04:27 17,3 °C 73 % 1016,6 hPa 0,0 mm 2,2 km/h (1 Bft) W 260 ° 0 min 0,000 mm 0,0 UV-I 0 W/m² 12,4 °C 17,3 °C 3,2 km/h (1 Bft)
18.08.2018 04:28 17,3 °C 74 % 1016,6 hPa 0,0 mm 1,5 km/h (1 Bft) W 260 ° 0 min 0,000 mm 0,0 UV-I 0 W/m² 12,6 °C 17,3 °C 3,2 km/h (1 Bft)
18.08.2018 04:29 17,3 °C 74 % 1016,6 hPa 0,0 mm 1,3 km/h (1 Bft) W 260 ° 0 min 0,000 mm 0,0 UV-I 0 W/m² 12,6 °C 17,3 °C 3,2 km/h (1 Bft)
18.08.2018 04:30 17,3 °C 74 % 1016,7 hPa 0,0 mm 2,2 km/h (1 Bft) W-SW 250 ° 0 min 0,000 mm 0,0 UV-I 0 W/m² 12,6 °C 17,3 °C 4,8 km/h (1 Bft)
18.08.2018 04:31 17,3 °C 74 % 1016,7 hPa 0,0 mm 3,4 km/h (1 Bft) W-SW 256 ° 0 min 0,000 mm 0,0 UV-I 0 W/m² 12,6 °C 17,3 °C 9,7 km/h (2 Bft)
18.08.2018 04:32 17,3 °C 73 % 1016,7 hPa 0,0 mm 0,3 km/h (0 Bft) W-SW 256 ° 0 min 0,000 mm 0,0 UV-I 0 W/m² 12,4 °C 17,3 °C 1,6 km/h (1 Bft)
18.08.2018 04:33 17,3 °C 74 % 1016,7 hPa 0,0 mm 1,5 km/h (1 Bft) W-SW 257 ° 0 min 0,000 mm 0,0 UV-I 0 W/m² 12,6 °C 17,3 °C 3,2 km/h (1 Bft)
18.08.2018 04:34 17,3 °C 74 % 1016,7 hPa 0,0 mm 0,3 km/h (0 Bft) W-SW 246 ° 0 min 0,000 mm 0,0 UV-I 0 W/m² 12,6 °C 17,3 °C 1,6 km/h (1 Bft)
18.08.2018 04:35 17,3 °C 74 % 1016,6 hPa 0,0 mm 1,5 km/h (1 Bft) W-SW 257 ° 0 min 0,000 mm 0,0 UV-I 0 W/m² 12,6 °C 17,3 °C 4,8 km/h (1 Bft)
18.08.2018 04:36 17,3 °C 74 % 1016,7 hPa 0,0 mm 1,0 km/h (0 Bft) W-SW 257 ° 0 min 0,000 mm 0,0 UV-I 0 W/m² 12,6 °C 17,3 °C 3,2 km/h (1 Bft)
18.08.2018 04:37 17,3 °C 74 % 1016,6 hPa 0,0 mm 1,1 km/h (1 Bft) SW 229 ° 0 min 0,000 mm 0,0 UV-I 0 W/m² 12,6 °C 17,3 °C 3,2 km/h (1 Bft)
18.08.2018 04:38 17,3 °C 74 % 1016,6 hPa 0,0 mm 0,1 km/h (0 Bft) SW 229 ° 0 min 0,000 mm 0,0 UV-I 0 W/m² 12,6 °C 17,3 °C 1,6 km/h (1 Bft)
18.08.2018 04:39 17,3 °C 73 % 1016,6 hPa 0,0 mm 2,5 km/h (1 Bft) SW 227 ° 0 min 0,000 mm 0,0 UV-I 0 W/m² 12,4 °C 17,3 °C 4,8 km/h (1 Bft)
18.08.2018 04:40 17,3 °C 74 % 1016,6 hPa 0,0 mm 2,3 km/h (1 Bft) SW 221 ° 0 min 0,000 mm 0,0 UV-I 0 W/m² 12,6 °C 17,3 °C 4,8 km/h (1 Bft)
18.08.2018 04:41 17,2 °C 74 % 1016,6 hPa 0,0 mm 2,1 km/h (1 Bft) SW 221 ° 0 min 0,000 mm 0,0 UV-I 0 W/m² 12,5 °C 17,2 °C 3,2 km/h (1 Bft)
18.08.2018 04:42 17,2 °C 74 % 1016,6 hPa 0,0 mm 2,1 km/h (1 Bft) SW 221 ° 0 min 0,000 mm 0,0 UV-I 0 W/m² 12,5 °C 17,2 °C 4,8 km/h (1 Bft)
18.08.2018 04:43 17,2 °C 74 % 1016,6 hPa 0,0 mm 0,9 km/h (0 Bft) SW 221 ° 0 min 0,000 mm 0,0 UV-I 0 W/m² 12,5 °C 17,2 °C 3,2 km/h (1 Bft)
18.08.2018 04:44 17,2 °C 74 % 1016,6 hPa 0,0 mm 3,0 km/h (1 Bft) S-SW 207 ° 0 min 0,000 mm 0,0 UV-I 0 W/m² 12,5 °C 17,2 °C 6,4 km/h (2 Bft)
18.08.2018 04:45 17,2 °C 74 % 1016,6 hPa 0,0 mm 0,6 km/h (0 Bft) S-SW 207 ° 0 min 0,000 mm 0,0 UV-I 0 W/m² 12,5 °C 17,2 °C 1,6 km/h (1 Bft)
18.08.2018 04:46 17,1 °C 74 % 1016,6 hPa 0,0 mm 1,4 km/h (1 Bft) S-SW 207 ° 0 min 0,000 mm 0,0 UV-I 0 W/m² 12,4 °C 17,1 °C 3,2 km/h (1 Bft)
18.08.2018 04:47 17,1 °C 74 % 1016,6 hPa 0,0 mm 0,4 km/h (0 Bft) S-SW 207 ° 0 min 0,000 mm 0,0 UV-I 0 W/m² 12,4 °C 17,1 °C 1,6 km/h (1 Bft)
18.08.2018 04:48 17,0 °C 75 % 1016,6 hPa 0,0 mm 0,6 km/h (0 Bft) S-SW 207 ° 0 min 0,000 mm 0,0 UV-I 0 W/m² 12,5 °C 17,0 °C 1,6 km/h (1 Bft)
18.08.2018 04:49 17,0 °C 75 % 1016,6 hPa 0,0 mm 2,7 km/h (1 Bft) S-SW 201 ° 0 min 0,000 mm 0,0 UV-I 0 W/m² 12,5 °C 17,0 °C 4,8 km/h (1 Bft)
18.08.2018 04:50 16,9 °C 75 % 1016,6 hPa 0,0 mm 1,3 km/h (1 Bft) S-SW 213 ° 0 min 0,000 mm 0,0 UV-I 0 W/m² 12,4 °C 16,9 °C 3,2 km/h (1 Bft)
18.08.2018 04:51 16,9 °C 75 % 1016,6 hPa 0,0 mm 3,2 km/h (1 Bft) SW 234 ° 0 min 0,000 mm 0,0 UV-I 0 W/m² 12,4 °C 16,9 °C 4,8 km/h (1 Bft)
18.08.2018 04:52 16,9 °C 75 % 1016,6 hPa 0,0 mm 2,8 km/h (1 Bft) SW 220 ° 0 min 0,000 mm 0,0 UV-I 0 W/m² 12,4 °C 16,9 °C 4,8 km/h (1 Bft)
18.08.2018 04:53 16,9 °C 75 % 1016,6 hPa 0,0 mm 1,0 km/h (0 Bft) SW 220 ° 0 min 0,000 mm 0,0 UV-I 0 W/m² 12,4 °C 16,9 °C 3,2 km/h (1 Bft)
18.08.2018 04:54 16,9 °C 75 % 1016,6 hPa 0,0 mm 1,6 km/h (1 Bft) SW 216 ° 0 min 0,000 mm 0,0 UV-I 0 W/m² 12,4 °C 16,9 °C 4,8 km/h (1 Bft)
18.08.2018 04:55 16,9 °C 75 % 1016,6 hPa 0,0 mm 0,6 km/h (0 Bft) SW 216 ° 0 min 0,000 mm 0,0 UV-I 0 W/m² 12,4 °C 16,9 °C 3,2 km/h (1 Bft)
18.08.2018 04:56 16,9 °C 75 % 1016,6 hPa 0,0 mm 0,5 km/h (0 Bft) S-SW 209 ° 0 min 0,000 mm 0,0 UV-I 0 W/m² 12,4 °C 16,9 °C 1,6 km/h (1 Bft)
18.08.2018 04:57 16,9 °C 75 % 1016,6 hPa 0,0 mm 1,2 km/h (1 Bft) S-SW 207 ° 0 min 0,000 mm 0,0 UV-I 0 W/m² 12,4 °C 16,9 °C 3,2 km/h (1 Bft)
18.08.2018 04:58 16,9 °C 75 % 1016,6 hPa 0,0 mm 0,9 km/h (0 Bft) SW 223 ° 0 min 0,000 mm 0,0 UV-I 0 W/m² 12,4 °C 16,9 °C 3,2 km/h (1 Bft)
18.08.2018 04:59 16,9 °C 75 % 1016,6 hPa 0,0 mm 0,5 km/h (0 Bft) SW 223 ° 0 min 0,000 mm 0,0 UV-I 0 W/m² 12,4 °C 16,9 °C 1,6 km/h (1 Bft)
18.08.2018 05:00 16,8 °C 76 % 1016,6 hPa 0,0 mm 0,1 km/h (0 Bft) SW 223 ° 0 min 0,000 mm 0,0 UV-I 0 W/m² 12,5 °C 16,8 °C 1,6 km/h (1 Bft)
18.08.2018 05:01 16,8 °C 76 % 1016,6 hPa 0,0 mm 0,0 km/h (0 Bft) SW 223 ° 0 min 0,025 mm 0,0 UV-I 0 W/m² 12,5 °C 16,8 °C 0,0 km/h (0 Bft)
18.08.2018 05:02 16,8 °C 76 % 1016,6 hPa 0,0 mm 0,0 km/h (0 Bft) SW 223 ° 0 min 0,000 mm 0,0 UV-I 0 W/m² 12,5 °C 16,8 °C 0,0 km/h (0 Bft)
18.08.2018 05:03 16,7 °C 76 % 1016,6 hPa 0,0 mm 0,1 km/h (0 Bft) SW 223 ° 0 min 0,000 mm 0,0 UV-I 0 W/m² 12,4 °C 16,7 °C 1,6 km/h (1 Bft)
18.08.2018 05:04 16,7 °C 76 % 1016,6 hPa 0,0 mm 0,8 km/h (0 Bft) W-SW 238 ° 0 min 0,000 mm 0,0 UV-I 0 W/m² 12,4 °C 16,7 °C 4,8 km/h (1 Bft)
18.08.2018 05:05 16,7 °C 76 % 1016,6 hPa 0,0 mm 0,0 km/h (0 Bft) W-SW 238 ° 0 min 0,000 mm 0,0 UV-I 0 W/m² 12,4 °C 16,7 °C 0,0 km/h (0 Bft)
18.08.2018 05:06 16,6 °C 76 % 1016,6 hPa 0,0 mm 0,3 km/h (0 Bft) W-SW 238 ° 0 min 0,000 mm 0,0 UV-I 0 W/m² 12,3 °C 16,6 °C 1,6 km/h (1 Bft)
18.08.2018 05:07 16,6 °C 77 % 1016,6 hPa 0,0 mm 1,2 km/h (1 Bft) W-SW 248 ° 0 min 0,000 mm 0,0 UV-I 0 W/m² 12,5 °C 16,6 °C 4,8 km/h (1 Bft)
18.08.2018 05:08 16,6 °C 77 % 1016,6 hPa 0,0 mm 1,1 km/h (1 Bft) SW 221 ° 0 min 0,000 mm 0,0 UV-I 0 W/m² 12,5 °C 16,6 °C 3,2 km/h (1 Bft)
18.08.2018 05:09 16,6 °C 77 % 1016,6 hPa 0,0 mm 0,6 km/h (0 Bft) SW 221 ° 0 min 0,000 mm 0,0 UV-I 0 W/m² 12,5 °C 16,6 °C 3,2 km/h (1 Bft)
18.08.2018 05:10 16,6 °C 77 % 1016,6 hPa 0,0 mm 0,9 km/h (0 Bft) W 261 ° 0 min 0,000 mm 0,0 UV-I 0 W/m² 12,5 °C 16,6 °C 3,2 km/h (1 Bft)
18.08.2018 05:11 16,6 °C 77 % 1016,6 hPa 0,0 mm 1,2 km/h (1 Bft) W-SW 256 ° 0 min 0,000 mm 0,0 UV-I 0 W/m² 12,5 °C 16,6 °C 3,2 km/h (1 Bft)
18.08.2018 05:12 16,6 °C 77 % 1016,6 hPa 0,0 mm 1,3 km/h (1 Bft) W-SW 256 ° 0 min 0,000 mm 0,0 UV-I 0 W/m² 12,5 °C 16,6 °C 3,2 km/h (1 Bft)
18.08.2018 05:13 16,6 °C 77 % 1016,6 hPa 0,0 mm 1,7 km/h (1 Bft) W-SW 256 ° 0 min 0,000 mm 0,0 UV-I 0 W/m² 12,5 °C 16,6 °C 4,8 km/h (1 Bft)
18.08.2018 05:14 16,6 °C 77 % 1016,6 hPa 0,0 mm 1,7 km/h (1 Bft) W-SW 252 ° 0 min 0,000 mm 0,0 UV-I 0 W/m² 12,5 °C 16,6 °C 4,8 km/h (1 Bft)
18.08.2018 05:15 16,6 °C 77 % 1016,6 hPa 0,0 mm 1,5 km/h (1 Bft) W-SW 251 ° 0 min 0,000 mm 0,0 UV-I 0 W/m² 12,5 °C 16,6 °C 3,2 km/h (1 Bft)
18.08.2018 05:16 16,6 °C 77 % 1016,6 hPa 0,0 mm 2,3 km/h (1 Bft) W-SW 251 ° 0 min 0,000 mm 0,0 UV-I 0 W/m² 12,5 °C 16,6 °C 4,8 km/h (1 Bft)
18.08.2018 05:17 16,7 °C 77 % 1016,6 hPa 0,0 mm 2,2 km/h (1 Bft) W-SW 247 ° 0 min 0,000 mm 0,0 UV-I 0 W/m² 12,6 °C 16,7 °C 3,2 km/h (1 Bft)
18.08.2018 05:18 16,7 °C 77 % 1016,6 hPa 0,0 mm 1,8 km/h (1 Bft) W-SW 242 ° 0 min 0,000 mm 0,0 UV-I 0 W/m² 12,6 °C 16,7 °C 4,8 km/h (1 Bft)
18.08.2018 05:19 16,7 °C 77 % 1016,6 hPa 0,0 mm 3,0 km/h (1 Bft) S 186 ° 0 min 0,000 mm 0,0 UV-I 0 W/m² 12,6 °C 16,7 °C 4,8 km/h (1 Bft)
18.08.2018 05:20 16,8 °C 77 % 1016,6 hPa 0,0 mm 3,8 km/h (1 Bft) S-SW 202 ° 0 min 0,000 mm 0,0 UV-I 0 W/m² 12,7 °C 16,8 °C 4,8 km/h (1 Bft)
18.08.2018 05:21 16,8 °C 77 % 1016,6 hPa 0,0 mm 2,1 km/h (1 Bft) SW 232 ° 0 min 0,000 mm 0,0 UV-I 0 W/m² 12,7 °C 16,8 °C 4,8 km/h (1 Bft)
18.08.2018 05:22 16,8 °C 77 % 1016,7 hPa 0,0 mm 3,1 km/h (1 Bft) W-SW 244 ° 0 min 0,000 mm 0,0 UV-I 0 W/m² 12,7 °C 16,8 °C 6,4 km/h (2 Bft)
18.08.2018 05:23 16,8 °C 77 % 1016,6 hPa 0,0 mm 1,1 km/h (1 Bft) W-SW 244 ° 0 min 0,000 mm 0,0 UV-I 0 W/m² 12,7 °C 16,8 °C 3,2 km/h (1 Bft)
18.08.2018 05:24 16,8 °C 77 % 1016,7 hPa 0,0 mm 0,5 km/h (0 Bft) W-SW 244 ° 0 min 0,000 mm 0,0 UV-I 0 W/m² 12,7 °C 16,8 °C 3,2 km/h (1 Bft)
18.08.2018 05:25 16,8 °C 78 % 1016,7 hPa 0,0 mm 0,4 km/h (0 Bft) W-SW 244 ° 0 min 0,000 mm 0,0 UV-I 0 W/m² 12,9 °C 16,8 °C 1,6 km/h (1 Bft)
18.08.2018 05:26 16,8 °C 78 % 1016,7 hPa 0,0 mm 0,0 km/h (0 Bft) W-SW 244 ° 0 min 0,000 mm 0,0 UV-I 0 W/m² 12,9 °C 16,8 °C 0,0 km/h (0 Bft)
18.08.2018 05:27 16,8 °C 78 % 1016,7 hPa 0,0 mm 0,0 km/h (0 Bft) W-SW 244 ° 0 min 0,000 mm 0,0 UV-I 0 W/m² 12,9 °C 16,8 °C 0,0 km/h (0 Bft)
18.08.2018 05:28 16,8 °C 78 % 1016,6 hPa 0,0 mm 0,0 km/h (0 Bft) W-SW 244 ° 0 min 0,000 mm 0,0 UV-I 0 W/m² 12,9 °C 16,8 °C 0,0 km/h (0 Bft)
18.08.2018 05:29 16,8 °C 78 % 1016,7 hPa 0,0 mm 0,0 km/h (0 Bft) W-SW 244 ° 0 min 0,000 mm 0,0 UV-I 0 W/m² 12,9 °C 16,8 °C 0,0 km/h (0 Bft)
18.08.2018 05:30 16,8 °C 78 % 1016,7 hPa 0,0 mm 1,2 km/h (1 Bft) SW 215 ° 0 min 0,000 mm 0,0 UV-I 0 W/m² 12,9 °C 16,8 °C 3,2 km/h (1 Bft)
18.08.2018 05:31 16,8 °C 78 % 1016,7 hPa 0,0 mm 1,3 km/h (1 Bft) S-SW 208 ° 0 min 0,000 mm 0,0 UV-I 0 W/m² 12,9 °C 16,8 °C 4,8 km/h (1 Bft)
18.08.2018 05:32 16,8 °C 78 % 1016,7 hPa 0,0 mm 0,9 km/h (0 Bft) S-SW 208 ° 0 min 0,000 mm 0,0 UV-I 0 W/m² 12,9 °C 16,8 °C 4,8 km/h (1 Bft)
18.08.2018 05:33 16,8 °C 78 % 1016,7 hPa 0,0 mm 2,3 km/h (1 Bft) S-SW 208 ° 0 min 0,000 mm 0,0 UV-I 0 W/m² 12,9 °C 16,8 °C 3,2 km/h (1 Bft)
18.08.2018 05:34 16,8 °C 78 % 1016,6 hPa 0,0 mm 1,7 km/h (1 Bft) W-SW 242 ° 0 min 0,000 mm 0,0 UV-I 0 W/m² 12,9 °C 16,8 °C 8,0 km/h (2 Bft)
18.08.2018 05:35 16,8 °C 78 % 1016,6 hPa 0,0 mm 3,1 km/h (1 Bft) NW 309 ° 0 min 0,000 mm 0,0 UV-I 0 W/m² 12,9 °C 16,8 °C 6,4 km/h (2 Bft)
18.08.2018 05:36 16,8 °C 78 % 1016,7 hPa 0,0 mm 3,9 km/h (1 Bft) W 276 ° 0 min 0,000 mm 0,0 UV-I 0 W/m² 12,9 °C 16,8 °C 6,4 km/h (2 Bft)
18.08.2018 05:37 16,8 °C 78 % 1016,8 hPa 0,0 mm 1,5 km/h (1 Bft) S 169 ° 0 min 0,000 mm 0,0 UV-I 0 W/m² 12,9 °C 16,8 °C 4,8 km/h (1 Bft)
18.08.2018 05:38 16,8 °C 78 % 1016,7 hPa 0,0 mm 0,0 km/h (0 Bft) S 169 ° 0 min 0,000 mm 0,0 UV-I 0 W/m² 12,9 °C 16,8 °C 0,0 km/h (0 Bft)
18.08.2018 05:39 16,8 °C 79 % 1016,7 hPa 0,0 mm 5,3 km/h (1 Bft) W-SW 245 ° 0 min 0,000 mm 0,0 UV-I 0 W/m² 13,1 °C 16,8 °C 9,7 km/h (2 Bft)
18.08.2018 05:40 16,8 °C 79 % 1016,7 hPa 0,0 mm 3,2 km/h (1 Bft) W 262 ° 0 min 0,000 mm 0,0 UV-I 0 W/m² 13,1 °C 16,8 °C 6,4 km/h (2 Bft)
18.08.2018 05:41 16,8 °C 79 % 1016,7 hPa 0,0 mm 0,3 km/h (0 Bft) W 262 ° 0 min 0,000 mm 0,0 UV-I 0 W/m² 13,1 °C 16,8 °C 1,6 km/h (1 Bft)
18.08.2018 05:42 16,7 °C 79 % 1016,7 hPa 0,0 mm 1,0 km/h (0 Bft) W 262 ° 0 min 0,000 mm 0,0 UV-I 0 W/m² 13,0 °C 16,7 °C 3,2 km/h (1 Bft)
18.08.2018 05:43 16,7 °C 79 % 1016,8 hPa 0,0 mm 0,6 km/h (0 Bft) W 262 ° 0 min 0,000 mm 0,0 UV-I 0 W/m² 13,0 °C 16,7 °C 1,6 km/h (1 Bft)
18.08.2018 05:44 16,7 °C 79 % 1016,8 hPa 0,0 mm 0,2 km/h (0 Bft) W-SW 255 ° 0 min 0,000 mm 0,0 UV-I 0 W/m² 13,0 °C 16,7 °C 1,6 km/h (1 Bft)
18.08.2018 05:45 16,7 °C 79 % 1016,8 hPa 0,0 mm 2,5 km/h (1 Bft) W-SW 252 ° 0 min 0,000 mm 0,0 UV-I 0 W/m² 13,0 °C 16,7 °C 4,8 km/h (1 Bft)
18.08.2018 05:46 16,7 °C 79 % 1016,7 hPa 0,0 mm 3,6 km/h (1 Bft) W 259 ° 0 min 0,000 mm 0,0 UV-I 0 W/m² 13,0 °C 16,7 °C 6,4 km/h (2 Bft)
18.08.2018 05:47 16,7 °C 80 % 1016,7 hPa 0,0 mm 0,9 km/h (0 Bft) W 273 ° 0 min 0,000 mm 0,0 UV-I 0 W/m² 13,2 °C 16,7 °C 4,8 km/h (1 Bft)
18.08.2018 05:48 16,7 °C 80 % 1016,7 hPa 0,0 mm 1,8 km/h (1 Bft) W 271 ° 0 min 0,000 mm 0,0 UV-I 0 W/m² 13,2 °C 16,7 °C 4,8 km/h (1 Bft)
18.08.2018 05:49 16,7 °C 80 % 1016,7 hPa 0,0 mm 2,1 km/h (1 Bft) W-SW 257 ° 0 min 0,000 mm 0,0 UV-I 0 W/m² 13,2 °C 16,7 °C 4,8 km/h (1 Bft)
18.08.2018 05:50 16,7 °C 80 % 1016,7 hPa 0,0 mm 0,0 km/h (0 Bft) W-SW 257 ° 0 min 0,000 mm 0,0 UV-I 0 W/m² 13,2 °C 16,7 °C 0,0 km/h (0 Bft)
18.08.2018 05:51 16,7 °C 80 % 1016,7 hPa 0,0 mm 0,2 km/h (0 Bft) W-SW 257 ° 0 min 0,000 mm 0,0 UV-I 0 W/m² 13,2 °C 16,7 °C 1,6 km/h (1 Bft)
18.08.2018 05:52 16,7 °C 80 % 1016,7 hPa 0,0 mm 2,7 km/h (1 Bft) W 259 ° 0 min 0,000 mm 0,0 UV-I 0 W/m² 13,2 °C 16,7 °C 4,8 km/h (1 Bft)
18.08.2018 05:53 16,7 °C 80 % 1016,8 hPa 0,0 mm 0,8 km/h (0 Bft) W 259 ° 0 min 0,000 mm 0,0 UV-I 0 W/m² 13,2 °C 16,7 °C 3,2 km/h (1 Bft)
18.08.2018 05:54 16,6 °C 80 % 1016,8 hPa 0,0 mm 0,2 km/h (0 Bft) W 259 ° 0 min 0,000 mm 0,0 UV-I 0 W/m² 13,1 °C 16,6 °C 1,6 km/h (1 Bft)
18.08.2018 05:55 16,7 °C 80 % 1016,7 hPa 0,0 mm 1,4 km/h (1 Bft) W-SW 247 ° 0 min 0,000 mm 0,0 UV-I 0 W/m² 13,2 °C 16,7 °C 3,2 km/h (1 Bft)
18.08.2018 05:56 16,7 °C 80 % 1016,8 hPa 0,0 mm 1,7 km/h (1 Bft) W-SW 249 ° 0 min 0,000 mm 0,0 UV-I 0 W/m² 13,2 °C 16,7 °C 3,2 km/h (1 Bft)
18.08.2018 05:57 16,7 °C 80 % 1016,7 hPa 0,0 mm 0,6 km/h (0 Bft) W-SW 249 ° 0 min 0,000 mm 0,0 UV-I 0 W/m² 13,2 °C 16,7 °C 1,6 km/h (1 Bft)
18.08.2018 05:58 16,7 °C 80 % 1016,7 hPa 0,0 mm 0,3 km/h (0 Bft) W-SW 250 ° 0 min 0,000 mm 0,0 UV-I 0 W/m² 13,2 °C 16,7 °C 1,6 km/h (1 Bft)
18.08.2018 05:59 16,7 °C 80 % 1016,7 hPa 0,0 mm 0,1 km/h (0 Bft) W-SW 249 ° 0 min 0,000 mm 0,0 UV-I 0 W/m² 13,2 °C 16,7 °C 1,6 km/h (1 Bft)
18.08.2018 06:00 16,6 °C 80 % 1016,7 hPa 0,0 mm 0,0 km/h (0 Bft) W-SW 249 ° 0 min 0,025 mm 0,0 UV-I 0 W/m² 13,1 °C 16,6 °C 0,0 km/h (0 Bft)
18.08.2018 06:01 16,6 °C 80 % 1016,7 hPa 0,0 mm 0,2 km/h (0 Bft) W-SW 249 ° 0 min 0,000 mm 0,0 UV-I 0 W/m² 13,1 °C 16,6 °C 1,6 km/h (1 Bft)
18.08.2018 06:02 16,6 °C 80 % 1016,7 hPa 0,0 mm 1,0 km/h (0 Bft) W-SW 249 ° 0 min 0,000 mm 0,0 UV-I 0 W/m² 13,1 °C 16,6 °C 3,2 km/h (1 Bft)
18.08.2018 06:03 16,6 °C 80 % 1016,7 hPa 0,0 mm 1,9 km/h (1 Bft) W-SW 249 ° 0 min 0,000 mm 0,0 UV-I 0 W/m² 13,1 °C 16,6 °C 3,2 km/h (1 Bft)
18.08.2018 06:04 16,6 °C 80 % 1016,7 hPa 0,0 mm 0,7 km/h (0 Bft) W-SW 249 ° 0 min 0,000 mm 0,0 UV-I 0 W/m² 13,1 °C 16,6 °C 1,6 km/h (1 Bft)
18.08.2018 06:05 16,6 °C 80 % 1016,7 hPa 0,0 mm 0,8 km/h (0 Bft) W-SW 249 ° 0 min 0,000 mm 0,0 UV-I 0 W/m² 13,1 °C 16,6 °C 3,2 km/h (1 Bft)
18.08.2018 06:06 16,7 °C 80 % 1016,7 hPa 0,0 mm 0,3 km/h (0 Bft) W-SW 249 ° 0 min 0,000 mm 0,0 UV-I 0 W/m² 13,2 °C 16,7 °C 1,6 km/h (1 Bft)
18.08.2018 06:07 16,6 °C 80 % 1016,7 hPa 0,0 mm 1,1 km/h (1 Bft) W-SW 249 ° 0 min 0,000 mm 0,0 UV-I 0 W/m² 13,1 °C 16,6 °C 3,2 km/h (1 Bft)
18.08.2018 06:08 16,6 °C 80 % 1016,7 hPa 0,0 mm 0,7 km/h (0 Bft) W-SW 239 ° 0 min 0,000 mm 0,0 UV-I 0 W/m² 13,1 °C 16,6 °C 1,6 km/h (1 Bft)
18.08.2018 06:09 16,7 °C 81 % 1016,7 hPa 0,0 mm 0,8 km/h (0 Bft) W-SW 244 ° 0 min 0,000 mm 0,0 UV-I 0 W/m² 13,4 °C 16,7 °C 3,2 km/h (1 Bft)
18.08.2018 06:10 16,6 °C 81 % 1016,7 hPa 0,0 mm 1,3 km/h (1 Bft) W-SW 249 ° 0 min 0,000 mm 0,0 UV-I 0 W/m² 13,3 °C 16,6 °C 3,2 km/h (1 Bft)
18.08.2018 06:11 16,7 °C 81 % 1016,7 hPa 0,0 mm 1,1 km/h (1 Bft) W-SW 249 ° 0 min 0,000 mm 0,0 UV-I 0 W/m² 13,4 °C 16,7 °C 3,2 km/h (1 Bft)
18.08.2018 06:12 16,7 °C 81 % 1016,8 hPa 0,0 mm 0,4 km/h (0 Bft) W-SW 249 ° 0 min 0,000 mm 0,0 UV-I 0 W/m² 13,4 °C 16,7 °C 1,6 km/h (1 Bft)
18.08.2018 06:13 16,6 °C 81 % 1016,8 hPa 0,0 mm 2,2 km/h (1 Bft) W-SW 243 ° 0 min 0,000 mm 0,0 UV-I 0 W/m² 13,3 °C 16,6 °C 4,8 km/h (1 Bft)
18.08.2018 06:14 16,6 °C 81 % 1016,7 hPa 0,0 mm 0,3 km/h (0 Bft) W-SW 243 ° 0 min 0,000 mm 0,0 UV-I 0 W/m² 13,3 °C 16,6 °C 1,6 km/h (1 Bft)
18.08.2018 06:15 16,7 °C 81 % 1016,8 hPa 0,0 mm 1,1 km/h (1 Bft) W-SW 240 ° 0 min 0,000 mm 0,0 UV-I 0 W/m² 13,4 °C 16,7 °C 4,8 km/h (1 Bft)
18.08.2018 06:16 16,6 °C 81 % 1016,8 hPa 0,0 mm 0,4 km/h (0 Bft) W-SW 240 ° 0 min 0,000 mm 0,0 UV-I 5 W/m² 13,3 °C 16,6 °C 1,6 km/h (1 Bft)
18.08.2018 06:17 16,6 °C 81 % 1016,8 hPa 0,0 mm 0,2 km/h (0 Bft) W-SW 240 ° 0 min 0,000 mm 0,0 UV-I 5 W/m² 13,3 °C 16,6 °C 1,6 km/h (1 Bft)
18.08.2018 06:18 16,6 °C 81 % 1016,8 hPa 0,0 mm 0,9 km/h (0 Bft) W-SW 240 ° 0 min 0,000 mm 0,0 UV-I 5 W/m² 13,3 °C 16,6 °C 1,6 km/h (1 Bft)
18.08.2018 06:19 16,6 °C 81 % 1016,8 hPa 0,0 mm 0,7 km/h (0 Bft) W-SW 240 ° 0 min 0,000 mm 0,0 UV-I 5 W/m² 13,3 °C 16,6 °C 1,6 km/h (1 Bft)
18.08.2018 06:20 16,6 °C 81 % 1016,8 hPa 0,0 mm 1,2 km/h (1 Bft) W-SW 240 ° 0 min 0,000 mm 0,0 UV-I 7 W/m² 13,3 °C 16,6 °C 3,2 km/h (1 Bft)
18.08.2018 06:21 16,6 °C 82 % 1016,7 hPa 0,0 mm 0,3 km/h (0 Bft) W-SW 240 ° 0 min 0,000 mm 0,0 UV-I 7 W/m² 13,5 °C 16,6 °C 1,6 km/h (1 Bft)
18.08.2018 06:22 16,6 °C 82 % 1016,8 hPa 0,0 mm 0,4 km/h (0 Bft) W-SW 240 ° 0 min 0,000 mm 0,0 UV-I 7 W/m² 13,5 °C 16,6 °C 1,6 km/h (1 Bft)
18.08.2018 06:23 16,6 °C 82 % 1016,8 hPa 0,0 mm 0,0 km/h (0 Bft) W-SW 240 ° 0 min 0,000 mm 0,0 UV-I 7 W/m² 13,5 °C 16,6 °C 0,0 km/h (0 Bft)
18.08.2018 06:24 16,6 °C 82 % 1016,8 hPa 0,0 mm 0,0 km/h (0 Bft) W-SW 240 ° 0 min 0,000 mm 0,0 UV-I 9 W/m² 13,5 °C 16,6 °C 0,0 km/h (0 Bft)
18.08.2018 06:25 16,6 °C 82 % 1016,8 hPa 0,0 mm 0,0 km/h (0 Bft) W-SW 240 ° 0 min 0,000 mm 0,0 UV-I 9 W/m² 13,5 °C 16,6 °C 0,0 km/h (0 Bft)
18.08.2018 06:26 16,6 °C 82 % 1016,8 hPa 0,0 mm 0,0 km/h (0 Bft) W-SW 240 ° 0 min 0,000 mm 0,0 UV-I 11 W/m² 13,5 °C 16,6 °C 0,0 km/h (0 Bft)
18.08.2018 06:27 16,6 °C 82 % 1016,8 hPa 0,0 mm 0,0 km/h (0 Bft) W-SW 240 ° 0 min 0,000 mm 0,0 UV-I 11 W/m² 13,5 °C 16,6 °C 0,0 km/h (0 Bft)
18.08.2018 06:28 16,5 °C 82 % 1016,8 hPa 0,0 mm 0,0 km/h (0 Bft) W-SW 240 ° 0 min 0,000 mm 0,0 UV-I 12 W/m² 13,4 °C 16,5 °C 0,0 km/h (0 Bft)
18.08.2018 06:29 16,5 °C 82 % 1016,8 hPa 0,0 mm 0,0 km/h (0 Bft) W-SW 240 ° 0 min 0,000 mm 0,0 UV-I 12 W/m² 13,4 °C 16,5 °C 0,0 km/h (0 Bft)
18.08.2018 06:30 16,4 °C 82 % 1016,8 hPa 0,0 mm 0,0 km/h (0 Bft) W-SW 240 ° 0 min 0,000 mm 0,0 UV-I 12 W/m² 13,3 °C 16,4 °C 0,0 km/h (0 Bft)
18.08.2018 06:31 16,4 °C 82 % 1016,8 hPa 0,0 mm 0,0 km/h (0 Bft) W-SW 240 ° 0 min 0,000 mm 0,0 UV-I 14 W/m² 13,3 °C 16,4 °C 0,0 km/h (0 Bft)
18.08.2018 06:32 16,4 °C 82 % 1016,8 hPa 0,0 mm 0,0 km/h (0 Bft) W-SW 240 ° 0 min 0,000 mm 0,0 UV-I 16 W/m² 13,3 °C 16,4 °C 0,0 km/h (0 Bft)
18.08.2018 06:33 16,4 °C 82 % 1016,8 hPa 0,0 mm 0,0 km/h (0 Bft) W-SW 240 ° 0 min 0,000 mm 0,0 UV-I 18 W/m² 13,3 °C 16,4 °C 0,0 km/h (0 Bft)
18.08.2018 06:34 16,4 °C 82 % 1016,8 hPa 0,0 mm 0,0 km/h (0 Bft) W-SW 240 ° 0 min 0,000 mm 0,0 UV-I 18 W/m² 13,3 °C 16,4 °C 0,0 km/h (0 Bft)
18.08.2018 06:35 16,4 °C 83 % 1016,8 hPa 0,0 mm 0,0 km/h (0 Bft) W-SW 240 ° 0 min 0,000 mm 0,0 UV-I 19 W/m² 13,5 °C 16,4 °C 0,0 km/h (0 Bft)
18.08.2018 06:36 16,4 °C 83 % 1016,8 hPa 0,0 mm 0,0 km/h (0 Bft) W-SW 240 ° 0 min 0,000 mm 0,0 UV-I 21 W/m² 13,5 °C 16,4 °C 0,0 km/h (0 Bft)
18.08.2018 06:37 16,4 °C 83 % 1016,8 hPa 0,0 mm 0,1 km/h (0 Bft) W-SW 240 ° 0 min 0,000 mm 0,0 UV-I 23 W/m² 13,5 °C 16,4 °C 1,6 km/h (1 Bft)
18.08.2018 06:38 16,4 °C 83 % 1016,8 hPa 0,0 mm 0,2 km/h (0 Bft) W-SW 240 ° 0 min 0,000 mm 0,0 UV-I 25 W/m² 13,5 °C 16,4 °C 1,6 km/h (1 Bft)
18.08.2018 06:39 16,5 °C 83 % 1016,8 hPa 0,0 mm 0,0 km/h (0 Bft) W-SW 240 ° 0 min 0,000 mm 0,0 UV-I 25 W/m² 13,6 °C 16,5 °C 0,0 km/h (0 Bft)
18.08.2018 06:40 16,5 °C 83 % 1016,8 hPa 0,0 mm 0,0 km/h (0 Bft) W-SW 240 ° 0 min 0,000 mm 0,0 UV-I 26 W/m² 13,6 °C 16,5 °C 0,0 km/h (0 Bft)
18.08.2018 06:41 16,5 °C 83 % 1016,8 hPa 0,0 mm 0,0 km/h (0 Bft) W-SW 240 ° 0 min 0,000 mm 0,0 UV-I 26 W/m² 13,6 °C 16,5 °C 0,0 km/h (0 Bft)
18.08.2018 06:42 16,6 °C 83 % 1016,8 hPa 0,0 mm 0,0 km/h (0 Bft) W-SW 240 ° 0 min 0,000 mm 0,0 UV-I 28 W/m² 13,7 °C 16,6 °C 0,0 km/h (0 Bft)
18.08.2018 06:43 16,6 °C 83 % 1016,8 hPa 0,0 mm 0,0 km/h (0 Bft) W-SW 240 ° 0 min 0,000 mm 0,0 UV-I 30 W/m² 13,7 °C 16,6 °C 0,0 km/h (0 Bft)
18.08.2018 06:44 16,5 °C 83 % 1016,8 hPa 0,0 mm 0,0 km/h (0 Bft) W-SW 240 ° 0 min 0,000 mm 0,0 UV-I 30 W/m² 13,6 °C 16,5 °C 0,0 km/h (0 Bft)
18.08.2018 06:45 16,5 °C 83 % 1016,8 hPa 0,0 mm 0,0 km/h (0 Bft) W-SW 240 ° 0 min 0,000 mm 0,0 UV-I 30 W/m² 13,6 °C 16,5 °C 0,0 km/h (0 Bft)
18.08.2018 06:46 16,5 °C 83 % 1016,8 hPa 0,0 mm 0,0 km/h (0 Bft) W-SW 240 ° 0 min 0,000 mm 0,0 UV-I 32 W/m² 13,6 °C 16,5 °C 0,0 km/h (0 Bft)
18.08.2018 06:47 16,4 °C 83 % 1016,8 hPa 0,0 mm 0,0 km/h (0 Bft) W-SW 240 ° 0 min 0,000 mm 0,0 UV-I 32 W/m² 13,5 °C 16,4 °C 0,0 km/h (0 Bft)
18.08.2018 06:48 16,4 °C 83 % 1016,8 hPa 0,0 mm 0,0 km/h (0 Bft) W-SW 240 ° 0 min 0,000 mm 0,0 UV-I 32 W/m² 13,5 °C 16,4 °C 0,0 km/h (0 Bft)
18.08.2018 06:49 16,4 °C 84 % 1016,8 hPa 0,0 mm 0,0 km/h (0 Bft) W-SW 240 ° 0 min 0,000 mm 0,0 UV-I 33 W/m² 13,7 °C 16,4 °C 0,0 km/h (0 Bft)
18.08.2018 06:50 16,3 °C 84 % 1016,8 hPa 0,0 mm 0,0 km/h (0 Bft) W-SW 240 ° 0 min 0,000 mm 0,0 UV-I 33 W/m² 13,6 °C 16,3 °C 0,0 km/h (0 Bft)
18.08.2018 06:51 16,3 °C 84 % 1016,8 hPa 0,0 mm 0,0 km/h (0 Bft) W-SW 240 ° 0 min 0,000 mm 0,0 UV-I 33 W/m² 13,6 °C 16,3 °C 0,0 km/h (0 Bft)
18.08.2018 06:52 16,3 °C 84 % 1016,9 hPa 0,0 mm 0,0 km/h (0 Bft) W-SW 240 ° 0 min 0,000 mm 0,0 UV-I 35 W/m² 13,6 °C 16,3 °C 0,0 km/h (0 Bft)
18.08.2018 06:53 16,3 °C 85 % 1016,9 hPa 0,0 mm 0,0 km/h (0 Bft) W-SW 240 ° 0 min 0,000 mm 0,0 UV-I 35 W/m² 13,8 °C 16,3 °C 0,0 km/h (0 Bft)
18.08.2018 06:54 16,3 °C 84 % 1016,8 hPa 0,0 mm 0,0 km/h (0 Bft) W-SW 240 ° 0 min 0,000 mm 0,0 UV-I 37 W/m² 13,6 °C 16,3 °C 0,0 km/h (0 Bft)
18.08.2018 06:55 16,3 °C 84 % 1016,8 hPa 0,0 mm 0,3 km/h (0 Bft) W-SW 240 ° 0 min 0,000 mm 0,0 UV-I 39 W/m² 13,6 °C 16,3 °C 3,2 km/h (1 Bft)
18.08.2018 06:56 16,4 °C 84 % 1016,8 hPa 0,0 mm 3,0 km/h (1 Bft) W-SW 240 ° 0 min 0,000 mm 0,0 UV-I 40 W/m² 13,7 °C 16,4 °C 4,8 km/h (1 Bft)
18.08.2018 06:57 16,4 °C 84 % 1016,8 hPa 0,0 mm 2,5 km/h (1 Bft) W-SW 240 ° 0 min 0,000 mm 0,0 UV-I 42 W/m² 13,7 °C 16,4 °C 4,8 km/h (1 Bft)
18.08.2018 06:58 16,5 °C 83 % 1016,8 hPa 0,0 mm 1,0 km/h (0 Bft) SW 234 ° 0 min 0,000 mm 0,0 UV-I 44 W/m² 13,6 °C 16,5 °C 3,2 km/h (1 Bft)
18.08.2018 06:59 16,6 °C 83 % 1016,8 hPa 0,0 mm 3,4 km/h (1 Bft) SW 225 ° 0 min 0,000 mm 0,0 UV-I 46 W/m² 13,7 °C 16,6 °C 4,8 km/h (1 Bft)
18.08.2018 07:00 16,6 °C 83 % 1016,8 hPa 0,0 mm 3,6 km/h (1 Bft) SW 222 ° 0 min 0,026 mm 0,0 UV-I 46 W/m² 13,7 °C 16,6 °C 4,8 km/h (1 Bft)
18.08.2018 07:01 16,7 °C 83 % 1016,8 hPa 0,0 mm 4,0 km/h (1 Bft) SW 217 ° 0 min 0,000 mm 0,0 UV-I 47 W/m² 13,8 °C 16,7 °C 6,4 km/h (2 Bft)
18.08.2018 07:02 16,7 °C 83 % 1016,7 hPa 0,0 mm 5,4 km/h (1 Bft) S-SW 192 ° 0 min 0,000 mm 0,0 UV-I 47 W/m² 13,8 °C 16,7 °C 8,0 km/h (2 Bft)
18.08.2018 07:03 16,7 °C 83 % 1016,7 hPa 0,0 mm 5,9 km/h (2 Bft) S 188 ° 0 min 0,000 mm 0,0 UV-I 49 W/m² 13,8 °C 16,7 °C 8,0 km/h (2 Bft)
18.08.2018 07:04 16,8 °C 83 % 1016,8 hPa 0,0 mm 3,9 km/h (1 Bft) S 177 ° 0 min 0,000 mm 0,0 UV-I 51 W/m² 13,9 °C 16,8 °C 6,4 km/h (2 Bft)
18.08.2018 07:05 16,8 °C 83 % 1016,8 hPa 0,0 mm 3,9 km/h (1 Bft) S 180 ° 0 min 0,000 mm 0,0 UV-I 54 W/m² 13,9 °C 16,8 °C 6,4 km/h (2 Bft)
18.08.2018 07:06 16,8 °C 83 % 1016,8 hPa 0,0 mm 2,7 km/h (1 Bft) S 184 ° 0 min 0,000 mm 0,0 UV-I 58 W/m² 13,9 °C 16,8 °C 4,8 km/h (1 Bft)
18.08.2018 07:07 16,8 °C 82 % 1016,8 hPa 0,0 mm 3,2 km/h (1 Bft) S 184 ° 0 min 0,000 mm 0,0 UV-I 63 W/m² 13,7 °C 16,8 °C 4,8 km/h (1 Bft)
18.08.2018 07:08 16,8 °C 82 % 1016,8 hPa 0,0 mm 0,3 km/h (0 Bft) S 184 ° 0 min 0,000 mm 0,0 UV-I 63 W/m² 13,7 °C 16,8 °C 3,2 km/h (1 Bft)
18.08.2018 07:09 16,8 °C 82 % 1016,7 hPa 0,0 mm 1,1 km/h (1 Bft) S-SW 198 ° 0 min 0,000 mm 0,0 UV-I 65 W/m² 13,7 °C 16,8 °C 6,4 km/h (2 Bft)
18.08.2018 07:10 16,8 °C 82 % 1016,8 hPa 0,0 mm 2,4 km/h (1 Bft) S-SW 210 ° 0 min 0,000 mm 0,0 UV-I 67 W/m² 13,7 °C 16,8 °C 4,8 km/h (1 Bft)
18.08.2018 07:11 16,8 °C 82 % 1016,8 hPa 0,0 mm 0,2 km/h (0 Bft) S-SW 209 ° 0 min 0,000 mm 0,0 UV-I 69 W/m² 13,7 °C 16,8 °C 1,6 km/h (1 Bft)
18.08.2018 07:12 16,8 °C 83 % 1016,8 hPa 0,0 mm 1,7 km/h (1 Bft) S-SW 209 ° 0 min 0,000 mm 0,0 UV-I 72 W/m² 13,9 °C 16,8 °C 4,8 km/h (1 Bft)
18.08.2018 07:13 16,8 °C 82 % 1016,8 hPa 0,0 mm 0,1 km/h (0 Bft) S-SW 209 ° 0 min 0,000 mm 0,0 UV-I 74 W/m² 13,7 °C 16,8 °C 1,6 km/h (1 Bft)
18.08.2018 07:14 16,8 °C 82 % 1016,8 hPa 0,0 mm 0,5 km/h (0 Bft) S-SW 209 ° 0 min 0,000 mm 0,0 UV-I 76 W/m² 13,7 °C 16,8 °C 1,6 km/h (1 Bft)
18.08.2018 07:15 16,8 °C 83 % 1016,7 hPa 0,0 mm 2,6 km/h (1 Bft) S-SW 194 ° 0 min 0,000 mm 0,0 UV-I 77 W/m² 13,9 °C 16,8 °C 6,4 km/h (2 Bft)
18.08.2018 07:16 16,9 °C 83 % 1016,7 hPa 0,0 mm 1,8 km/h (1 Bft) S-SW 195 ° 0 min 0,000 mm 0,0 UV-I 79 W/m² 14,0 °C 16,9 °C 4,8 km/h (1 Bft)
18.08.2018 07:17 16,9 °C 82 % 1016,7 hPa 0,0 mm 0,2 km/h (0 Bft) S-SW 195 ° 0 min 0,000 mm 0,0 UV-I 81 W/m² 13,8 °C 16,9 °C 1,6 km/h (1 Bft)
18.08.2018 07:18 16,9 °C 82 % 1016,7 hPa 0,0 mm 1,0 km/h (0 Bft) S-SW 195 ° 0 min 0,000 mm 0,0 UV-I 81 W/m² 13,8 °C 16,9 °C 1,6 km/h (1 Bft)
18.08.2018 07:19 16,9 °C 82 % 1016,7 hPa 0,0 mm 0,4 km/h (0 Bft) S-SW 195 ° 0 min 0,000 mm 0,0 UV-I 81 W/m² 13,8 °C 16,9 °C 1,6 km/h (1 Bft)
18.08.2018 07:20 16,9 °C 82 % 1016,8 hPa 0,0 mm 2,2 km/h (1 Bft) S 184 ° 0 min 0,000 mm 0,0 UV-I 81 W/m² 13,8 °C 16,9 °C 4,8 km/h (1 Bft)
18.08.2018 07:21 17,1 °C 82 % 1016,7 hPa 0,0 mm 0,3 km/h (0 Bft) S 182 ° 0 min 0,000 mm 0,0 UV-I 81 W/m² 14,0 °C 17,1 °C 1,6 km/h (1 Bft)
18.08.2018 07:22 17,1 °C 82 % 1016,8 hPa 0,0 mm 0,5 km/h (0 Bft) S 182 ° 0 min 0,000 mm 0,0 UV-I 83 W/m² 14,0 °C 17,1 °C 1,6 km/h (1 Bft)
18.08.2018 07:23 17,1 °C 82 % 1016,8 hPa 0,0 mm 1,5 km/h (1 Bft) S 182 ° 0 min 0,000 mm 0,0 UV-I 83 W/m² 14,0 °C 17,1 °C 3,2 km/h (1 Bft)
18.08.2018 07:24 17,1 °C 81 % 1016,7 hPa 0,0 mm 0,6 km/h (0 Bft) S 182 ° 0 min 0,000 mm 0,0 UV-I 84 W/m² 13,8 °C 17,1 °C 3,2 km/h (1 Bft)
18.08.2018 07:25 17,2 °C 81 % 1016,8 hPa 0,0 mm 0,0 km/h (0 Bft) S 182 ° 0 min 0,000 mm 0,0 UV-I 84 W/m² 13,9 °C 17,2 °C 0,0 km/h (0 Bft)
18.08.2018 07:26 17,1 °C 82 % 1016,7 hPa 0,0 mm 1,7 km/h (1 Bft) S 182 ° 0 min 0,000 mm 0,0 UV-I 86 W/m² 14,0 °C 17,1 °C 3,2 km/h (1 Bft)
18.08.2018 07:27 17,2 °C 81 % 1016,8 hPa 0,0 mm 0,0 km/h (0 Bft) S 182 ° 0 min 0,000 mm 0,0 UV-I 86 W/m² 13,9 °C 17,2 °C 0,0 km/h (0 Bft)
18.08.2018 07:28 17,2 °C 81 % 1016,8 hPa 0,0 mm 0,0 km/h (0 Bft) S 182 ° 0 min 0,000 mm 0,0 UV-I 86 W/m² 13,9 °C 17,2 °C 0,0 km/h (0 Bft)
18.08.2018 07:29 17,2 °C 81 % 1016,8 hPa 0,0 mm 1,5 km/h (1 Bft) S-SW 201 ° 0 min 0,000 mm 0,0 UV-I 88 W/m² 13,9 °C 17,2 °C 3,2 km/h (1 Bft)
18.08.2018 07:30 17,3 °C 82 % 1016,8 hPa 0,0 mm 0,5 km/h (0 Bft) S-SW 202 ° 0 min 0,000 mm 0,0 UV-I 88 W/m² 14,2 °C 17,3 °C 1,6 km/h (1 Bft)
18.08.2018 07:31 17,3 °C 82 % 1016,8 hPa 0,0 mm 0,0 km/h (0 Bft) S-SW 202 ° 0 min 0,000 mm 0,0 UV-I 86 W/m² 14,2 °C 17,3 °C 0,0 km/h (0 Bft)
18.08.2018 07:32 17,3 °C 81 % 1016,8 hPa 0,0 mm 2,7 km/h (1 Bft) S-SW 196 ° 0 min 0,000 mm 0,0 UV-I 86 W/m² 14,0 °C 17,3 °C 6,4 km/h (2 Bft)
18.08.2018 07:33 17,3 °C 81 % 1016,8 hPa 0,0 mm 0,3 km/h (0 Bft) S-SW 196 ° 0 min 0,000 mm 0,0 UV-I 84 W/m² 14,0 °C 17,3 °C 1,6 km/h (1 Bft)
18.08.2018 07:34 17,3 °C 81 % 1016,8 hPa 0,0 mm 0,0 km/h (0 Bft) S-SW 196 ° 0 min 0,000 mm 0,0 UV-I 83 W/m² 14,0 °C 17,3 °C 0,0 km/h (0 Bft)
18.08.2018 07:35 17,3 °C 81 % 1016,9 hPa 0,0 mm 0,0 km/h (0 Bft) S-SW 196 ° 0 min 0,000 mm 0,0 UV-I 81 W/m² 14,0 °C 17,3 °C 0,0 km/h (0 Bft)
18.08.2018 07:36 17,3 °C 81 % 1016,9 hPa 0,0 mm 0,3 km/h (0 Bft) S-SW 196 ° 0 min 0,000 mm 0,0 UV-I 84 W/m² 14,0 °C 17,3 °C 1,6 km/h (1 Bft)
18.08.2018 07:37 17,3 °C 81 % 1016,8 hPa 0,0 mm 1,8 km/h (1 Bft) S-SW 196 ° 0 min 0,000 mm 0,0 UV-I 84 W/m² 14,0 °C 17,3 °C 3,2 km/h (1 Bft)
18.08.2018 07:38 17,3 °C 81 % 1016,9 hPa 0,0 mm 2,5 km/h (1 Bft) S-SW 196 ° 0 min 0,000 mm 0,0 UV-I 79 W/m² 14,0 °C 17,3 °C 3,2 km/h (1 Bft)
18.08.2018 07:39 17,3 °C 81 % 1016,9 hPa 0,0 mm 1,6 km/h (1 Bft) S-SW 196 ° 0 min 0,000 mm 0,0 UV-I 95 W/m² 14,0 °C 17,3 °C 3,2 km/h (1 Bft)
18.08.2018 07:40 17,3 °C 81 % 1016,8 hPa 0,0 mm 0,0 km/h (0 Bft) S-SW 196 ° 0 min 0,000 mm 0,0 UV-I 81 W/m² 14,0 °C 17,3 °C 0,0 km/h (0 Bft)
18.08.2018 07:41 17,3 °C 81 % 1016,9 hPa 0,0 mm 0,0 km/h (0 Bft) S-SW 196 ° 0 min 0,000 mm 0,0 UV-I 76 W/m² 14,0 °C 17,3 °C 0,0 km/h (0 Bft)
18.08.2018 07:42 17,3 °C 81 % 1016,9 hPa 0,0 mm 0,0 km/h (0 Bft) S-SW 196 ° 0 min 0,000 mm 0,0 UV-I 67 W/m² 14,0 °C 17,3 °C 0,0 km/h (0 Bft)
18.08.2018 07:43 17,3 °C 81 % 1016,9 hPa 0,0 mm 0,0 km/h (0 Bft) S-SW 196 ° 0 min 0,000 mm 0,5 UV-I 67 W/m² 14,0 °C 17,3 °C 0,0 km/h (0 Bft)
18.08.2018 07:44 17,3 °C 81 % 1016,9 hPa 0,0 mm 0,0 km/h (0 Bft) S-SW 196 ° 0 min 0,000 mm 0,5 UV-I 67 W/m² 14,0 °C 17,3 °C 0,0 km/h (0 Bft)
18.08.2018 07:45 17,3 °C 82 % 1016,8 hPa 0,0 mm 0,0 km/h (0 Bft) S-SW 196 ° 0 min 0,000 mm 0,5 UV-I 65 W/m² 14,2 °C 17,3 °C 0,0 km/h (0 Bft)
18.08.2018 07:46 17,2 °C 82 % 1016,9 hPa 0,0 mm 0,0 km/h (0 Bft) S-SW 196 ° 0 min 0,000 mm 0,5 UV-I 65 W/m² 14,1 °C 17,2 °C 0,0 km/h (0 Bft)
18.08.2018 07:47 17,2 °C 81 % 1016,9 hPa 0,0 mm 0,0 km/h (0 Bft) S-SW 196 ° 0 min 0,000 mm 0,5 UV-I 65 W/m² 13,9 °C 17,2 °C 0,0 km/h (0 Bft)
18.08.2018 07:48 17,2 °C 82 % 1016,9 hPa 0,0 mm 0,0 km/h (0 Bft) S-SW 196 ° 0 min 0,000 mm 0,5 UV-I 67 W/m² 14,1 °C 17,2 °C 0,0 km/h (0 Bft)
18.08.2018 07:49 17,2 °C 82 % 1016,9 hPa 0,0 mm 0,0 km/h (0 Bft) S-SW 196 ° 0 min 0,000 mm 0,5 UV-I 69 W/m² 14,1 °C 17,2 °C 0,0 km/h (0 Bft)
18.08.2018 07:50 17,1 °C 82 % 1016,9 hPa 0,0 mm 0,0 km/h (0 Bft) S-SW 196 ° 0 min 0,000 mm 0,5 UV-I 69 W/m² 14,0 °C 17,1 °C 0,0 km/h (0 Bft)
18.08.2018 07:51 17,1 °C 83 % 1016,9 hPa 0,0 mm 0,0 km/h (0 Bft) S-SW 196 ° 0 min 0,000 mm 0,5 UV-I 70 W/m² 14,2 °C 17,1 °C 0,0 km/h (0 Bft)
18.08.2018 07:52 17,0 °C 82 % 1016,9 hPa 0,0 mm 0,0 km/h (0 Bft) S-SW 196 ° 0 min 0,000 mm 0,5 UV-I 70 W/m² 13,9 °C 17,0 °C 0,0 km/h (0 Bft)
18.08.2018 07:53 17,0 °C 82 % 1016,9 hPa 0,0 mm 0,0 km/h (0 Bft) S-SW 196 ° 0 min 0,000 mm 0,5 UV-I 70 W/m² 13,9 °C 17,0 °C 0,0 km/h (0 Bft)
18.08.2018 07:54 17,1 °C 83 % 1016,9 hPa 0,0 mm 0,0 km/h (0 Bft) S-SW 196 ° 0 min 0,000 mm 0,5 UV-I 70 W/m² 14,2 °C 17,1 °C 0,0 km/h (0 Bft)
18.08.2018 07:55 17,1 °C 83 % 1016,9 hPa 0,0 mm 0,0 km/h (0 Bft) S-SW 196 ° 0 min 0,000 mm 0,6 UV-I 70 W/m² 14,2 °C 17,1 °C 0,0 km/h (0 Bft)
18.08.2018 07:56 17,1 °C 83 % 1017,0 hPa 0,0 mm 0,0 km/h (0 Bft) S-SW 196 ° 0 min 0,000 mm 0,6 UV-I 70 W/m² 14,2 °C 17,1 °C 0,0 km/h (0 Bft)
18.08.2018 07:57 17,1 °C 84 % 1016,9 hPa 0,0 mm 0,0 km/h (0 Bft) S-SW 196 ° 0 min 0,000 mm 0,6 UV-I 72 W/m² 14,4 °C 17,1 °C 0,0 km/h (0 Bft)
18.08.2018 07:58 17,1 °C 83 % 1016,9 hPa 0,0 mm 0,0 km/h (0 Bft) S-SW 196 ° 0 min 0,000 mm 0,6 UV-I 74 W/m² 14,2 °C 17,1 °C 0,0 km/h (0 Bft)
18.08.2018 07:59 17,1 °C 83 % 1016,9 hPa 0,0 mm 0,0 km/h (0 Bft) S-SW 196 ° 0 min 0,000 mm 0,6 UV-I 77 W/m² 14,2 °C 17,1 °C 0,0 km/h (0 Bft)
18.08.2018 08:00 17,1 °C 82 % 1016,9 hPa 0,0 mm 0,0 km/h (0 Bft) S-SW 196 ° 0 min 0,000 mm 0,6 UV-I 81 W/m² 14,0 °C 17,1 °C 0,0 km/h (0 Bft)
18.08.2018 08:01 17,1 °C 83 % 1016,9 hPa 0,0 mm 0,0 km/h (0 Bft) S-SW 196 ° 0 min 0,051 mm 0,6 UV-I 83 W/m² 14,2 °C 17,1 °C 0,0 km/h (0 Bft)
18.08.2018 08:02 17,1 °C 83 % 1016,9 hPa 0,0 mm 0,0 km/h (0 Bft) S-SW 196 ° 0 min 0,000 mm 0,6 UV-I 84 W/m² 14,2 °C 17,1 °C 0,0 km/h (0 Bft)
18.08.2018 08:03 17,1 °C 82 % 1016,9 hPa 0,0 mm 0,0 km/h (0 Bft) S-SW 196 ° 0 min 0,000 mm 0,6 UV-I 86 W/m² 14,0 °C 17,1 °C 0,0 km/h (0 Bft)
18.08.2018 08:04 17,1 °C 82 % 1016,9 hPa 0,0 mm 0,0 km/h (0 Bft) S-SW 196 ° 0 min 0,000 mm 0,7 UV-I 86 W/m² 14,0 °C 17,1 °C 0,0 km/h (0 Bft)
18.08.2018 08:05 17,2 °C 82 % 1016,9 hPa 0,0 mm 0,0 km/h (0 Bft) S-SW 196 ° 0 min 0,000 mm 0,7 UV-I 91 W/m² 14,1 °C 17,2 °C 0,0 km/h (0 Bft)
18.08.2018 08:06 17,2 °C 82 % 1016,9 hPa 0,0 mm 0,0 km/h (0 Bft) S-SW 196 ° 0 min 0,000 mm 0,7 UV-I 93 W/m² 14,1 °C 17,2 °C 0,0 km/h (0 Bft)
18.08.2018 08:07 17,2 °C 82 % 1016,9 hPa 0,0 mm 0,0 km/h (0 Bft) S-SW 196 ° 0 min 0,000 mm 0,7 UV-I 95 W/m² 14,1 °C 17,2 °C 0,0 km/h (0 Bft)
18.08.2018 08:08 17,2 °C 82 % 1016,9 hPa 0,0 mm 0,2 km/h (0 Bft) S-SW 196 ° 0 min 0,000 mm 0,7 UV-I 95 W/m² 14,1 °C 17,2 °C 1,6 km/h (1 Bft)
18.08.2018 08:09 17,2 °C 83 % 1016,9 hPa 0,0 mm 0,1 km/h (0 Bft) S-SW 196 ° 0 min 0,000 mm 0,7 UV-I 97 W/m² 14,3 °C 17,2 °C 1,6 km/h (1 Bft)
18.08.2018 08:10 17,2 °C 83 % 1016,9 hPa 0,0 mm 0,0 km/h (0 Bft) S-SW 196 ° 0 min 0,000 mm 0,7 UV-I 97 W/m² 14,3 °C 17,2 °C 0,0 km/h (0 Bft)
18.08.2018 08:11 17,2 °C 84 % 1016,9 hPa 0,0 mm 0,0 km/h (0 Bft) S-SW 196 ° 0 min 0,000 mm 0,8 UV-I 100 W/m² 14,5 °C 17,2 °C 0,0 km/h (0 Bft)
18.08.2018 08:12 17,3 °C 84 % 1016,9 hPa 0,0 mm 0,0 km/h (0 Bft) S-SW 196 ° 0 min 0,000 mm 0,8 UV-I 104 W/m² 14,6 °C 17,3 °C 0,0 km/h (0 Bft)
18.08.2018 08:13 17,2 °C 83 % 1016,9 hPa 0,0 mm 0,0 km/h (0 Bft) S-SW 196 ° 0 min 0,000 mm 0,8 UV-I 114 W/m² 14,3 °C 17,2 °C 0,0 km/h (0 Bft)
18.08.2018 08:14 17,2 °C 83 % 1016,9 hPa 0,0 mm 0,0 km/h (0 Bft) S-SW 196 ° 0 min 0,000 mm 0,8 UV-I 116 W/m² 14,3 °C 17,2 °C 0,0 km/h (0 Bft)
18.08.2018 08:15 17,2 °C 84 % 1016,9 hPa 0,0 mm 0,0 km/h (0 Bft) S-SW 196 ° 0 min 0,000 mm 0,8 UV-I 109 W/m² 14,5 °C 17,2 °C 0,0 km/h (0 Bft)
18.08.2018 08:16 17,3 °C 83 % 1016,9 hPa 0,0 mm 0,0 km/h (0 Bft) S-SW 196 ° 0 min 0,000 mm 0,8 UV-I 109 W/m² 14,4 °C 17,3 °C 0,0 km/h (0 Bft)
18.08.2018 08:17 17,3 °C 82 % 1016,9 hPa 0,0 mm 0,0 km/h (0 Bft) S-SW 196 ° 0 min 0,000 mm 0,9 UV-I 120 W/m² 14,2 °C 17,3 °C 0,0 km/h (0 Bft)
18.08.2018 08:18 17,3 °C 83 % 1016,9 hPa 0,0 mm 0,0 km/h (0 Bft) S-SW 196 ° 0 min 0,000 mm 0,9 UV-I 114 W/m² 14,4 °C 17,3 °C 0,0 km/h (0 Bft)
18.08.2018 08:19 17,3 °C 83 % 1016,9 hPa 0,0 mm 0,1 km/h (0 Bft) S-SW 196 ° 0 min 0,000 mm 0,9 UV-I 118 W/m² 14,4 °C 17,3 °C 1,6 km/h (1 Bft)
18.08.2018 08:20 17,3 °C 82 % 1016,8 hPa 0,0 mm 0,1 km/h (0 Bft) S-SW 196 ° 0 min 0,000 mm 0,9 UV-I 125 W/m² 14,2 °C 17,3 °C 1,6 km/h (1 Bft)
18.08.2018 08:21 17,3 °C 81 % 1016,9 hPa 0,0 mm 1,9 km/h (1 Bft) S-SW 196 ° 0 min 0,000 mm 0,9 UV-I 125 W/m² 14,0 °C 17,3 °C 4,8 km/h (1 Bft)
18.08.2018 08:22 17,4 °C 81 % 1016,9 hPa 0,0 mm 1,0 km/h (0 Bft) S-SW 196 ° 0 min 0,000 mm 1,0 UV-I 225 W/m² 14,1 °C 17,4 °C 1,6 km/h (1 Bft)
18.08.2018 08:23 17,4 °C 81 % 1016,9 hPa 0,0 mm 1,6 km/h (1 Bft) S-SW 196 ° 0 min 0,000 mm 1,0 UV-I 257 W/m² 14,1 °C 17,4 °C 3,2 km/h (1 Bft)
18.08.2018 08:24 17,6 °C 81 % 1016,9 hPa 0,0 mm 0,3 km/h (0 Bft) S-SW 196 ° 0 min 0,000 mm 1,0 UV-I 209 W/m² 14,3 °C 17,6 °C 1,6 km/h (1 Bft)
18.08.2018 08:25 17,6 °C 81 % 1016,9 hPa 0,0 mm 1,1 km/h (1 Bft) S-SW 196 ° 0 min 0,000 mm 1,0 UV-I 183 W/m² 14,3 °C 17,6 °C 4,8 km/h (1 Bft)
18.08.2018 08:26 17,7 °C 81 % 1016,9 hPa 0,0 mm 0,5 km/h (0 Bft) S-SW 196 ° 0 min 0,000 mm 1,1 UV-I 260 W/m² 14,4 °C 17,7 °C 3,2 km/h (1 Bft)
18.08.2018 08:27 17,8 °C 82 % 1016,8 hPa 0,0 mm 0,1 km/h (0 Bft) S-SW 196 ° 0 min 0,000 mm 1,1 UV-I 290 W/m² 14,7 °C 17,8 °C 1,6 km/h (1 Bft)
18.08.2018 08:28 17,9 °C 81 % 1016,8 hPa 0,0 mm 3,4 km/h (1 Bft) W 268 ° 0 min 0,000 mm 1,1 UV-I 218 W/m² 14,6 °C 17,9 °C 4,8 km/h (1 Bft)
18.08.2018 08:29 17,9 °C 81 % 1016,9 hPa 0,0 mm 3,5 km/h (1 Bft) W 268 ° 0 min 0,000 mm 1,1 UV-I 183 W/m² 14,6 °C 17,9 °C 4,8 km/h (1 Bft)
18.08.2018 08:30 17,9 °C 80 % 1016,9 hPa 0,0 mm 3,0 km/h (1 Bft) W 268 ° 0 min 0,000 mm 1,1 UV-I 214 W/m² 14,4 °C 17,9 °C 4,8 km/h (1 Bft)
18.08.2018 08:31 18,0 °C 80 % 1016,9 hPa 0,0 mm 2,3 km/h (1 Bft) W 268 ° 0 min 0,000 mm 1,1 UV-I 209 W/m² 14,5 °C 18,0 °C 4,8 km/h (1 Bft)
18.08.2018 08:32 18,1 °C 81 % 1016,9 hPa 0,0 mm 2,0 km/h (1 Bft) W 268 ° 0 min 0,000 mm 1,1 UV-I 186 W/m² 14,8 °C 18,1 °C 4,8 km/h (1 Bft)
18.08.2018 08:33 18,1 °C 81 % 1016,9 hPa 0,0 mm 2,1 km/h (1 Bft) W 268 ° 0 min 0,000 mm 1,1 UV-I 246 W/m² 14,8 °C 18,1 °C 3,2 km/h (1 Bft)
18.08.2018 08:34 18,1 °C 80 % 1016,9 hPa 0,0 mm 3,5 km/h (1 Bft) W 268 ° 0 min 0,000 mm 1,2 UV-I 188 W/m² 14,6 °C 18,1 °C 4,8 km/h (1 Bft)
18.08.2018 08:35 18,1 °C 81 % 1016,9 hPa 0,0 mm 3,0 km/h (1 Bft) W 268 ° 0 min 0,000 mm 1,1 UV-I 151 W/m² 14,8 °C 18,1 °C 4,8 km/h (1 Bft)
18.08.2018 08:36 18,2 °C 81 % 1017,0 hPa 0,0 mm 2,1 km/h (1 Bft) W 268 ° 0 min 0,000 mm 1,1 UV-I 155 W/m² 14,9 °C 18,2 °C 3,2 km/h (1 Bft)
18.08.2018 08:37 18,2 °C 81 % 1016,9 hPa 0,0 mm 2,4 km/h (1 Bft) W 268 ° 0 min 0,000 mm 1,1 UV-I 162 W/m² 14,9 °C 18,2 °C 4,8 km/h (1 Bft)
18.08.2018 08:38 18,1 °C 80 % 1017,0 hPa 0,0 mm 3,1 km/h (1 Bft) W 268 ° 0 min 0,000 mm 1,1 UV-I 148 W/m² 14,6 °C 18,1 °C 4,8 km/h (1 Bft)
18.08.2018 08:39 18,1 °C 80 % 1017,0 hPa 0,0 mm 2,6 km/h (1 Bft) W 268 ° 0 min 0,000 mm 1,1 UV-I 144 W/m² 14,6 °C 18,1 °C 3,2 km/h (1 Bft)
18.08.2018 08:40 18,1 °C 81 % 1017,0 hPa 0,0 mm 1,4 km/h (1 Bft) W 268 ° 0 min 0,000 mm 1,1 UV-I 130 W/m² 14,8 °C 18,1 °C 1,6 km/h (1 Bft)
18.08.2018 08:41 18,1 °C 82 % 1016,9 hPa 0,0 mm 1,4 km/h (1 Bft) W 268 ° 0 min 0,000 mm 1,1 UV-I 127 W/m² 15,0 °C 18,1 °C 3,2 km/h (1 Bft)
18.08.2018 08:42 18,1 °C 81 % 1017,0 hPa 0,0 mm 0,9 km/h (0 Bft) W 268 ° 0 min 0,000 mm 1,1 UV-I 127 W/m² 14,8 °C 18,1 °C 3,2 km/h (1 Bft)
18.08.2018 08:43 18,1 °C 80 % 1016,9 hPa 0,0 mm 0,0 km/h (0 Bft) W 268 ° 0 min 0,000 mm 1,1 UV-I 127 W/m² 14,6 °C 18,1 °C 0,0 km/h (0 Bft)
18.08.2018 08:44 17,9 °C 80 % 1017,0 hPa 0,0 mm 0,0 km/h (0 Bft) W 268 ° 0 min 0,000 mm 1,1 UV-I 128 W/m² 14,4 °C 17,9 °C 0,0 km/h (0 Bft)
18.08.2018 08:45 17,9 °C 80 % 1016,9 hPa 0,0 mm 0,0 km/h (0 Bft) W 268 ° 0 min 0,000 mm 1,1 UV-I 132 W/m² 14,4 °C 17,9 °C 0,0 km/h (0 Bft)
18.08.2018 08:46 17,9 °C 80 % 1016,9 hPa 0,0 mm 0,0 km/h (0 Bft) W 268 ° 0 min 0,000 mm 1,2 UV-I 146 W/m² 14,4 °C 17,9 °C 0,0 km/h (0 Bft)
18.08.2018 08:47 17,9 °C 80 % 1016,9 hPa 0,0 mm 0,0 km/h (0 Bft) W 268 ° 0 min 0,000 mm 1,3 UV-I 169 W/m² 14,4 °C 17,9 °C 0,0 km/h (0 Bft)
18.08.2018 08:48 17,9 °C 81 % 1016,9 hPa 0,0 mm 0,0 km/h (0 Bft) W 268 ° 0 min 0,000 mm 1,3 UV-I 211 W/m² 14,6 °C 17,9 °C 0,0 km/h (0 Bft)
18.08.2018 08:49 17,9 °C 81 % 1016,9 hPa 0,0 mm 0,0 km/h (0 Bft) W 268 ° 0 min 0,000 mm 1,3 UV-I 165 W/m² 14,6 °C 17,9 °C 0,0 km/h (0 Bft)
18.08.2018 08:50 18,0 °C 80 % 1016,9 hPa 0,0 mm 0,0 km/h (0 Bft) W 268 ° 0 min 0,000 mm 1,3 UV-I 171 W/m² 14,5 °C 18,0 °C 0,0 km/h (0 Bft)
18.08.2018 08:51 18,1 °C 80 % 1016,9 hPa 0,0 mm 0,0 km/h (0 Bft) W 268 ° 0 min 0,000 mm 1,3 UV-I 172 W/m² 14,6 °C 18,1 °C 0,0 km/h (0 Bft)
18.08.2018 08:52 18,1 °C 81 % 1017,0 hPa 0,0 mm 0,0 km/h (0 Bft) W 268 ° 0 min 0,000 mm 1,4 UV-I 265 W/m² 14,8 °C 18,1 °C 0,0 km/h (0 Bft)
18.08.2018 08:53 18,2 °C 80 % 1017,0 hPa 0,0 mm 0,0 km/h (0 Bft) W 268 ° 0 min 0,000 mm 1,5 UV-I 332 W/m² 14,7 °C 18,2 °C 0,0 km/h (0 Bft)
18.08.2018 08:54 18,3 °C 81 % 1017,0 hPa 0,0 mm 0,0 km/h (0 Bft) W 268 ° 0 min 0,000 mm 1,6 UV-I 338 W/m² 15,0 °C 18,3 °C 0,0 km/h (0 Bft)
18.08.2018 08:55 18,4 °C 82 % 1017,0 hPa 0,0 mm 0,0 km/h (0 Bft) W 268 ° 0 min 0,000 mm 1,5 UV-I 311 W/m² 15,3 °C 18,4 °C 0,0 km/h (0 Bft)
18.08.2018 08:56 18,4 °C 80 % 1016,9 hPa 0,0 mm 0,0 km/h (0 Bft) W 268 ° 0 min 0,000 mm 1,6 UV-I 311 W/m² 14,9 °C 18,4 °C 0,0 km/h (0 Bft)
18.08.2018 08:57 18,6 °C 81 % 1016,9 hPa 0,0 mm 0,0 km/h (0 Bft) W 268 ° 0 min 0,000 mm 1,6 UV-I 330 W/m² 15,3 °C 18,6 °C 0,0 km/h (0 Bft)
18.08.2018 08:58 18,6 °C 79 % 1017,0 hPa 0,0 mm 1,3 km/h (1 Bft) W 273 ° 0 min 0,000 mm 1,7 UV-I 345 W/m² 14,9 °C 18,6 °C 3,2 km/h (1 Bft)
18.08.2018 08:59 18,7 °C 79 % 1016,9 hPa 0,0 mm 1,0 km/h (0 Bft) W 273 ° 0 min 0,000 mm 1,7 UV-I 353 W/m² 15,0 °C 18,7 °C 1,6 km/h (1 Bft)
18.08.2018 09:00 18,7 °C 78 % 1017,0 hPa 0,0 mm 1,9 km/h (1 Bft) W-NW 285 ° 0 min 0,101 mm 1,7 UV-I 381 W/m² 14,8 °C 18,7 °C 3,2 km/h (1 Bft)
18.08.2018 09:01 18,7 °C 78 % 1017,0 hPa 0,0 mm 2,4 km/h (1 Bft) W-NW 285 ° 0 min 0,000 mm 1,8 UV-I 396 W/m² 14,8 °C 18,7 °C 4,8 km/h (1 Bft)
18.08.2018 09:02 18,8 °C 78 % 1017,0 hPa 0,0 mm 1,7 km/h (1 Bft) W-NW 285 ° 0 min 0,000 mm 1,9 UV-I 399 W/m² 14,9 °C 18,8 °C 3,2 km/h (1 Bft)
18.08.2018 09:03 18,8 °C 77 % 1017,0 hPa 0,0 mm 2,5 km/h (1 Bft) NW 321 ° 0 min 0,000 mm 1,9 UV-I 392 W/m² 14,7 °C 18,8 °C 4,8 km/h (1 Bft)
18.08.2018 09:04 18,8 °C 77 % 1017,0 hPa 0,0 mm 1,9 km/h (1 Bft) N-NW 330 ° 0 min 0,000 mm 1,9 UV-I 418 W/m² 14,7 °C 18,8 °C 3,2 km/h (1 Bft)
18.08.2018 09:05 18,9 °C 78 % 1017,0 hPa 0,0 mm 0,5 km/h (0 Bft) N-NW 330 ° 0 min 0,000 mm 2,0 UV-I 427 W/m² 15,0 °C 18,9 °C 1,6 km/h (1 Bft)
18.08.2018 09:06 18,9 °C 78 % 1017,0 hPa 0,0 mm 1,8 km/h (1 Bft) W 276 ° 0 min 0,000 mm 2,0 UV-I 427 W/m² 15,0 °C 18,9 °C 3,2 km/h (1 Bft)
18.08.2018 09:07 19,0 °C 78 % 1017,1 hPa 0,0 mm 2,5 km/h (1 Bft) W 276 ° 0 min 0,000 mm 2,1 UV-I 436 W/m² 15,1 °C 19,0 °C 4,8 km/h (1 Bft)
18.08.2018 09:08 19,1 °C 78 % 1017,1 hPa 0,0 mm 0,9 km/h (0 Bft) W 276 ° 0 min 0,000 mm 2,1 UV-I 450 W/m² 15,2 °C 19,1 °C 1,6 km/h (1 Bft)
18.08.2018 09:09 19,2 °C 78 % 1017,0 hPa 0,0 mm 1,6 km/h (1 Bft) W 277 ° 0 min 0,000 mm 2,1 UV-I 441 W/m² 15,3 °C 19,2 °C 3,2 km/h (1 Bft)
18.08.2018 09:10 19,3 °C 78 % 1017,0 hPa 0,0 mm 0,1 km/h (0 Bft) W 277 ° 0 min 0,000 mm 2,1 UV-I 417 W/m² 15,4 °C 19,3 °C 1,6 km/h (1 Bft)
18.08.2018 09:11 19,2 °C 77 % 1017,0 hPa 0,0 mm 1,5 km/h (1 Bft) W 277 ° 0 min 0,000 mm 2,1 UV-I 415 W/m² 15,1 °C 19,2 °C 3,2 km/h (1 Bft)
18.08.2018 09:12 19,2 °C 77 % 1017,0 hPa 0,0 mm 4,0 km/h (1 Bft) N-NW 335 ° 0 min 0,000 mm 2,2 UV-I 427 W/m² 15,1 °C 19,2 °C 4,8 km/h (1 Bft)
18.08.2018 09:13 19,3 °C 78 % 1017,0 hPa 0,0 mm 6,2 km/h (2 Bft) N-NW 338 ° 0 min 0,000 mm 2,2 UV-I 446 W/m² 15,4 °C 19,3 °C 8,0 km/h (2 Bft)
18.08.2018 09:14 19,3 °C 77 % 1017,0 hPa 0,0 mm 5,1 km/h (1 Bft) N 355 ° 0 min 0,000 mm 2,2 UV-I 443 W/m² 15,2 °C 19,3 °C 8,0 km/h (2 Bft)
18.08.2018 09:15 19,3 °C 78 % 1017,0 hPa 0,0 mm 5,0 km/h (1 Bft) NW 307 ° 0 min 0,000 mm 2,2 UV-I 464 W/m² 15,4 °C 19,3 °C 6,4 km/h (2 Bft)
18.08.2018 09:16 19,3 °C 78 % 1017,0 hPa 0,0 mm 4,1 km/h (1 Bft) NW 317 ° 0 min 0,000 mm 2,3 UV-I 469 W/m² 15,4 °C 19,3 °C 8,0 km/h (2 Bft)
18.08.2018 09:17 19,4 °C 78 % 1017,0 hPa 0,0 mm 2,3 km/h (1 Bft) NW 317 ° 0 min 0,000 mm 2,3 UV-I 475 W/m² 15,5 °C 19,4 °C 4,8 km/h (1 Bft)
18.08.2018 09:18 19,3 °C 76 % 1017,0 hPa 0,0 mm 4,5 km/h (1 Bft) N-NW 347 ° 0 min 0,000 mm 2,3 UV-I 478 W/m² 15,0 °C 19,3 °C 8,0 km/h (2 Bft)
18.08.2018 09:19 19,4 °C 78 % 1017,1 hPa 0,0 mm 2,7 km/h (1 Bft) N-NW 347 ° 0 min 0,000 mm 2,4 UV-I 480 W/m² 15,5 °C 19,4 °C 4,8 km/h (1 Bft)
18.08.2018 09:20 19,3 °C 76 % 1017,1 hPa 0,0 mm 3,1 km/h (1 Bft) N-NW 331 ° 0 min 0,000 mm 2,4 UV-I 475 W/m² 15,0 °C 19,3 °C 4,8 km/h (1 Bft)
18.08.2018 09:21 19,3 °C 77 % 1017,1 hPa 0,0 mm 4,2 km/h (1 Bft) N 5 ° 0 min 0,000 mm 2,4 UV-I 480 W/m² 15,2 °C 19,3 °C 6,4 km/h (2 Bft)
18.08.2018 09:22 19,3 °C 77 % 1017,1 hPa 0,0 mm 5,2 km/h (1 Bft) N-NO 17 ° 0 min 0,000 mm 2,4 UV-I 487 W/m² 15,2 °C 19,3 °C 6,4 km/h (2 Bft)
18.08.2018 09:23 19,3 °C 77 % 1017,1 hPa 0,0 mm 4,7 km/h (1 Bft) N-NO 19 ° 0 min 0,000 mm 2,4 UV-I 494 W/m² 15,2 °C 19,3 °C 6,4 km/h (2 Bft)
18.08.2018 09:24 19,4 °C 77 % 1017,1 hPa 0,0 mm 3,2 km/h (1 Bft) NO 34 ° 0 min 0,000 mm 2,4 UV-I 492 W/m² 15,3 °C 19,4 °C 6,4 km/h (2 Bft)
18.08.2018 09:25 19,5 °C 77 % 1017,1 hPa 0,0 mm 3,3 km/h (1 Bft) N-NO 15 ° 0 min 0,000 mm 2,5 UV-I 490 W/m² 15,4 °C 19,5 °C 6,4 km/h (2 Bft)
18.08.2018 09:26 19,5 °C 76 % 1017,1 hPa 0,0 mm 1,9 km/h (1 Bft) N-NO 15 ° 0 min 0,000 mm 2,5 UV-I 483 W/m² 15,2 °C 19,5 °C 4,8 km/h (1 Bft)
18.08.2018 09:27 19,4 °C 75 % 1017,2 hPa 0,0 mm 2,6 km/h (1 Bft) N-NO 23 ° 0 min 0,000 mm 2,5 UV-I 490 W/m² 14,8 °C 19,4 °C 4,8 km/h (1 Bft)
18.08.2018 09:28 19,5 °C 76 % 1017,1 hPa 0,0 mm 4,6 km/h (1 Bft) N 360 ° 0 min 0,000 mm 2,5 UV-I 489 W/m² 15,2 °C 19,5 °C 6,4 km/h (2 Bft)
18.08.2018 09:29 19,5 °C 77 % 1017,2 hPa 0,0 mm 7,3 km/h (2 Bft) N-NO 26 ° 0 min 0,000 mm 2,5 UV-I 476 W/m² 15,4 °C 19,5 °C 8,0 km/h (2 Bft)
18.08.2018 09:30 19,4 °C 76 % 1017,2 hPa 0,0 mm 5,1 km/h (1 Bft) NO 44 ° 0 min 0,000 mm 2,5 UV-I 494 W/m² 15,1 °C 19,4 °C 8,0 km/h (2 Bft)
18.08.2018 09:31 19,4 °C 76 % 1017,2 hPa 0,0 mm 6,0 km/h (2 Bft) N-NO 15 ° 0 min 0,000 mm 2,5 UV-I 501 W/m² 15,1 °C 19,4 °C 6,4 km/h (2 Bft)
18.08.2018 09:32 19,4 °C 76 % 1017,2 hPa 0,0 mm 1,0 km/h (0 Bft) N-NO 15 ° 0 min 0,000 mm 2,5 UV-I 506 W/m² 15,1 °C 19,4 °C 1,6 km/h (1 Bft)
18.08.2018 09:33 19,5 °C 77 % 1017,1 hPa 0,0 mm 1,1 km/h (1 Bft) N-NO 15 ° 0 min 0,000 mm 2,6 UV-I 512 W/m² 15,4 °C 19,5 °C 1,6 km/h (1 Bft)
18.08.2018 09:34 19,6 °C 77 % 1017,2 hPa 0,0 mm 3,0 km/h (1 Bft) N-NW 337 ° 0 min 0,000 mm 2,6 UV-I 513 W/m² 15,5 °C 19,6 °C 6,4 km/h (2 Bft)
18.08.2018 09:35 19,7 °C 77 % 1017,1 hPa 0,0 mm 4,6 km/h (1 Bft) N 355 ° 0 min 0,000 mm 2,5 UV-I 424 W/m² 15,5 °C 19,7 °C 6,4 km/h (2 Bft)
18.08.2018 09:36 19,8 °C 78 % 1017,2 hPa 0,0 mm 4,0 km/h (1 Bft) N-NW 333 ° 0 min 0,000 mm 2,5 UV-I 489 W/m² 15,8 °C 19,8 °C 6,4 km/h (2 Bft)
18.08.2018 09:37 19,8 °C 78 % 1017,2 hPa 0,0 mm 6,0 km/h (2 Bft) NW 311 ° 0 min 0,000 mm 2,6 UV-I 517 W/m² 15,8 °C 19,8 °C 8,0 km/h (2 Bft)
18.08.2018 09:38 19,8 °C 76 % 1017,2 hPa 0,0 mm 4,1 km/h (1 Bft) NW 306 ° 0 min 0,000 mm 2,7 UV-I 517 W/m² 15,4 °C 19,8 °C 4,8 km/h (1 Bft)
18.08.2018 09:39 19,7 °C 76 % 1017,2 hPa 0,0 mm 3,8 km/h (1 Bft) NW 310 ° 0 min 0,000 mm 2,7 UV-I 512 W/m² 15,3 °C 19,7 °C 4,8 km/h (1 Bft)
18.08.2018 09:40 19,6 °C 75 % 1017,1 hPa 0,0 mm 2,8 km/h (1 Bft) W-NW 302 ° 0 min 0,000 mm 2,7 UV-I 513 W/m² 15,0 °C 19,6 °C 4,8 km/h (1 Bft)
18.08.2018 09:41 19,7 °C 79 % 1017,2 hPa 0,0 mm 1,0 km/h (0 Bft) W-NW 302 ° 0 min 0,000 mm 2,8 UV-I 522 W/m² 16,0 °C 19,7 °C 3,2 km/h (1 Bft)
18.08.2018 09:42 19,8 °C 79 % 1017,1 hPa 0,0 mm 2,8 km/h (1 Bft) N 360 ° 0 min 0,000 mm 2,8 UV-I 519 W/m² 16,0 °C 19,8 °C 4,8 km/h (1 Bft)
18.08.2018 09:43 19,8 °C 78 % 1017,0 hPa 0,0 mm 2,5 km/h (1 Bft) N 360 ° 0 min 0,000 mm 2,8 UV-I 517 W/m² 15,8 °C 19,8 °C 4,8 km/h (1 Bft)
18.08.2018 09:44 20,0 °C 78 % 1017,0 hPa 0,0 mm 3,4 km/h (1 Bft) NW 317 ° 0 min 0,000 mm 2,8 UV-I 529 W/m² 16,0 °C 20,0 °C 4,8 km/h (1 Bft)
18.08.2018 09:45 20,0 °C 76 % 1017,1 hPa 0,0 mm 3,8 km/h (1 Bft) NW 319 ° 0 min 0,000 mm 2,9 UV-I 534 W/m² 15,6 °C 20,0 °C 4,8 km/h (1 Bft)
18.08.2018 09:46 19,9 °C 75 % 1017,1 hPa 0,0 mm 3,0 km/h (1 Bft) NW 325 ° 0 min 0,000 mm 3,0 UV-I 540 W/m² 15,3 °C 19,9 °C 4,8 km/h (1 Bft)
18.08.2018 09:47 19,8 °C 75 % 1017,1 hPa 0,0 mm 1,3 km/h (1 Bft) N-NW 329 ° 0 min 0,000 mm 3,0 UV-I 548 W/m² 15,2 °C 19,8 °C 3,2 km/h (1 Bft)
18.08.2018 09:48 19,8 °C 77 % 1017,1 hPa 0,0 mm 2,9 km/h (1 Bft) N-NW 334 ° 0 min 0,000 mm 3,0 UV-I 555 W/m² 15,6 °C 19,8 °C 6,4 km/h (2 Bft)
18.08.2018 09:49 19,8 °C 76 % 1017,1 hPa 0,0 mm 5,7 km/h (1 Bft) N-NO 13 ° 0 min 0,000 mm 3,1 UV-I 561 W/m² 15,4 °C 19,8 °C 9,7 km/h (2 Bft)
18.08.2018 09:50 19,8 °C 75 % 1017,1 hPa 0,0 mm 3,4 km/h (1 Bft) N 11 ° 0 min 0,000 mm 3,1 UV-I 564 W/m² 15,2 °C 19,8 °C 4,8 km/h (1 Bft)
18.08.2018 09:51 19,8 °C 75 % 1017,1 hPa 0,0 mm 0,0 km/h (0 Bft) N 11 ° 0 min 0,000 mm 3,1 UV-I 570 W/m² 15,2 °C 19,8 °C 0,0 km/h (0 Bft)
18.08.2018 09:52 19,7 °C 76 % 1017,1 hPa 0,0 mm 2,8 km/h (1 Bft) N 5 ° 0 min 0,000 mm 3,2 UV-I 573 W/m² 15,3 °C 19,7 °C 6,4 km/h (2 Bft)
18.08.2018 09:53 19,8 °C 77 % 1017,1 hPa 0,0 mm 4,0 km/h (1 Bft) N 5 ° 0 min 0,000 mm 3,2 UV-I 578 W/m² 15,6 °C 19,8 °C 6,4 km/h (2 Bft)
18.08.2018 09:54 19,9 °C 76 % 1017,1 hPa 0,0 mm 3,6 km/h (1 Bft) N-NO 13 ° 0 min 0,000 mm 3,2 UV-I 580 W/m² 15,5 °C 19,9 °C 4,8 km/h (1 Bft)
18.08.2018 09:55 19,9 °C 75 % 1017,1 hPa 0,0 mm 2,2 km/h (1 Bft) N-NO 13 ° 0 min 0,000 mm 3,1 UV-I 547 W/m² 15,3 °C 19,9 °C 4,8 km/h (1 Bft)
18.08.2018 09:56 19,9 °C 75 % 1017,1 hPa 0,0 mm 1,5 km/h (1 Bft) N-NO 16 ° 0 min 0,000 mm 3,1 UV-I 557 W/m² 15,3 °C 19,9 °C 3,2 km/h (1 Bft)
18.08.2018 09:57 19,8 °C 77 % 1017,1 hPa 0,0 mm 4,5 km/h (1 Bft) O 82 ° 0 min 0,000 mm 3,2 UV-I 571 W/m² 15,6 °C 19,8 °C 6,4 km/h (2 Bft)
18.08.2018 09:58 19,7 °C 78 % 1017,1 hPa 0,0 mm 2,0 km/h (1 Bft) O 82 ° 0 min 0,000 mm 3,1 UV-I 533 W/m² 15,8 °C 19,7 °C 3,2 km/h (1 Bft)
18.08.2018 09:59 19,6 °C 75 % 1017,1 hPa 0,0 mm 0,1 km/h (0 Bft) O 82 ° 0 min 0,000 mm 3,2 UV-I 526 W/m² 15,0 °C 19,6 °C 1,6 km/h (1 Bft)
18.08.2018 10:00 19,6 °C 77 % 1017,1 hPa 0,0 mm 1,7 km/h (1 Bft) O 81 ° 0 min 0,000 mm 3,1 UV-I 559 W/m² 15,5 °C 19,6 °C 3,2 km/h (1 Bft)
18.08.2018 10:01 19,6 °C 77 % 1017,1 hPa 0,0 mm 3,9 km/h (1 Bft) NW 320 ° 0 min 0,280 mm 3,1 UV-I 504 W/m² 15,5 °C 19,6 °C 4,8 km/h (1 Bft)
18.08.2018 10:02 19,7 °C 77 % 1017,1 hPa 0,0 mm 2,6 km/h (1 Bft) NW 320 ° 0 min 0,000 mm 3,1 UV-I 573 W/m² 15,5 °C 19,7 °C 4,8 km/h (1 Bft)
18.08.2018 10:03 19,8 °C 77 % 1017,1 hPa 0,0 mm 1,8 km/h (1 Bft) NW 320 ° 0 min 0,000 mm 3,3 UV-I 582 W/m² 15,6 °C 19,8 °C 3,2 km/h (1 Bft)
18.08.2018 10:04 19,8 °C 77 % 1017,1 hPa 0,0 mm 0,9 km/h (0 Bft) NW 317 ° 0 min 0,000 mm 3,1 UV-I 497 W/m² 15,6 °C 19,8 °C 3,2 km/h (1 Bft)
18.08.2018 10:05 19,8 °C 75 % 1017,1 hPa 0,0 mm 1,7 km/h (1 Bft) NW 317 ° 0 min 0,000 mm 3,1 UV-I 487 W/m² 15,2 °C 19,8 °C 4,8 km/h (1 Bft)
18.08.2018 10:06 19,8 °C 76 % 1017,2 hPa 0,0 mm 3,0 km/h (1 Bft) NW 319 ° 0 min 0,000 mm 3,3 UV-I 487 W/m² 15,4 °C 19,8 °C 4,8 km/h (1 Bft)
18.08.2018 10:07 19,8 °C 77 % 1017,2 hPa 0,0 mm 3,3 km/h (1 Bft) N-NO 24 ° 0 min 0,000 mm 3,4 UV-I 487 W/m² 15,6 °C 19,8 °C 6,4 km/h (2 Bft)
18.08.2018 10:08 19,9 °C 76 % 1017,2 hPa 0,0 mm 5,6 km/h (1 Bft) N 355 ° 0 min 0,000 mm 3,3 UV-I 541 W/m² 15,5 °C 19,9 °C 11,3 km/h (2 Bft)
18.08.2018 10:09 20,0 °C 76 % 1017,2 hPa 0,0 mm 5,1 km/h (1 Bft) N-NW 340 ° 0 min 0,000 mm 3,2 UV-I 536 W/m² 15,6 °C 20,0 °C 8,0 km/h (2 Bft)
18.08.2018 10:10 20,1 °C 76 % 1017,2 hPa 0,0 mm 4,3 km/h (1 Bft) NW 319 ° 0 min 0,000 mm 3,3 UV-I 552 W/m² 15,7 °C 20,1 °C 6,4 km/h (2 Bft)
18.08.2018 10:11 20,0 °C 75 % 1017,2 hPa 0,0 mm 4,0 km/h (1 Bft) NW 304 ° 0 min 0,000 mm 3,2 UV-I 538 W/m² 15,4 °C 20,0 °C 6,4 km/h (2 Bft)
18.08.2018 10:12 20,0 °C 75 % 1017,2 hPa 0,0 mm 3,4 km/h (1 Bft) N-NW 345 ° 0 min 0,000 mm 3,2 UV-I 527 W/m² 15,4 °C 20,0 °C 6,4 km/h (2 Bft)
18.08.2018 10:13 20,1 °C 76 % 1017,2 hPa 0,0 mm 4,7 km/h (1 Bft) NW 309 ° 0 min 0,000 mm 3,3 UV-I 526 W/m² 15,7 °C 20,1 °C 6,4 km/h (2 Bft)
18.08.2018 10:14 20,1 °C 75 % 1017,3 hPa 0,0 mm 2,1 km/h (1 Bft) N-NW 338 ° 0 min 0,000 mm 3,4 UV-I 559 W/m² 15,5 °C 20,1 °C 4,8 km/h (1 Bft)
18.08.2018 10:15 20,0 °C 74 % 1017,3 hPa 0,0 mm 0,0 km/h (0 Bft) N-NW 338 ° 0 min 0,000 mm 3,3 UV-I 513 W/m² 15,2 °C 20,0 °C 0,0 km/h (0 Bft)
18.08.2018 10:16 20,1 °C 76 % 1017,3 hPa 0,0 mm 0,0 km/h (0 Bft) N-NW 338 ° 0 min 0,000 mm 3,3 UV-I 512 W/m² 15,7 °C 20,1 °C 0,0 km/h (0 Bft)
18.08.2018 10:17 20,1 °C 77 % 1017,3 hPa 0,0 mm 0,0 km/h (0 Bft) N-NW 338 ° 0 min 0,000 mm 2,4 UV-I 545 W/m² 15,9 °C 20,1 °C 0,0 km/h (0 Bft)
18.08.2018 10:18 20,1 °C 75 % 1017,3 hPa 0,0 mm 0,0 km/h (0 Bft) N-NW 338 ° 0 min 0,000 mm 3,4 UV-I 545 W/m² 15,5 °C 20,1 °C 0,0 km/h (0 Bft)
18.08.2018 10:19 20,0 °C 77 % 1017,3 hPa 0,0 mm 2,2 km/h (1 Bft) N-NW 338 ° 0 min 0,000 mm 3,5 UV-I 559 W/m² 15,8 °C 20,0 °C 3,2 km/h (1 Bft)
18.08.2018 10:20 20,0 °C 75 % 1017,3 hPa 0,0 mm 0,8 km/h (0 Bft) N-NW 334 ° 0 min 0,000 mm 3,4 UV-I 503 W/m² 15,4 °C 20,0 °C 3,2 km/h (1 Bft)
18.08.2018 10:21 20,1 °C 76 % 1017,3 hPa 0,0 mm 3,5 km/h (1 Bft) N-NW 336 ° 0 min 0,000 mm 3,2 UV-I 436 W/m² 15,7 °C 20,1 °C 6,4 km/h (2 Bft)
18.08.2018 10:22 20,1 °C 76 % 1017,3 hPa 0,0 mm 2,3 km/h (1 Bft) N-NW 336 ° 0 min 0,000 mm 3,4 UV-I 492 W/m² 15,7 °C 20,1 °C 3,2 km/h (1 Bft)
18.08.2018 10:23 20,1 °C 75 % 1017,3 hPa 0,0 mm 2,5 km/h (1 Bft) N-NW 336 ° 0 min 0,000 mm 3,4 UV-I 506 W/m² 15,5 °C 20,1 °C 3,2 km/h (1 Bft)
18.08.2018 10:24 20,2 °C 75 % 1017,3 hPa 0,0 mm 0,8 km/h (0 Bft) N-NW 336 ° 0 min 0,000 mm 3,5 UV-I 533 W/m² 15,6 °C 20,2 °C 1,6 km/h (1 Bft)
18.08.2018 10:25 20,2 °C 75 % 1017,3 hPa 0,0 mm 4,2 km/h (1 Bft) NW 307 ° 0 min 0,000 mm 3,4 UV-I 559 W/m² 15,6 °C 20,2 °C 8,0 km/h (2 Bft)
18.08.2018 10:26 20,2 °C 76 % 1017,3 hPa 0,0 mm 5,0 km/h (1 Bft) NW 317 ° 0 min 0,000 mm 3,5 UV-I 533 W/m² 15,8 °C 20,2 °C 8,0 km/h (2 Bft)
18.08.2018 10:27 20,2 °C 75 % 1017,3 hPa 0,0 mm 2,3 km/h (1 Bft) NW 317 ° 0 min 0,000 mm 3,6 UV-I 580 W/m² 15,6 °C 20,2 °C 4,8 km/h (1 Bft)
18.08.2018 10:28 20,2 °C 76 % 1017,3 hPa 0,0 mm 4,9 km/h (1 Bft) N-NW 336 ° 0 min 0,000 mm 3,5 UV-I 555 W/m² 15,8 °C 20,2 °C 6,4 km/h (2 Bft)
18.08.2018 10:29 20,3 °C 77 % 1017,2 hPa 0,0 mm 5,7 km/h (1 Bft) N-NW 342 ° 0 min 0,000 mm 3,4 UV-I 487 W/m² 16,1 °C 20,3 °C 8,0 km/h (2 Bft)
18.08.2018 10:30 20,3 °C 75 % 1017,3 hPa 0,0 mm 3,8 km/h (1 Bft) NW 304 ° 0 min 0,000 mm 3,4 UV-I 466 W/m² 15,7 °C 20,3 °C 6,4 km/h (2 Bft)
18.08.2018 10:31 20,2 °C 74 % 1017,2 hPa 0,0 mm 0,6 km/h (0 Bft) NW 304 ° 0 min 0,000 mm 3,1 UV-I 352 W/m² 15,4 °C 20,2 °C 3,2 km/h (1 Bft)
18.08.2018 10:32 20,2 °C 75 % 1017,2 hPa 0,0 mm 5,9 km/h (2 Bft) O-NO 69 ° 0 min 0,000 mm 3,2 UV-I 418 W/m² 15,6 °C 20,2 °C 9,7 km/h (2 Bft)
18.08.2018 10:33 20,1 °C 75 % 1017,2 hPa 0,0 mm 5,0 km/h (1 Bft) N-NO 30 ° 0 min 0,000 mm 3,5 UV-I 418 W/m² 15,5 °C 20,1 °C 8,0 km/h (2 Bft)
18.08.2018 10:34 20,1 °C 76 % 1017,2 hPa 0,0 mm 6,2 km/h (2 Bft) N-NO 17 ° 0 min 0,000 mm 3,2 UV-I 418 W/m² 15,7 °C 20,1 °C 8,0 km/h (2 Bft)
18.08.2018 10:35 20,1 °C 75 % 1017,2 hPa 0,0 mm 6,0 km/h (2 Bft) N-NO 20 ° 0 min 0,000 mm 3,5 UV-I 418 W/m² 15,5 °C 20,1 °C 8,0 km/h (2 Bft)
18.08.2018 10:36 20,2 °C 76 % 1017,2 hPa 0,0 mm 2,9 km/h (1 Bft) N-NO 20 ° 0 min 0,000 mm 3,4 UV-I 466 W/m² 15,8 °C 20,2 °C 4,8 km/h (1 Bft)
18.08.2018 10:37 20,3 °C 77 % 1017,3 hPa 0,0 mm 1,7 km/h (1 Bft) NW 312 ° 0 min 0,000 mm 3,6 UV-I 573 W/m² 16,1 °C 20,3 °C 4,8 km/h (1 Bft)
18.08.2018 10:38 20,4 °C 76 % 1017,2 hPa 0,0 mm 4,7 km/h (1 Bft) NW 314 ° 1 min 0,000 mm 3,8 UV-I 615 W/m² 16,0 °C 20,4 °C 6,4 km/h (2 Bft)
18.08.2018 10:39 20,4 °C 76 % 1017,3 hPa 0,0 mm 5,3 km/h (1 Bft) N-NW 336 ° 0 min 0,000 mm 3,8 UV-I 599 W/m² 16,0 °C 20,4 °C 9,7 km/h (2 Bft)
18.08.2018 10:40 20,4 °C 76 % 1017,3 hPa 0,0 mm 6,2 km/h (2 Bft) N 355 ° 0 min 0,000 mm 3,9 UV-I 592 W/m² 16,0 °C 20,4 °C 9,7 km/h (2 Bft)
18.08.2018 10:41 20,6 °C 76 % 1017,2 hPa 0,0 mm 4,7 km/h (1 Bft) N-NW 334 ° 0 min 0,000 mm 3,9 UV-I 591 W/m² 16,2 °C 20,6 °C 6,4 km/h (2 Bft)
18.08.2018 10:42 20,7 °C 76 % 1017,2 hPa 0,0 mm 4,9 km/h (1 Bft) NO 36 ° 1 min 0,000 mm 3,9 UV-I 608 W/m² 16,3 °C 20,7 °C 8,0 km/h (2 Bft)
18.08.2018 10:43 20,7 °C 76 % 1017,2 hPa 0,0 mm 4,6 km/h (1 Bft) N-NO 24 ° 0 min 0,000 mm 3,9 UV-I 598 W/m² 16,3 °C 20,7 °C 8,0 km/h (2 Bft)
18.08.2018 10:44 20,8 °C 78 % 1017,3 hPa 0,0 mm 4,6 km/h (1 Bft) NW 323 ° 0 min 0,000 mm 3,9 UV-I 594 W/m² 16,8 °C 20,8 °C 6,4 km/h (2 Bft)
18.08.2018 10:45 20,8 °C 75 % 1017,3 hPa 0,0 mm 5,4 km/h (1 Bft) NW 315 ° 0 min 0,000 mm 3,9 UV-I 599 W/m² 16,2 °C 20,8 °C 9,7 km/h (2 Bft)
18.08.2018 10:46 20,7 °C 75 % 1017,2 hPa 0,0 mm 5,1 km/h (1 Bft) NW 311 ° 0 min 0,000 mm 4,0 UV-I 587 W/m² 16,1 °C 20,7 °C 9,7 km/h (2 Bft)
18.08.2018 10:47 20,6 °C 75 % 1017,3 hPa 0,0 mm 6,0 km/h (2 Bft) NW 320 ° 1 min 0,000 mm 4,0 UV-I 610 W/m² 16,0 °C 20,6 °C 9,7 km/h (2 Bft)
18.08.2018 10:48 20,6 °C 76 % 1017,3 hPa 0,0 mm 5,5 km/h (1 Bft) N-NO 30 ° 1 min 0,000 mm 4,0 UV-I 619 W/m² 16,2 °C 20,6 °C 11,3 km/h (2 Bft)
18.08.2018 10:49 20,6 °C 75 % 1017,3 hPa 0,0 mm 5,1 km/h (1 Bft) O-NO 61 ° 1 min 0,000 mm 4,0 UV-I 619 W/m² 16,0 °C 20,6 °C 8,0 km/h (2 Bft)
18.08.2018 10:50 20,5 °C 73 % 1017,4 hPa 0,0 mm 5,0 km/h (1 Bft) N-NO 32 ° 1 min 0,000 mm 4,0 UV-I 619 W/m² 15,5 °C 20,5 °C 8,0 km/h (2 Bft)
18.08.2018 10:51 20,4 °C 73 % 1017,4 hPa 0,0 mm 0,9 km/h (0 Bft) N-NO 29 ° 1 min 0,000 mm 4,1 UV-I 631 W/m² 15,4 °C 20,4 °C 1,6 km/h (1 Bft)
18.08.2018 10:52 20,4 °C 75 % 1017,4 hPa 0,0 mm 2,2 km/h (1 Bft) N-NO 29 ° 1 min 0,000 mm 4,1 UV-I 638 W/m² 15,8 °C 20,4 °C 3,2 km/h (1 Bft)
18.08.2018 10:53 20,4 °C 76 % 1017,4 hPa 0,0 mm 3,0 km/h (1 Bft) N 5 ° 1 min 0,000 mm 4,1 UV-I 642 W/m² 16,0 °C 20,4 °C 6,4 km/h (2 Bft)
18.08.2018 10:54 20,6 °C 75 % 1017,3 hPa 0,0 mm 3,9 km/h (1 Bft) NO 49 ° 1 min 0,000 mm 4,2 UV-I 643 W/m² 16,0 °C 20,6 °C 6,4 km/h (2 Bft)
18.08.2018 10:55 20,6 °C 74 % 1017,3 hPa 0,0 mm 0,9 km/h (0 Bft) NO 49 ° 1 min 0,000 mm 4,2 UV-I 638 W/m² 15,8 °C 20,6 °C 3,2 km/h (1 Bft)
18.08.2018 10:56 20,4 °C 74 % 1017,3 hPa 0,0 mm 2,0 km/h (1 Bft) O-NO 74 ° 1 min 0,000 mm 4,2 UV-I 601 W/m² 15,6 °C 20,4 °C 3,2 km/h (1 Bft)
18.08.2018 10:57 20,4 °C 74 % 1017,3 hPa 0,0 mm 0,9 km/h (0 Bft) N-NW 338 ° 1 min 0,000 mm 4,1 UV-I 612 W/m² 15,6 °C 20,4 °C 3,2 km/h (1 Bft)
18.08.2018 10:58 20,3 °C 74 % 1017,3 hPa 0,0 mm 2,9 km/h (1 Bft) N-NW 333 ° 1 min 0,000 mm 4,1 UV-I 605 W/m² 15,5 °C 20,3 °C 4,8 km/h (1 Bft)
18.08.2018 10:59 20,4 °C 75 % 1017,2 hPa 0,0 mm 1,1 km/h (1 Bft) N-NW 334 ° 1 min 0,000 mm 4,1 UV-I 605 W/m² 15,8 °C 20,4 °C 3,2 km/h (1 Bft)
18.08.2018 11:00 20,5 °C 75 % 1017,2 hPa 0,0 mm 4,0 km/h (1 Bft) N-NW 331 ° 1 min 0,330 mm 4,2 UV-I 615 W/m² 15,9 °C 20,5 °C 4,8 km/h (1 Bft)
18.08.2018 11:01 20,7 °C 76 % 1017,2 hPa 0,0 mm 4,2 km/h (1 Bft) N-NW 336 ° 1 min 0,000 mm 4,2 UV-I 640 W/m² 16,3 °C 20,7 °C 6,4 km/h (2 Bft)
18.08.2018 11:02 20,8 °C 74 % 1017,3 hPa 0,0 mm 4,2 km/h (1 Bft) NO 53 ° 1 min 0,000 mm 4,2 UV-I 617 W/m² 16,0 °C 20,8 °C 6,4 km/h (2 Bft)
18.08.2018 11:03 20,8 °C 75 % 1017,2 hPa 0,0 mm 3,3 km/h (1 Bft) O 87 ° 1 min 0,000 mm 4,2 UV-I 628 W/m² 16,2 °C 20,8 °C 4,8 km/h (1 Bft)
18.08.2018 11:04 20,7 °C 73 % 1017,2 hPa 0,0 mm 1,9 km/h (1 Bft) O 87 ° 1 min 0,000 mm 4,3 UV-I 622 W/m² 15,7 °C 20,7 °C 3,2 km/h (1 Bft)
18.08.2018 11:05 20,6 °C 73 % 1017,2 hPa 0,0 mm 1,9 km/h (1 Bft) O 87 ° 1 min 0,000 mm 4,3 UV-I 640 W/m² 15,6 °C 20,6 °C 3,2 km/h (1 Bft)
18.08.2018 11:06 20,5 °C 73 % 1017,2 hPa 0,0 mm 0,6 km/h (0 Bft) O 87 ° 1 min 0,000 mm 4,3 UV-I 636 W/m² 15,5 °C 20,5 °C 3,2 km/h (1 Bft)
18.08.2018 11:07 20,4 °C 73 % 1017,2 hPa 0,0 mm 0,0 km/h (0 Bft) O 87 ° 1 min 0,000 mm 4,5 UV-I 668 W/m² 15,4 °C 20,4 °C 0,0 km/h (0 Bft)
18.08.2018 11:08 20,4 °C 74 % 1017,2 hPa 0,0 mm 1,4 km/h (1 Bft) N-NW 338 ° 1 min 0,000 mm 4,6 UV-I 684 W/m² 15,6 °C 20,4 °C 4,8 km/h (1 Bft)
18.08.2018 11:09 20,6 °C 76 % 1017,2 hPa 0,0 mm 5,0 km/h (1 Bft) N-NO 16 ° 1 min 0,000 mm 4,6 UV-I 684 W/m² 16,2 °C 20,6 °C 11,3 km/h (2 Bft)
18.08.2018 11:10 20,7 °C 74 % 1017,2 hPa 0,0 mm 4,4 km/h (1 Bft) N 5 ° 1 min 0,000 mm 4,6 UV-I 682 W/m² 15,9 °C 20,7 °C 6,4 km/h (2 Bft)
18.08.2018 11:11 20,8 °C 72 % 1017,2 hPa 0,0 mm 3,3 km/h (1 Bft) N-NO 24 ° 1 min 0,000 mm 4,5 UV-I 675 W/m² 15,6 °C 20,8 °C 8,0 km/h (2 Bft)
18.08.2018 11:12 20,8 °C 72 % 1017,2 hPa 0,0 mm 6,4 km/h (2 Bft) N 5 ° 1 min 0,000 mm 4,5 UV-I 647 W/m² 15,6 °C 20,8 °C 11,3 km/h (2 Bft)
18.08.2018 11:13 20,8 °C 72 % 1017,2 hPa 0,0 mm 3,6 km/h (1 Bft) NO 51 ° 1 min 0,000 mm 4,4 UV-I 638 W/m² 15,6 °C 20,8 °C 4,8 km/h (1 Bft)
18.08.2018 11:14 20,8 °C 72 % 1017,2 hPa 0,0 mm 2,4 km/h (1 Bft) O-NO 59 ° 1 min 0,000 mm 4,4 UV-I 645 W/m² 15,6 °C 20,8 °C 4,8 km/h (1 Bft)
18.08.2018 11:15 20,8 °C 73 % 1017,2 hPa 0,0 mm 0,5 km/h (0 Bft) O-NO 59 ° 1 min 0,000 mm 4,4 UV-I 640 W/m² 15,8 °C 20,8 °C 1,6 km/h (1 Bft)
18.08.2018 11:16 20,7 °C 73 % 1017,2 hPa 0,0 mm 3,8 km/h (1 Bft) O 98 ° 1 min 0,000 mm 3,8 UV-I 640 W/m² 15,7 °C 20,7 °C 6,4 km/h (2 Bft)
18.08.2018 11:17 20,7 °C 71 % 1017,2 hPa 0,0 mm 4,3 km/h (1 Bft) O 98 ° 1 min 0,000 mm 4,6 UV-I 640 W/m² 15,2 °C 20,7 °C 6,4 km/h (2 Bft)
18.08.2018 11:18 20,5 °C 72 % 1017,2 hPa 0,0 mm 1,2 km/h (1 Bft) O 98 ° 1 min 0,000 mm 4,6 UV-I 677 W/m² 15,3 °C 20,5 °C 3,2 km/h (1 Bft)
18.08.2018 11:19 20,4 °C 73 % 1017,2 hPa 0,0 mm 1,4 km/h (1 Bft) O 98 ° 1 min 0,000 mm 4,6 UV-I 675 W/m² 15,4 °C 20,4 °C 3,2 km/h (1 Bft)
18.08.2018 11:20 20,5 °C 72 % 1017,2 hPa 0,0 mm 1,3 km/h (1 Bft) O 98 ° 1 min 0,000 mm 4,6 UV-I 671 W/m² 15,3 °C 20,5 °C 3,2 km/h (1 Bft)
18.08.2018 11:21 20,6 °C 73 % 1017,2 hPa 0,0 mm 0,5 km/h (0 Bft) O-SO 121 ° 1 min 0,000 mm 4,7 UV-I 691 W/m² 15,6 °C 20,6 °C 3,2 km/h (1 Bft)
18.08.2018 11:22 20,6 °C 73 % 1017,2 hPa 0,0 mm 0,3 km/h (0 Bft) O-SO 121 ° 1 min 0,000 mm 4,7 UV-I 691 W/m² 15,6 °C 20,6 °C 1,6 km/h (1 Bft)
18.08.2018 11:23 20,6 °C 73 % 1017,2 hPa 0,0 mm 0,0 km/h (0 Bft) O-SO 121 ° 1 min 0,000 mm 4,7 UV-I 682 W/m² 15,6 °C 20,6 °C 0,0 km/h (0 Bft)
18.08.2018 11:24 20,8 °C 73 % 1017,2 hPa 0,0 mm 0,6 km/h (0 Bft) O 83 ° 1 min 0,000 mm 4,7 UV-I 707 W/m² 15,8 °C 20,8 °C 3,2 km/h (1 Bft)
18.08.2018 11:25 20,9 °C 76 % 1017,2 hPa 0,0 mm 2,3 km/h (1 Bft) NO 50 ° 1 min 0,000 mm 4,8 UV-I 712 W/m² 16,5 °C 20,9 °C 4,8 km/h (1 Bft)
18.08.2018 11:26 21,1 °C 76 % 1017,2 hPa 0,0 mm 2,7 km/h (1 Bft) N 5 ° 1 min 0,000 mm 4,9 UV-I 715 W/m² 16,7 °C 21,1 °C 4,8 km/h (1 Bft)
18.08.2018 11:27 21,3 °C 72 % 1017,2 hPa 0,0 mm 4,4 km/h (1 Bft) N-NW 343 ° 1 min 0,000 mm 4,8 UV-I 689 W/m² 16,0 °C 21,3 °C 6,4 km/h (2 Bft)
18.08.2018 11:28 21,3 °C 70 % 1017,2 hPa 0,0 mm 4,8 km/h (1 Bft) N 5 ° 1 min 0,000 mm 4,8 UV-I 691 W/m² 15,6 °C 21,3 °C 6,4 km/h (2 Bft)
18.08.2018 11:29 21,3 °C 70 % 1017,2 hPa 0,0 mm 3,6 km/h (1 Bft) N-NW 340 ° 1 min 0,000 mm 4,9 UV-I 707 W/m² 15,6 °C 21,3 °C 4,8 km/h (1 Bft)
18.08.2018 11:30 21,4 °C 71 % 1017,2 hPa 0,0 mm 3,7 km/h (1 Bft) N 9 ° 1 min 0,000 mm 4,9 UV-I 714 W/m² 15,9 °C 21,4 °C 6,4 km/h (2 Bft)
18.08.2018 11:31 21,4 °C 71 % 1017,2 hPa 0,0 mm 1,5 km/h (1 Bft) N 5 ° 1 min 0,000 mm 4,9 UV-I 698 W/m² 15,9 °C 21,4 °C 3,2 km/h (1 Bft)
18.08.2018 11:32 21,4 °C 72 % 1017,2 hPa 0,0 mm 1,1 km/h (1 Bft) N 5 ° 1 min 0,000 mm 4,9 UV-I 698 W/m² 16,1 °C 21,4 °C 3,2 km/h (1 Bft)
18.08.2018 11:33 21,4 °C 71 % 1017,2 hPa 0,0 mm 2,7 km/h (1 Bft) N 355 ° 1 min 0,000 mm 4,9 UV-I 703 W/m² 15,9 °C 21,4 °C 4,8 km/h (1 Bft)
18.08.2018 11:34 21,4 °C 71 % 1017,2 hPa 0,0 mm 2,7 km/h (1 Bft) NW 323 ° 1 min 0,000 mm 4,9 UV-I 703 W/m² 15,9 °C 21,4 °C 4,8 km/h (1 Bft)
18.08.2018 11:35 21,4 °C 71 % 1017,2 hPa 0,0 mm 1,1 km/h (1 Bft) NW 323 ° 1 min 0,000 mm 4,9 UV-I 703 W/m² 15,9 °C 21,4 °C 3,2 km/h (1 Bft)
18.08.2018 11:36 21,4 °C 72 % 1017,2 hPa 0,0 mm 2,1 km/h (1 Bft) S-SW 210 ° 1 min 0,000 mm 4,9 UV-I 689 W/m² 16,1 °C 21,4 °C 3,2 km/h (1 Bft)
18.08.2018 11:37 21,3 °C 70 % 1017,2 hPa 0,0 mm 2,8 km/h (1 Bft) S-SW 193 ° 1 min 0,000 mm 4,8 UV-I 679 W/m² 15,6 °C 21,3 °C 4,8 km/h (1 Bft)
18.08.2018 11:38 21,2 °C 71 % 1017,1 hPa 0,0 mm 1,9 km/h (1 Bft) S-SW 193 ° 1 min 0,000 mm 4,8 UV-I 664 W/m² 15,7 °C 21,2 °C 4,8 km/h (1 Bft)
18.08.2018 11:39 21,2 °C 72 % 1017,1 hPa 0,0 mm 3,3 km/h (1 Bft) S-SW 193 ° 1 min 0,000 mm 4,8 UV-I 652 W/m² 15,9 °C 21,2 °C 4,8 km/h (1 Bft)
18.08.2018 11:40 21,2 °C 70 % 1017,1 hPa 0,0 mm 1,9 km/h (1 Bft) S-SW 193 ° 1 min 0,000 mm 4,7 UV-I 649 W/m² 15,5 °C 21,2 °C 3,2 km/h (1 Bft)
18.08.2018 11:41 21,2 °C 71 % 1017,1 hPa 0,0 mm 0,5 km/h (0 Bft) S-SW 193 ° 1 min 0,000 mm 4,7 UV-I 668 W/m² 15,7 °C 21,2 °C 3,2 km/h (1 Bft)
18.08.2018 11:42 21,2 °C 71 % 1017,1 hPa 0,0 mm 0,0 km/h (0 Bft) S-SW 193 ° 1 min 0,000 mm 4,9 UV-I 679 W/m² 15,7 °C 21,2 °C 0,0 km/h (0 Bft)
18.08.2018 11:43 21,3 °C 72 % 1017,1 hPa 0,0 mm 1,1 km/h (1 Bft) NW 304 ° 1 min 0,000 mm 4,9 UV-I 675 W/m² 16,0 °C 21,3 °C 3,2 km/h (1 Bft)
18.08.2018 11:44 21,4 °C 73 % 1017,2 hPa 0,0 mm 3,9 km/h (1 Bft) NW 304 ° 1 min 0,000 mm 4,7 UV-I 603 W/m² 16,4 °C 21,4 °C 6,4 km/h (2 Bft)
18.08.2018 11:45 21,6 °C 73 % 1017,2 hPa 0,0 mm 2,5 km/h (1 Bft) NW 304 ° 0 min 0,000 mm 4,6 UV-I 594 W/m² 16,5 °C 21,6 °C 3,2 km/h (1 Bft)
18.08.2018 11:46 21,6 °C 70 % 1017,1 hPa 0,0 mm 2,3 km/h (1 Bft) W-NW 298 ° 1 min 0,000 mm 4,9 UV-I 640 W/m² 15,9 °C 21,6 °C 4,8 km/h (1 Bft)
18.08.2018 11:47 21,6 °C 71 % 1017,1 hPa 0,0 mm 1,6 km/h (1 Bft) NW 307 ° 1 min 0,000 mm 4,9 UV-I 647 W/m² 16,1 °C 21,6 °C 3,2 km/h (1 Bft)
18.08.2018 11:48 21,7 °C 74 % 1017,1 hPa 0,0 mm 3,8 km/h (1 Bft) N-NW 342 ° 1 min 0,000 mm 4,9 UV-I 659 W/m² 16,9 °C 21,7 °C 8,0 km/h (2 Bft)
18.08.2018 11:49 21,8 °C 71 % 1017,1 hPa 0,0 mm 5,6 km/h (1 Bft) N 360 ° 1 min 0,000 mm 5,0 UV-I 677 W/m² 16,3 °C 21,8 °C 8,0 km/h (2 Bft)
18.08.2018 11:50 21,8 °C 71 % 1017,1 hPa 0,0 mm 3,0 km/h (1 Bft) NW 325 ° 1 min 0,000 mm 5,0 UV-I 666 W/m² 16,3 °C 21,8 °C 4,8 km/h (1 Bft)
18.08.2018 11:51 21,7 °C 71 % 1017,2 hPa 0,0 mm 1,0 km/h (0 Bft) NW 325 ° 1 min 0,000 mm 5,1 UV-I 689 W/m² 16,2 °C 21,7 °C 3,2 km/h (1 Bft)
18.08.2018 11:52 21,8 °C 74 % 1017,1 hPa 0,0 mm 4,2 km/h (1 Bft) NW 313 ° 1 min 0,000 mm 5,0 UV-I 680 W/m² 17,0 °C 21,8 °C 8,0 km/h (2 Bft)
18.08.2018 11:53 21,8 °C 71 % 1017,1 hPa 0,0 mm 4,3 km/h (1 Bft) W-NW 299 ° 1 min 0,000 mm 5,0 UV-I 729 W/m² 16,3 °C 21,8 °C 8,0 km/h (2 Bft)
18.08.2018 11:54 21,8 °C 71 % 1017,1 hPa 0,0 mm 3,3 km/h (1 Bft) W-NW 289 ° 1 min 0,000 mm 5,2 UV-I 729 W/m² 16,3 °C 21,8 °C 6,4 km/h (2 Bft)
18.08.2018 11:55 21,7 °C 70 % 1017,2 hPa 0,0 mm 5,2 km/h (1 Bft) W-NW 290 ° 1 min 0,000 mm 5,1 UV-I 719 W/m² 16,0 °C 21,7 °C 6,4 km/h (2 Bft)
18.08.2018 11:56 21,7 °C 71 % 1017,1 hPa 0,0 mm 3,3 km/h (1 Bft) W 271 ° 1 min 0,000 mm 5,1 UV-I 712 W/m² 16,2 °C 21,7 °C 6,4 km/h (2 Bft)
18.08.2018 11:57 21,7 °C 71 % 1017,1 hPa 0,0 mm 1,9 km/h (1 Bft) NW 308 ° 1 min 0,000 mm 5,1 UV-I 682 W/m² 16,2 °C 21,7 °C 4,8 km/h (1 Bft)
18.08.2018 11:58 21,7 °C 73 % 1017,1 hPa 0,0 mm 3,7 km/h (1 Bft) W 269 ° 1 min 0,000 mm 5,1 UV-I 701 W/m² 16,6 °C 21,7 °C 4,8 km/h (1 Bft)
18.08.2018 11:59 21,8 °C 73 % 1017,1 hPa 0,0 mm 5,4 km/h (1 Bft) NW 309 ° 1 min 0,000 mm 5,1 UV-I 717 W/m² 16,7 °C 21,8 °C 6,4 km/h (2 Bft)
18.08.2018 12:00 21,8 °C 71 % 1017,1 hPa 0,0 mm 5,3 km/h (1 Bft) W-NW 298 ° 1 min 0,000 mm 5,1 UV-I 721 W/m² 16,3 °C 21,8 °C 8,0 km/h (2 Bft)
18.08.2018 12:01 21,9 °C 72 % 1017,0 hPa 0,0 mm 4,3 km/h (1 Bft) W-NW 288 ° 1 min 0,406 mm 4,9 UV-I 640 W/m² 16,6 °C 21,9 °C 6,4 km/h (2 Bft)
18.08.2018 12:02 21,8 °C 69 % 1017,0 hPa 0,0 mm 5,0 km/h (1 Bft) W-SW 252 ° 1 min 0,000 mm 5,1 UV-I 703 W/m² 15,9 °C 21,8 °C 6,4 km/h (2 Bft)
18.08.2018 12:03 21,8 °C 73 % 1017,0 hPa 0,0 mm 4,6 km/h (1 Bft) NW 321 ° 1 min 0,000 mm 5,0 UV-I 687 W/m² 16,7 °C 21,8 °C 9,7 km/h (2 Bft)
18.08.2018 12:04 21,9 °C 71 % 1017,1 hPa 0,0 mm 4,9 km/h (1 Bft) N 10 ° 1 min 0,000 mm 5,1 UV-I 680 W/m² 16,4 °C 21,9 °C 8,0 km/h (2 Bft)
18.08.2018 12:05 21,9 °C 71 % 1017,0 hPa 0,0 mm 3,5 km/h (1 Bft) NO 45 ° 1 min 0,000 mm 5,2 UV-I 721 W/m² 16,4 °C 21,9 °C 6,4 km/h (2 Bft)
18.08.2018 12:06 21,8 °C 69 % 1017,0 hPa 0,0 mm 3,6 km/h (1 Bft) NO 49 ° 1 min 0,000 mm 5,3 UV-I 740 W/m² 15,9 °C 21,8 °C 4,8 km/h (1 Bft)
18.08.2018 12:07 21,9 °C 71 % 1017,0 hPa 0,0 mm 3,1 km/h (1 Bft) NO 39 ° 1 min 0,000 mm 5,4 UV-I 747 W/m² 16,4 °C 21,9 °C 6,4 km/h (2 Bft)
18.08.2018 12:08 22,1 °C 71 % 1017,0 hPa 0,0 mm 4,6 km/h (1 Bft) W-NW 299 ° 1 min 0,000 mm 5,4 UV-I 763 W/m² 16,6 °C 22,1 °C 6,4 km/h (2 Bft)
18.08.2018 12:09 22,2 °C 70 % 1017,0 hPa 0,0 mm 3,6 km/h (1 Bft) NW 315 ° 1 min 0,000 mm 5,5 UV-I 780 W/m² 16,5 °C 22,2 °C 6,4 km/h (2 Bft)
18.08.2018 12:10 22,3 °C 70 % 1017,0 hPa 0,0 mm 6,0 km/h (2 Bft) N 5 ° 1 min 0,000 mm 5,4 UV-I 775 W/m² 16,6 °C 22,3 °C 8,0 km/h (2 Bft)
18.08.2018 12:11 22,2 °C 69 % 1017,0 hPa 0,0 mm 1,5 km/h (1 Bft) N 360 ° 1 min 0,000 mm 5,5 UV-I 788 W/m² 16,2 °C 22,2 °C 3,2 km/h (1 Bft)
18.08.2018 12:12 22,1 °C 69 % 1017,0 hPa 0,0 mm 5,1 km/h (1 Bft) N-NW 340 ° 1 min 0,000 mm 5,6 UV-I 791 W/m² 16,1 °C 22,1 °C 6,4 km/h (2 Bft)
18.08.2018 12:13 22,1 °C 69 % 1017,0 hPa 0,0 mm 5,0 km/h (1 Bft) N-NW 338 ° 1 min 0,000 mm 5,5 UV-I 802 W/m² 16,1 °C 22,1 °C 6,4 km/h (2 Bft)
18.08.2018 12:14 22,1 °C 72 % 1017,0 hPa 0,0 mm 3,3 km/h (1 Bft) N-NW 338 ° 1 min 0,000 mm 5,6 UV-I 761 W/m² 16,8 °C 22,1 °C 4,8 km/h (1 Bft)
18.08.2018 12:15 22,1 °C 69 % 1017,0 hPa 0,0 mm 0,3 km/h (0 Bft) N-NW 338 ° 1 min 0,000 mm 5,7 UV-I 784 W/m² 16,1 °C 22,1 °C 1,6 km/h (1 Bft)
18.08.2018 12:16 22,1 °C 71 % 1017,0 hPa 0,0 mm 1,3 km/h (1 Bft) N-NW 338 ° 1 min 0,000 mm 5,6 UV-I 807 W/m² 16,6 °C 22,1 °C 3,2 km/h (1 Bft)
18.08.2018 12:17 22,2 °C 70 % 1017,0 hPa 0,0 mm 2,4 km/h (1 Bft) N-NW 338 ° 1 min 0,000 mm 5,7 UV-I 751 W/m² 16,5 °C 22,2 °C 4,8 km/h (1 Bft)
18.08.2018 12:18 22,3 °C 69 % 1017,0 hPa 0,0 mm 0,3 km/h (0 Bft) N-NW 338 ° 1 min 0,000 mm 5,8 UV-I 803 W/m² 16,3 °C 22,3 °C 1,6 km/h (1 Bft)
18.08.2018 12:19 22,2 °C 68 % 1017,0 hPa 0,0 mm 0,1 km/h (0 Bft) N-NW 338 ° 1 min 0,000 mm 5,8 UV-I 807 W/m² 16,0 °C 22,2 °C 1,6 km/h (1 Bft)
18.08.2018 12:20 22,3 °C 70 % 1017,0 hPa 0,0 mm 0,8 km/h (0 Bft) N-NW 338 ° 1 min 0,000 mm 5,9 UV-I 821 W/m² 16,6 °C 22,3 °C 1,6 km/h (1 Bft)
18.08.2018 12:21 22,3 °C 70 % 1016,9 hPa 0,0 mm 1,2 km/h (1 Bft) N-NW 338 ° 1 min 0,000 mm 5,9 UV-I 830 W/m² 16,6 °C 22,3 °C 3,2 km/h (1 Bft)
18.08.2018 12:22 22,4 °C 71 % 1017,0 hPa 0,0 mm 1,2 km/h (1 Bft) N-NW 338 ° 1 min 0,000 mm 5,8 UV-I 816 W/m² 16,9 °C 22,4 °C 3,2 km/h (1 Bft)
18.08.2018 12:23 22,4 °C 70 % 1017,0 hPa 0,0 mm 2,4 km/h (1 Bft) NW 319 ° 1 min 0,000 mm 5,9 UV-I 830 W/m² 16,7 °C 22,4 °C 4,8 km/h (1 Bft)
18.08.2018 12:24 22,6 °C 71 % 1017,0 hPa 0,0 mm 3,3 km/h (1 Bft) W-NW 302 ° 1 min 0,000 mm 5,9 UV-I 828 W/m² 17,1 °C 22,6 °C 6,4 km/h (2 Bft)
18.08.2018 12:25 22,6 °C 70 % 1017,0 hPa 0,0 mm 4,0 km/h (1 Bft) W-NW 292 ° 1 min 0,000 mm 5,9 UV-I 831 W/m² 16,8 °C 22,6 °C 8,0 km/h (2 Bft)
18.08.2018 12:26 22,6 °C 70 % 1017,0 hPa 0,0 mm 3,8 km/h (1 Bft) W-NW 296 ° 1 min 0,000 mm 5,9 UV-I 840 W/m² 16,8 °C 22,6 °C 6,4 km/h (2 Bft)
18.08.2018 12:27 22,7 °C 68 % 1016,9 hPa 0,0 mm 2,2 km/h (1 Bft) W-NW 292 ° 1 min 0,000 mm 6,0 UV-I 851 W/m² 16,5 °C 22,7 °C 4,8 km/h (1 Bft)
18.08.2018 12:28 22,6 °C 69 % 1016,9 hPa 0,0 mm 1,7 km/h (1 Bft) N-NW 344 ° 1 min 0,000 mm 6,0 UV-I 863 W/m² 16,6 °C 22,6 °C 4,8 km/h (1 Bft)
18.08.2018 12:29 22,6 °C 70 % 1017,0 hPa 0,0 mm 5,3 km/h (1 Bft) NW 315 ° 1 min 0,000 mm 6,1 UV-I 888 W/m² 16,8 °C 22,6 °C 8,0 km/h (2 Bft)
18.08.2018 12:30 22,6 °C 69 % 1016,9 hPa 0,0 mm 3,7 km/h (1 Bft) W-NW 296 ° 1 min 0,000 mm 6,1 UV-I 900 W/m² 16,6 °C 22,6 °C 4,8 km/h (1 Bft)
18.08.2018 12:31 22,7 °C 68 % 1017,0 hPa 0,0 mm 5,3 km/h (1 Bft) W-NW 286 ° 1 min 0,000 mm 6,1 UV-I 914 W/m² 16,5 °C 22,7 °C 9,7 km/h (2 Bft)
18.08.2018 12:32 22,8 °C 68 % 1017,0 hPa 0,0 mm 1,5 km/h (1 Bft) W-NW 286 ° 1 min 0,000 mm 6,2 UV-I 926 W/m² 16,6 °C 22,8 °C 4,8 km/h (1 Bft)
18.08.2018 12:33 22,8 °C 68 % 1017,0 hPa 0,0 mm 3,1 km/h (1 Bft) N-NO 32 ° 1 min 0,000 mm 6,1 UV-I 912 W/m² 16,6 °C 22,8 °C 6,4 km/h (2 Bft)
18.08.2018 12:34 22,9 °C 68 % 1017,0 hPa 0,0 mm 4,0 km/h (1 Bft) N 10 ° 1 min 0,000 mm 5,9 UV-I 874 W/m² 16,7 °C 22,9 °C 6,4 km/h (2 Bft)
18.08.2018 12:35 22,9 °C 69 % 1016,9 hPa 0,0 mm 4,6 km/h (1 Bft) O-NO 67 ° 1 min 0,000 mm 5,8 UV-I 777 W/m² 16,9 °C 22,9 °C 8,0 km/h (2 Bft)
18.08.2018 12:36 22,9 °C 67 % 1016,9 hPa 0,0 mm 5,7 km/h (1 Bft) O-NO 69 ° 1 min 0,000 mm 5,5 UV-I 810 W/m² 16,4 °C 22,9 °C 8,0 km/h (2 Bft)
18.08.2018 12:37 22,8 °C 67 % 1017,0 hPa 0,0 mm 3,2 km/h (1 Bft) NO 44 ° 1 min 0,000 mm 3,4 UV-I 810 W/m² 16,3 °C 22,8 °C 4,8 km/h (1 Bft)
18.08.2018 12:38 22,8 °C 67 % 1016,9 hPa 0,0 mm 6,0 km/h (2 Bft) N 355 ° 0 min 0,000 mm 4,1 UV-I 315 W/m² 16,3 °C 22,8 °C 12,9 km/h (3 Bft)
18.08.2018 12:39 22,8 °C 66 % 1017,0 hPa 0,0 mm 5,4 km/h (1 Bft) N-NO 30 ° 0 min 0,000 mm 3,2 UV-I 294 W/m² 16,1 °C 22,8 °C 8,0 km/h (2 Bft)
18.08.2018 12:40 22,7 °C 67 % 1017,0 hPa 0,0 mm 7,0 km/h (2 Bft) N-NO 19 ° 0 min 0,000 mm 3,1 UV-I 290 W/m² 16,2 °C 22,7 °C 11,3 km/h (2 Bft)
18.08.2018 12:41 22,7 °C 66 % 1017,0 hPa 0,0 mm 4,1 km/h (1 Bft) N-NO 21 ° 0 min 0,000 mm 3,2 UV-I 251 W/m² 16,0 °C 22,7 °C 4,8 km/h (1 Bft)
18.08.2018 12:42 22,6 °C 66 % 1017,0 hPa 0,0 mm 3,3 km/h (1 Bft) N-NW 343 ° 0 min 0,000 mm 2,9 UV-I 220 W/m² 15,9 °C 22,6 °C 4,8 km/h (1 Bft)
18.08.2018 12:43 22,4 °C 66 % 1017,0 hPa 0,0 mm 4,7 km/h (1 Bft) N-NW 340 ° 0 min 0,000 mm 2,9 UV-I 211 W/m² 15,7 °C 22,4 °C 6,4 km/h (2 Bft)
18.08.2018 12:44 22,4 °C 65 % 1017,0 hPa 0,0 mm 1,0 km/h (0 Bft) N-NW 341 ° 0 min 0,000 mm 3,6 UV-I 211 W/m² 15,5 °C 22,4 °C 3,2 km/h (1 Bft)
18.08.2018 12:45 22,3 °C 68 % 1017,0 hPa 0,0 mm 8,0 km/h (2 Bft) N-NW 331 ° 0 min 0,000 mm 3,0 UV-I 211 W/m² 16,1 °C 22,3 °C 8,0 km/h (2 Bft)
18.08.2018 12:46 22,3 °C 67 % 1017,0 hPa 0,0 mm 6,8 km/h (2 Bft) N-NO 21 ° 0 min 0,000 mm 3,0 UV-I 207 W/m² 15,9 °C 22,3 °C 8,0 km/h (2 Bft)
18.08.2018 12:47 22,3 °C 68 % 1017,0 hPa 0,0 mm 5,1 km/h (1 Bft) NO 51 ° 0 min 0,000 mm 3,1 UV-I 204 W/m² 16,1 °C 22,3 °C 8,0 km/h (2 Bft)
18.08.2018 12:48 22,2 °C 68 % 1017,0 hPa 0,0 mm 1,1 km/h (1 Bft) NO 49 ° 0 min 0,000 mm 3,2 UV-I 216 W/m² 16,0 °C 22,2 °C 4,8 km/h (1 Bft)
18.08.2018 12:49 22,1 °C 68 % 1017,0 hPa 0,0 mm 1,9 km/h (1 Bft) N-NO 26 ° 0 min 0,000 mm 4,6 UV-I 311 W/m² 15,9 °C 22,1 °C 4,8 km/h (1 Bft)
18.08.2018 12:50 22,0 °C 68 % 1017,0 hPa 0,0 mm 0,8 km/h (0 Bft) N-NO 31 ° 0 min 0,000 mm 3,2 UV-I 223 W/m² 15,8 °C 22,0 °C 3,2 km/h (1 Bft)
18.08.2018 12:51 21,9 °C 68 % 1017,0 hPa 0,0 mm 4,0 km/h (1 Bft) NO 37 ° 0 min 0,000 mm 3,1 UV-I 190 W/m² 15,7 °C 21,9 °C 6,4 km/h (2 Bft)
18.08.2018 12:52 21,9 °C 68 % 1016,9 hPa 0,0 mm 3,5 km/h (1 Bft) NO 38 ° 0 min 0,000 mm 3,0 UV-I 176 W/m² 15,7 °C 21,9 °C 8,0 km/h (2 Bft)
18.08.2018 12:53 21,9 °C 67 % 1017,0 hPa 0,0 mm 4,1 km/h (1 Bft) O-NO 76 ° 0 min 0,000 mm 3,0 UV-I 192 W/m² 15,5 °C 21,9 °C 6,4 km/h (2 Bft)
18.08.2018 12:54 21,9 °C 68 % 1017,0 hPa 0,0 mm 4,5 km/h (1 Bft) NO 38 ° 0 min 0,000 mm 3,3 UV-I 192 W/m² 15,7 °C 21,9 °C 8,0 km/h (2 Bft)
18.08.2018 12:55 22,0 °C 67 % 1017,0 hPa 0,0 mm 4,3 km/h (1 Bft) NO 40 ° 0 min 0,000 mm 3,1 UV-I 192 W/m² 15,6 °C 22,0 °C 6,4 km/h (2 Bft)
18.08.2018 12:56 22,1 °C 69 % 1017,0 hPa 0,0 mm 3,4 km/h (1 Bft) NO 43 ° 0 min 0,000 mm 3,1 UV-I 192 W/m² 16,1 °C 22,1 °C 4,8 km/h (1 Bft)
18.08.2018 12:57 22,2 °C 68 % 1017,0 hPa 0,0 mm 5,9 km/h (2 Bft) O-NO 63 ° 0 min 0,000 mm 5,4 UV-I 192 W/m² 16,0 °C 22,2 °C 6,4 km/h (2 Bft)
18.08.2018 12:58 22,2 °C 66 % 1017,0 hPa 0,0 mm 3,6 km/h (1 Bft) N-NO 19 ° 1 min 0,000 mm 5,6 UV-I 870 W/m² 15,5 °C 22,2 °C 6,4 km/h (2 Bft)
18.08.2018 12:59 22,3 °C 67 % 1017,0 hPa 0,0 mm 0,9 km/h (0 Bft) N-NO 19 ° 1 min 0,000 mm 5,2 UV-I 870 W/m² 15,9 °C 22,3 °C 4,8 km/h (1 Bft)
18.08.2018 13:00 22,5 °C 66 % 1016,9 hPa 0,0 mm 0,6 km/h (0 Bft) N-NO 12 ° 1 min 0,381 mm 5,7 UV-I 870 W/m² 15,8 °C 22,5 °C 3,2 km/h (1 Bft)
18.08.2018 13:01 22,6 °C 67 % 1016,9 hPa 0,0 mm 1,0 km/h (0 Bft) N-NW 338 ° 1 min 0,000 mm 5,8 UV-I 853 W/m² 16,2 °C 22,6 °C 4,8 km/h (1 Bft)
18.08.2018 13:02 22,9 °C 70 % 1016,9 hPa 0,0 mm 1,9 km/h (1 Bft) NO 40 ° 1 min 0,000 mm 5,9 UV-I 870 W/m² 17,1 °C 22,9 °C 3,2 km/h (1 Bft)
18.08.2018 13:03 23,1 °C 70 % 1016,9 hPa 0,0 mm 3,6 km/h (1 Bft) N-NO 30 ° 1 min 0,000 mm 5,5 UV-I 838 W/m² 17,3 °C 23,1 °C 6,4 km/h (2 Bft)
18.08.2018 13:04 23,2 °C 66 % 1016,9 hPa 0,0 mm 8,6 km/h (2 Bft) O 95 ° 1 min 0,000 mm 5,6 UV-I 861 W/m² 16,5 °C 23,2 °C 11,3 km/h (2 Bft)
18.08.2018 13:05 23,2 °C 64 % 1016,9 hPa 0,0 mm 6,8 km/h (2 Bft) N 5 ° 0 min 0,000 mm 5,4 UV-I 385 W/m² 16,0 °C 23,2 °C 11,3 km/h (2 Bft)
18.08.2018 13:06 23,0 °C 62 % 1016,9 hPa 0,0 mm 3,1 km/h (1 Bft) O-NO 65 ° 0 min 0,000 mm 5,4 UV-I 385 W/m² 15,3 °C 23,0 °C 6,4 km/h (2 Bft)
18.08.2018 13:07 22,8 °C 63 % 1016,9 hPa 0,0 mm 5,2 km/h (1 Bft) NO 53 ° 0 min 0,000 mm 3,3 UV-I 385 W/m² 15,4 °C 22,8 °C 8,0 km/h (2 Bft)
18.08.2018 13:08 22,7 °C 65 % 1016,9 hPa 0,0 mm 7,1 km/h (2 Bft) O-NO 59 ° 0 min 0,000 mm 3,3 UV-I 246 W/m² 15,8 °C 22,7 °C 9,7 km/h (2 Bft)
18.08.2018 13:09 22,6 °C 64 % 1016,9 hPa 0,0 mm 5,1 km/h (1 Bft) N 360 ° 0 min 0,000 mm 3,2 UV-I 246 W/m² 15,4 °C 22,6 °C 11,3 km/h (2 Bft)
18.08.2018 13:10 22,5 °C 65 % 1016,9 hPa 0,0 mm 4,1 km/h (1 Bft) N-NO 31 ° 0 min 0,000 mm 3,2 UV-I 120 W/m² 15,6 °C 22,5 °C 4,8 km/h (1 Bft)
18.08.2018 13:11 22,4 °C 66 % 1016,9 hPa 0,0 mm 3,7 km/h (1 Bft) N-NW 329 ° 0 min 0,000 mm 3,8 UV-I 241 W/m² 15,7 °C 22,4 °C 9,7 km/h (2 Bft)
18.08.2018 13:12 22,4 °C 66 % 1017,0 hPa 0,0 mm 7,0 km/h (2 Bft) N-NO 20 ° 0 min 0,000 mm 5,7 UV-I 241 W/m² 15,7 °C 22,4 °C 8,0 km/h (2 Bft)
18.08.2018 13:13 22,4 °C 65 % 1017,0 hPa 0,0 mm 6,6 km/h (2 Bft) N 350 ° 0 min 0,000 mm 4,8 UV-I 241 W/m² 15,5 °C 22,4 °C 8,0 km/h (2 Bft)
18.08.2018 13:14 22,6 °C 66 % 1017,0 hPa 0,0 mm 8,9 km/h (2 Bft) N 5 ° 0 min 0,000 mm 3,6 UV-I 287 W/m² 15,9 °C 22,6 °C 12,9 km/h (3 Bft)
18.08.2018 13:15 22,7 °C 65 % 1017,0 hPa 0,0 mm 6,3 km/h (2 Bft) NW 309 ° 0 min 0,000 mm 6,0 UV-I 287 W/m² 15,8 °C 22,7 °C 9,7 km/h (2 Bft)
18.08.2018 13:16 22,7 °C 65 % 1017,0 hPa 0,0 mm 5,6 km/h (1 Bft) N-NW 336 ° 1 min 0,000 mm 5,8 UV-I 874 W/m² 15,8 °C 22,7 °C 8,0 km/h (2 Bft)
18.08.2018 13:17 22,8 °C 65 % 1016,9 hPa 0,0 mm 5,0 km/h (1 Bft) N-NW 333 ° 1 min 0,000 mm 5,8 UV-I 907 W/m² 15,9 °C 22,8 °C 8,0 km/h (2 Bft)
18.08.2018 13:18 22,8 °C 64 % 1016,9 hPa 0,0 mm 1,9 km/h (1 Bft) N-NW 333 ° 1 min 0,000 mm 3,3 UV-I 907 W/m² 15,6 °C 22,8 °C 4,8 km/h (1 Bft)
18.08.2018 13:19 22,8 °C 63 % 1017,0 hPa 0,0 mm 3,0 km/h (1 Bft) NW 314 ° 0 min 0,000 mm 3,4 UV-I 260 W/m² 15,4 °C 22,8 °C 4,8 km/h (1 Bft)
18.08.2018 13:20 22,7 °C 65 % 1017,0 hPa 0,0 mm 2,5 km/h (1 Bft) NW 321 ° 0 min 0,000 mm 3,5 UV-I 260 W/m² 15,8 °C 22,7 °C 3,2 km/h (1 Bft)
18.08.2018 13:21 22,6 °C 65 % 1017,0 hPa 0,0 mm 2,5 km/h (1 Bft) N-NW 331 ° 0 min 0,000 mm 3,5 UV-I 276 W/m² 15,7 °C 22,6 °C 4,8 km/h (1 Bft)
18.08.2018 13:22 22,6 °C 65 % 1017,0 hPa 0,0 mm 0,3 km/h (0 Bft) N-NW 331 ° 0 min 0,000 mm 3,4 UV-I 276 W/m² 15,7 °C 22,6 °C 1,6 km/h (1 Bft)
18.08.2018 13:23 22,6 °C 65 % 1017,0 hPa 0,0 mm 5,8 km/h (2 Bft) N-NW 331 ° 0 min 0,000 mm 4,0 UV-I 346 W/m² 15,7 °C 22,6 °C 8,0 km/h (2 Bft)
18.08.2018 13:24 22,6 °C 64 % 1017,0 hPa 0,0 mm 5,0 km/h (1 Bft) NO 53 ° 0 min 0,000 mm 4,9 UV-I 346 W/m² 15,4 °C 22,6 °C 8,0 km/h (2 Bft)
18.08.2018 13:25 22,6 °C 65 % 1016,9 hPa 0,0 mm 2,7 km/h (1 Bft) O-NO 63 ° 0 min 0,000 mm 3,5 UV-I 346 W/m² 15,7 °C 22,6 °C 8,0 km/h (2 Bft)
18.08.2018 13:26 22,6 °C 66 % 1017,0 hPa 0,0 mm 8,6 km/h (2 Bft) O-NO 74 ° 0 min 0,000 mm 3,5 UV-I 341 W/m² 15,9 °C 22,6 °C 9,7 km/h (2 Bft)
18.08.2018 13:27 22,6 °C 65 % 1017,0 hPa 0,0 mm 6,4 km/h (2 Bft) NO 46 ° 0 min 0,000 mm 3,3 UV-I 295 W/m² 15,7 °C 22,6 °C 11,3 km/h (2 Bft)
18.08.2018 13:28 22,6 °C 65 % 1017,0 hPa 0,0 mm 2,7 km/h (1 Bft) NO 40 ° 0 min 0,000 mm 3,4 UV-I 316 W/m² 15,7 °C 22,6 °C 6,4 km/h (2 Bft)
18.08.2018 13:29 22,6 °C 64 % 1017,0 hPa 0,0 mm 3,1 km/h (1 Bft) N-NO 28 ° 0 min 0,000 mm 3,6 UV-I 316 W/m² 15,4 °C 22,6 °C 4,8 km/h (1 Bft)
18.08.2018 13:30 22,7 °C 64 % 1017,0 hPa 0,0 mm 3,8 km/h (1 Bft) N-NW 348 ° 0 min 0,000 mm 3,7 UV-I 316 W/m² 15,5 °C 22,7 °C 4,8 km/h (1 Bft)
18.08.2018 13:31 22,8 °C 65 % 1017,0 hPa 0,0 mm 3,1 km/h (1 Bft) N-NW 327 ° 0 min 0,000 mm 5,9 UV-I 316 W/m² 15,9 °C 22,8 °C 4,8 km/h (1 Bft)
18.08.2018 13:32 23,0 °C 69 % 1017,0 hPa 0,0 mm 4,1 km/h (1 Bft) NW 322 ° 0 min 0,000 mm 5,9 UV-I 316 W/m² 17,0 °C 23,0 °C 6,4 km/h (2 Bft)
18.08.2018 13:33 23,3 °C 71 % 1017,0 hPa 0,0 mm 0,2 km/h (0 Bft) NW 324 ° 1 min 0,000 mm 6,0 UV-I 972 W/m² 17,7 °C 23,3 °C 1,6 km/h (1 Bft)
18.08.2018 13:34 23,6 °C 67 % 1017,0 hPa 0,0 mm 2,4 km/h (1 Bft) NO 49 ° 1 min 0,000 mm 5,6 UV-I 942 W/m² 17,1 °C 23,6 °C 3,2 km/h (1 Bft)
18.08.2018 13:35 23,6 °C 66 % 1017,0 hPa 0,0 mm 4,2 km/h (1 Bft) N 5 ° 1 min 0,000 mm 5,8 UV-I 942 W/m² 16,9 °C 23,6 °C 8,0 km/h (2 Bft)
18.08.2018 13:36 23,7 °C 64 % 1017,0 hPa 0,0 mm 3,3 km/h (1 Bft) N-NW 340 ° 1 min 0,000 mm 5,5 UV-I 942 W/m² 16,5 °C 23,7 °C 4,8 km/h (1 Bft)
18.08.2018 13:37 23,7 °C 62 % 1017,0 hPa 0,0 mm 2,3 km/h (1 Bft) N-NW 331 ° 1 min 0,000 mm 3,5 UV-I 942 W/m² 16,0 °C 23,7 °C 4,8 km/h (1 Bft)
18.08.2018 13:38 23,6 °C 64 % 1017,0 hPa 0,0 mm 5,9 km/h (2 Bft) N-NO 19 ° 0 min 0,000 mm 3,6 UV-I 315 W/m² 16,4 °C 23,6 °C 9,7 km/h (2 Bft)
18.08.2018 13:39 23,4 °C 63 % 1016,9 hPa 0,0 mm 5,1 km/h (1 Bft) N-NO 16 ° 0 min 0,000 mm 4,5 UV-I 343 W/m² 15,9 °C 23,4 °C 8,0 km/h (2 Bft)
18.08.2018 13:40 23,4 °C 66 % 1017,0 hPa 0,0 mm 6,0 km/h (2 Bft) NO 52 ° 0 min 0,000 mm 6,1 UV-I 343 W/m² 16,7 °C 23,4 °C 8,0 km/h (2 Bft)
18.08.2018 13:41 23,4 °C 66 % 1017,0 hPa 0,0 mm 5,4 km/h (1 Bft) N-NO 16 ° 0 min 0,000 mm 5,9 UV-I 343 W/m² 16,7 °C 23,4 °C 11,3 km/h (2 Bft)
18.08.2018 13:42 23,5 °C 64 % 1017,0 hPa 0,0 mm 5,6 km/h (1 Bft) N-NO 32 ° 0 min 0,000 mm 3,7 UV-I 343 W/m² 16,3 °C 23,5 °C 9,7 km/h (2 Bft)
18.08.2018 13:43 23,4 °C 64 % 1017,0 hPa 0,0 mm 7,6 km/h (2 Bft) N-NO 27 ° 0 min 0,000 mm 3,6 UV-I 357 W/m² 16,2 °C 23,4 °C 12,9 km/h (3 Bft)
18.08.2018 13:44 23,3 °C 66 % 1017,1 hPa 0,0 mm 5,4 km/h (1 Bft) N-NO 17 ° 0 min 0,000 mm 4,2 UV-I 357 W/m² 16,6 °C 23,3 °C 11,3 km/h (2 Bft)
18.08.2018 13:45 23,2 °C 64 % 1017,1 hPa 0,0 mm 5,2 km/h (1 Bft) N 360 ° 0 min 0,000 mm 3,5 UV-I 301 W/m² 16,0 °C 23,2 °C 6,4 km/h (2 Bft)
18.08.2018 13:46 23,2 °C 66 % 1017,0 hPa 0,0 mm 6,9 km/h (2 Bft) N 360 ° 0 min 0,000 mm 3,0 UV-I 257 W/m² 16,5 °C 23,2 °C 12,9 km/h (3 Bft)
18.08.2018 13:47 23,2 °C 65 % 1017,1 hPa 0,0 mm 5,3 km/h (1 Bft) O-NO 76 ° 0 min 0,000 mm 2,9 UV-I 223 W/m² 16,2 °C 23,2 °C 8,0 km/h (2 Bft)
18.08.2018 13:48 23,1 °C 64 % 1017,1 hPa 0,0 mm 5,3 km/h (1 Bft) N 355 ° 0 min 0,000 mm 2,8 UV-I 207 W/m² 15,9 °C 23,1 °C 8,0 km/h (2 Bft)
18.08.2018 13:49 23,1 °C 65 % 1017,1 hPa 0,0 mm 3,9 km/h (1 Bft) N 355 ° 0 min 0,000 mm 2,8 UV-I 207 W/m² 16,2 °C 23,1 °C 6,4 km/h (2 Bft)
18.08.2018 13:50 23,0 °C 65 % 1017,1 hPa 0,0 mm 4,7 km/h (1 Bft) N-NW 329 ° 0 min 0,000 mm 2,7 UV-I 207 W/m² 16,1 °C 23,0 °C 6,4 km/h (2 Bft)
18.08.2018 13:51 22,9 °C 65 % 1017,1 hPa 0,0 mm 4,2 km/h (1 Bft) N-NW 336 ° 0 min 0,000 mm 2,6 UV-I 174 W/m² 16,0 °C 22,9 °C 6,4 km/h (2 Bft)
18.08.2018 13:52 22,8 °C 64 % 1017,1 hPa 0,0 mm 3,0 km/h (1 Bft) N 355 ° 0 min 0,000 mm 2,7 UV-I 186 W/m² 15,6 °C 22,8 °C 4,8 km/h (1 Bft)
18.08.2018 13:53 22,7 °C 65 % 1017,1 hPa 0,0 mm 3,1 km/h (1 Bft) N-NW 340 ° 0 min 0,000 mm 2,8 UV-I 197 W/m² 15,8 °C 22,7 °C 4,8 km/h (1 Bft)
18.08.2018 13:54 22,7 °C 67 % 1017,1 hPa 0,0 mm 2,1 km/h (1 Bft) N-NW 327 ° 0 min 0,000 mm 3,0 UV-I 218 W/m² 16,2 °C 22,7 °C 4,8 km/h (1 Bft)
18.08.2018 13:55 22,6 °C 66 % 1017,0 hPa 0,0 mm 5,0 km/h (1 Bft) N-NW 329 ° 0 min 0,000 mm 5,4 UV-I 218 W/m² 15,9 °C 22,6 °C 8,0 km/h (2 Bft)
18.08.2018 13:56 22,6 °C 66 % 1017,1 hPa 0,0 mm 5,7 km/h (1 Bft) NW 318 ° 1 min 0,000 mm 4,7 UV-I 668 W/m² 15,9 °C 22,6 °C 9,7 km/h (2 Bft)
18.08.2018 13:57 22,6 °C 65 % 1017,0 hPa 0,0 mm 7,4 km/h (2 Bft) NW 317 ° 1 min 0,000 mm 4,7 UV-I 668 W/m² 15,7 °C 22,6 °C 11,3 km/h (2 Bft)
18.08.2018 13:58 22,6 °C 65 % 1017,0 hPa 0,0 mm 4,7 km/h (1 Bft) N-NO 17 ° 1 min 0,000 mm 3,0 UV-I 668 W/m² 15,7 °C 22,6 °C 6,4 km/h (2 Bft)
18.08.2018 13:59 22,6 °C 66 % 1017,0 hPa 0,0 mm 5,0 km/h (1 Bft) N-NW 338 ° 0 min 0,000 mm 2,9 UV-I 188 W/m² 15,9 °C 22,6 °C 9,7 km/h (2 Bft)
18.08.2018 14:00 22,6 °C 66 % 1017,0 hPa 0,0 mm 4,9 km/h (1 Bft) NW 322 ° 0 min 0,000 mm 2,8 UV-I 176 W/m² 15,9 °C 22,6 °C 8,0 km/h (2 Bft)
18.08.2018 14:01 22,6 °C 65 % 1017,0 hPa 0,0 mm 4,8 km/h (1 Bft) NW 315 ° 0 min 0,305 mm 2,8 UV-I 171 W/m² 15,7 °C 22,6 °C 6,4 km/h (2 Bft)
18.08.2018 14:02 22,5 °C 66 % 1017,0 hPa 0,0 mm 4,6 km/h (1 Bft) N-NW 345 ° 0 min 0,000 mm 2,8 UV-I 169 W/m² 15,8 °C 22,5 °C 6,4 km/h (2 Bft)
18.08.2018 14:03 22,5 °C 67 % 1017,0 hPa 0,0 mm 9,6 km/h (2 Bft) NW 321 ° 0 min 0,000 mm 2,8 UV-I 185 W/m² 16,1 °C 22,5 °C 14,5 km/h (3 Bft)
18.08.2018 14:04 22,4 °C 65 % 1017,0 hPa 0,0 mm 10,1 km/h (2 Bft) N 5 ° 0 min 0,000 mm 3,4 UV-I 185 W/m² 15,5 °C 22,4 °C 17,7 km/h (3 Bft)
18.08.2018 14:05 22,4 °C 66 % 1017,0 hPa 0,0 mm 5,2 km/h (1 Bft) N-NO 15 ° 0 min 0,000 mm 3,2 UV-I 185 W/m² 15,7 °C 22,4 °C 9,7 km/h (2 Bft)
18.08.2018 14:06 22,4 °C 66 % 1017,0 hPa 0,0 mm 3,8 km/h (1 Bft) N-NO 17 ° 0 min 0,000 mm 3,3 UV-I 197 W/m² 15,7 °C 22,4 °C 6,4 km/h (2 Bft)
18.08.2018 14:07 22,6 °C 66 % 1017,0 hPa 0,0 mm 2,7 km/h (1 Bft) NO 35 ° 0 min 0,000 mm 5,4 UV-I 197 W/m² 15,9 °C 22,6 °C 4,8 km/h (1 Bft)
18.08.2018 14:08 22,8 °C 67 % 1017,0 hPa 0,0 mm 3,0 km/h (1 Bft) N-NO 16 ° 1 min 0,000 mm 5,7 UV-I 838 W/m² 16,3 °C 22,8 °C 6,4 km/h (2 Bft)
18.08.2018 14:09 23,0 °C 66 % 1017,0 hPa 0,0 mm 4,6 km/h (1 Bft) N-NO 13 ° 1 min 0,000 mm 5,8 UV-I 842 W/m² 16,3 °C 23,0 °C 8,0 km/h (2 Bft)
18.08.2018 14:10 23,1 °C 63 % 1017,0 hPa 0,0 mm 5,9 km/h (2 Bft) N-NO 27 ° 1 min 0,000 mm 5,7 UV-I 851 W/m² 15,7 °C 23,1 °C 12,9 km/h (3 Bft)
18.08.2018 14:11 23,2 °C 65 % 1016,9 hPa 0,0 mm 4,6 km/h (1 Bft) NO 53 ° 1 min 0,000 mm 5,6 UV-I 851 W/m² 16,2 °C 23,2 °C 6,4 km/h (2 Bft)
18.08.2018 14:12 23,2 °C 66 % 1016,9 hPa 0,0 mm 7,0 km/h (2 Bft) NO 34 ° 1 min 0,000 mm 5,2 UV-I 717 W/m² 16,5 °C 23,2 °C 9,7 km/h (2 Bft)
18.08.2018 14:13 23,3 °C 63 % 1016,9 hPa 0,0 mm 5,3 km/h (1 Bft) O 87 ° 1 min 0,000 mm 3,2 UV-I 717 W/m² 15,9 °C 23,3 °C 8,0 km/h (2 Bft)
18.08.2018 14:14 23,2 °C 65 % 1016,9 hPa 0,0 mm 5,9 km/h (2 Bft) O-NO 63 ° 1 min 0,000 mm 3,7 UV-I 896 W/m² 16,2 °C 23,2 °C 9,7 km/h (2 Bft)
18.08.2018 14:15 23,3 °C 64 % 1016,9 hPa 0,0 mm 6,2 km/h (2 Bft) O 93 ° 1 min 0,000 mm 5,8 UV-I 847 W/m² 16,1 °C 23,3 °C 9,7 km/h (2 Bft)
18.08.2018 14:16 23,3 °C 65 % 1016,9 hPa 0,0 mm 7,0 km/h (2 Bft) NW 326 ° 1 min 0,000 mm 5,8 UV-I 881 W/m² 16,3 °C 23,3 °C 11,3 km/h (2 Bft)
18.08.2018 14:17 23,4 °C 64 % 1016,9 hPa 0,0 mm 4,4 km/h (1 Bft) NO 42 ° 1 min 0,000 mm 5,9 UV-I 888 W/m² 16,2 °C 23,4 °C 6,4 km/h (2 Bft)
18.08.2018 14:18 23,6 °C 63 % 1016,9 hPa 0,0 mm 7,4 km/h (2 Bft) NO 53 ° 1 min 0,000 mm 5,8 UV-I 840 W/m² 16,1 °C 23,6 °C 11,3 km/h (2 Bft)
18.08.2018 14:19 23,6 °C 61 % 1016,9 hPa 0,0 mm 4,8 km/h (1 Bft) N-NO 15 ° 1 min 0,000 mm 5,8 UV-I 877 W/m² 15,6 °C 23,6 °C 9,7 km/h (2 Bft)
18.08.2018 14:20 23,6 °C 62 % 1016,9 hPa 0,0 mm 6,6 km/h (2 Bft) N 350 ° 1 min 0,000 mm 5,6 UV-I 854 W/m² 15,9 °C 23,6 °C 9,7 km/h (2 Bft)
18.08.2018 14:21 23,6 °C 63 % 1016,9 hPa 0,0 mm 4,4 km/h (1 Bft) N-NW 341 ° 1 min 0,000 mm 5,7 UV-I 844 W/m² 16,1 °C 23,6 °C 6,4 km/h (2 Bft)
18.08.2018 14:22 23,6 °C 61 % 1016,8 hPa 0,0 mm 1,1 km/h (1 Bft) NO 40 ° 1 min 0,000 mm 5,7 UV-I 853 W/m² 15,6 °C 23,6 °C 4,8 km/h (1 Bft)
18.08.2018 14:23 23,7 °C 61 % 1016,9 hPa 0,0 mm 5,4 km/h (1 Bft) N-NO 16 ° 1 min 0,000 mm 5,7 UV-I 847 W/m² 15,7 °C 23,7 °C 6,4 km/h (2 Bft)
18.08.2018 14:24 23,7 °C 62 % 1016,9 hPa 0,0 mm 2,9 km/h (1 Bft) N-NO 21 ° 1 min 0,000 mm 5,7 UV-I 846 W/m² 16,0 °C 23,7 °C 4,8 km/h (1 Bft)
18.08.2018 14:25 23,7 °C 63 % 1016,8 hPa 0,0 mm 1,7 km/h (1 Bft) NO 47 ° 1 min 0,000 mm 5,8 UV-I 856 W/m² 16,2 °C 23,7 °C 3,2 km/h (1 Bft)
18.08.2018 14:26 23,8 °C 63 % 1016,8 hPa 0,0 mm 4,3 km/h (1 Bft) N-NO 22 ° 1 min 0,000 mm 5,9 UV-I 875 W/m² 16,3 °C 23,8 °C 8,0 km/h (2 Bft)
18.08.2018 14:27 23,7 °C 61 % 1016,9 hPa 0,0 mm 3,9 km/h (1 Bft) N 355 ° 1 min 0,000 mm 5,9 UV-I 879 W/m² 15,7 °C 23,7 °C 4,8 km/h (1 Bft)
18.08.2018 14:28 23,8 °C 63 % 1016,9 hPa 0,0 mm 3,7 km/h (1 Bft) N 5 ° 1 min 0,000 mm 5,6 UV-I 863 W/m² 16,3 °C 23,8 °C 6,4 km/h (2 Bft)
18.08.2018 14:29 23,9 °C 64 % 1016,9 hPa 0,0 mm 7,1 km/h (2 Bft) N-NO 19 ° 1 min 0,000 mm 5,1 UV-I 784 W/m² 16,7 °C 23,9 °C 11,3 km/h (2 Bft)
18.08.2018 14:30 23,9 °C 64 % 1016,9 hPa 0,0 mm 8,0 km/h (2 Bft) N-NO 33 ° 1 min 0,000 mm 5,4 UV-I 687 W/m² 16,7 °C 23,9 °C 11,3 km/h (2 Bft)
18.08.2018 14:31 23,9 °C 63 % 1016,8 hPa 0,0 mm 6,0 km/h (2 Bft) NO 40 ° 1 min 0,000 mm 5,4 UV-I 687 W/m² 16,4 °C 23,9 °C 9,7 km/h (2 Bft)
18.08.2018 14:32 23,9 °C 64 % 1016,9 hPa 0,0 mm 4,8 km/h (1 Bft) N-NO 22 ° 0 min 0,000 mm 3,2 UV-I 271 W/m² 16,7 °C 23,9 °C 8,0 km/h (2 Bft)
18.08.2018 14:33 23,8 °C 63 % 1016,9 hPa 0,0 mm 6,7 km/h (2 Bft) O 82 ° 0 min 0,000 mm 2,9 UV-I 236 W/m² 16,3 °C 23,8 °C 11,3 km/h (2 Bft)
18.08.2018 14:34 23,6 °C 63 % 1016,9 hPa 0,0 mm 8,7 km/h (2 Bft) N-NO 25 ° 0 min 0,000 mm 2,7 UV-I 207 W/m² 16,1 °C 23,6 °C 12,9 km/h (3 Bft)
18.08.2018 14:35 23,4 °C 64 % 1016,9 hPa 0,0 mm 6,4 km/h (2 Bft) N-NO 33 ° 0 min 0,000 mm 2,7 UV-I 200 W/m² 16,2 °C 23,4 °C 8,0 km/h (2 Bft)
18.08.2018 14:36 23,3 °C 64 % 1016,9 hPa 0,0 mm 5,2 km/h (1 Bft) N-NO 17 ° 0 min 0,000 mm 2,7 UV-I 202 W/m² 16,1 °C 23,3 °C 8,0 km/h (2 Bft)
18.08.2018 14:37 23,2 °C 64 % 1016,9 hPa 0,0 mm 5,5 km/h (1 Bft) N-NW 333 ° 0 min 0,000 mm 2,8 UV-I 309 W/m² 16,0 °C 23,2 °C 8,0 km/h (2 Bft)
18.08.2018 14:38 23,1 °C 65 % 1016,8 hPa 0,0 mm 6,1 km/h (2 Bft) O-NO 61 ° 0 min 0,000 mm 3,3 UV-I 297 W/m² 16,2 °C 23,1 °C 9,7 km/h (2 Bft)
18.08.2018 14:39 23,0 °C 66 % 1016,8 hPa 0,0 mm 4,9 km/h (1 Bft) O-NO 63 ° 0 min 0,000 mm 4,9 UV-I 297 W/m² 16,3 °C 23,0 °C 6,4 km/h (2 Bft)
18.08.2018 14:40 23,1 °C 66 % 1016,9 hPa 0,0 mm 11,5 km/h (2 Bft) N 5 ° 0 min 0,000 mm 3,4 UV-I 297 W/m² 16,4 °C 23,1 °C 17,7 km/h (3 Bft)
18.08.2018 14:41 23,1 °C 65 % 1016,8 hPa 0,0 mm 8,9 km/h (2 Bft) NO 45 ° 0 min 0,000 mm 3,1 UV-I 297 W/m² 16,2 °C 23,1 °C 14,5 km/h (3 Bft)
18.08.2018 14:42 23,1 °C 64 % 1016,9 hPa 0,0 mm 6,4 km/h (2 Bft) NO 45 ° 0 min 0,000 mm 3,1 UV-I 244 W/m² 15,9 °C 23,1 °C 11,3 km/h (2 Bft)
18.08.2018 14:43 23,0 °C 64 % 1016,9 hPa 0,0 mm 3,3 km/h (1 Bft) N 355 ° 0 min 0,000 mm 3,1 UV-I 241 W/m² 15,8 °C 23,0 °C 6,4 km/h (2 Bft)
18.08.2018 14:44 23,0 °C 65 % 1016,9 hPa 0,0 mm 5,6 km/h (1 Bft) NO 56 ° 1 min 0,000 mm 3,8 UV-I 828 W/m² 16,1 °C 23,0 °C 12,9 km/h (3 Bft)
18.08.2018 14:45 23,1 °C 66 % 1016,9 hPa 0,0 mm 4,0 km/h (1 Bft) N-NO 24 ° 1 min 0,000 mm 5,0 UV-I 745 W/m² 16,4 °C 23,1 °C 6,4 km/h (2 Bft)
18.08.2018 14:46 23,1 °C 66 % 1016,8 hPa 0,0 mm 2,7 km/h (1 Bft) NO 34 ° 1 min 0,000 mm 5,3 UV-I 824 W/m² 16,4 °C 23,1 °C 6,4 km/h (2 Bft)
18.08.2018 14:47 23,3 °C 66 % 1016,8 hPa 0,0 mm 4,6 km/h (1 Bft) N-NO 13 ° 1 min 0,000 mm 5,3 UV-I 821 W/m² 16,6 °C 23,3 °C 8,0 km/h (2 Bft)
18.08.2018 14:48 23,4 °C 64 % 1016,7 hPa 0,0 mm 4,2 km/h (1 Bft) NO 37 ° 1 min 0,000 mm 5,4 UV-I 823 W/m² 16,2 °C 23,4 °C 6,4 km/h (2 Bft)
18.08.2018 14:49 23,7 °C 66 % 1016,8 hPa 0,0 mm 6,0 km/h (2 Bft) N-NO 22 ° 1 min 0,000 mm 5,4 UV-I 826 W/m² 17,0 °C 23,7 °C 11,3 km/h (2 Bft)
18.08.2018 14:50 23,7 °C 62 % 1016,8 hPa 0,0 mm 5,4 km/h (1 Bft) N-NO 15 ° 1 min 0,000 mm 5,4 UV-I 849 W/m² 16,0 °C 23,7 °C 8,0 km/h (2 Bft)
18.08.2018 14:51 23,8 °C 63 % 1016,8 hPa 0,0 mm 5,9 km/h (2 Bft) N-NW 342 ° 1 min 0,000 mm 5,5 UV-I 863 W/m² 16,3 °C 23,8 °C 8,0 km/h (2 Bft)
18.08.2018 14:52 23,8 °C 65 % 1016,8 hPa 0,0 mm 8,2 km/h (2 Bft) NW 318 ° 1 min 0,000 mm 5,5 UV-I 875 W/m² 16,8 °C 23,8 °C 12,9 km/h (3 Bft)
18.08.2018 14:53 23,7 °C 67 % 1016,8 hPa 0,0 mm 6,4 km/h (2 Bft) N-NW 338 ° 1 min 0,000 mm 5,4 UV-I 881 W/m² 17,2 °C 23,7 °C 12,9 km/h (3 Bft)
18.08.2018 14:54 23,8 °C 67 % 1016,7 hPa 0,0 mm 2,6 km/h (1 Bft) NW 322 ° 1 min 0,000 mm 5,2 UV-I 893 W/m² 17,3 °C 23,8 °C 6,4 km/h (2 Bft)
18.08.2018 14:55 23,9 °C 69 % 1016,8 hPa 0,0 mm 3,7 km/h (1 Bft) N-NO 25 ° 1 min 0,000 mm 5,0 UV-I 863 W/m² 17,9 °C 23,9 °C 6,4 km/h (2 Bft)
18.08.2018 14:56 24,1 °C 67 % 1016,8 hPa 0,0 mm 4,7 km/h (1 Bft) O-NO 63 ° 1 min 0,000 mm 2,8 UV-I 863 W/m² 17,6 °C 24,1 °C 6,4 km/h (2 Bft)
18.08.2018 14:57 24,1 °C 66 % 1016,8 hPa 0,0 mm 5,6 km/h (1 Bft) N 360 ° 0 min 0,000 mm 2,6 UV-I 250 W/m² 17,3 °C 24,1 °C 12,9 km/h (3 Bft)
18.08.2018 14:58 23,9 °C 65 % 1016,8 hPa 0,0 mm 7,9 km/h (2 Bft) NO 42 ° 0 min 0,000 mm 2,5 UV-I 220 W/m² 16,9 °C 23,9 °C 16,1 km/h (3 Bft)
18.08.2018 14:59 23,7 °C 65 % 1016,8 hPa 0,0 mm 9,0 km/h (2 Bft) NO 34 ° 0 min 0,000 mm 2,4 UV-I 220 W/m² 16,7 °C 23,7 °C 12,9 km/h (3 Bft)
18.08.2018 15:00 23,4 °C 65 % 1016,8 hPa 0,0 mm 7,3 km/h (2 Bft) N-NO 19 ° 0 min 0,000 mm 2,4 UV-I 192 W/m² 16,4 °C 23,4 °C 12,9 km/h (3 Bft)
18.08.2018 15:01 23,2 °C 66 % 1016,8 hPa 0,0 mm 9,9 km/h (2 Bft) N-NW 348 ° 0 min 0,406 mm 2,6 UV-I 181 W/m² 16,5 °C 23,2 °C 16,1 km/h (3 Bft)
18.08.2018 15:02 23,0 °C 66 % 1016,7 hPa 0,0 mm 5,7 km/h (1 Bft) N-NW 336 ° 0 min 0,000 mm 2,6 UV-I 167 W/m² 16,3 °C 23,0 °C 9,7 km/h (2 Bft)
18.08.2018 15:03 22,9 °C 67 % 1016,8 hPa 0,0 mm 4,3 km/h (1 Bft) N-NO 22 ° 0 min 0,000 mm 2,7 UV-I 160 W/m² 16,4 °C 22,9 °C 4,8 km/h (1 Bft)
18.08.2018 15:04 22,8 °C 68 % 1016,8 hPa 0,0 mm 6,4 km/h (2 Bft) N 355 ° 0 min 0,000 mm 2,8 UV-I 169 W/m² 16,6 °C 22,8 °C 11,3 km/h (2 Bft)
18.08.2018 15:05 22,7 °C 67 % 1016,8 hPa 0,0 mm 5,7 km/h (1 Bft) N-NO 22 ° 0 min 0,000 mm 2,8 UV-I 176 W/m² 16,2 °C 22,7 °C 11,3 km/h (2 Bft)
18.08.2018 15:06 22,7 °C 68 % 1016,7 hPa 0,0 mm 7,2 km/h (2 Bft) N-NO 22 ° 0 min 0,000 mm 2,8 UV-I 188 W/m² 16,5 °C 22,7 °C 11,3 km/h (2 Bft)
18.08.2018 15:07 22,7 °C 69 % 1016,7 hPa 0,0 mm 4,8 km/h (1 Bft) N-NO 19 ° 1 min 0,000 mm 4,9 UV-I 714 W/m² 16,7 °C 22,7 °C 6,4 km/h (2 Bft)
18.08.2018 15:08 22,8 °C 70 % 1016,7 hPa 0,0 mm 7,6 km/h (2 Bft) N-NO 32 ° 1 min 0,000 mm 5,0 UV-I 805 W/m² 17,0 °C 22,8 °C 9,7 km/h (2 Bft)
18.08.2018 15:09 22,9 °C 67 % 1016,7 hPa 0,0 mm 2,4 km/h (1 Bft) N-NO 33 ° 1 min 0,000 mm 5,0 UV-I 805 W/m² 16,4 °C 22,9 °C 6,4 km/h (2 Bft)
18.08.2018 15:10 22,9 °C 69 % 1016,7 hPa 0,0 mm 2,2 km/h (1 Bft) N-NO 32 ° 1 min 0,000 mm 5,0 UV-I 816 W/m² 16,9 °C 22,9 °C 3,2 km/h (1 Bft)
18.08.2018 15:11 22,9 °C 69 % 1016,7 hPa 0,0 mm 1,9 km/h (1 Bft) O-NO 59 ° 1 min 0,000 mm 4,9 UV-I 807 W/m² 16,9 °C 22,9 °C 6,4 km/h (2 Bft)
18.08.2018 15:12 23,1 °C 67 % 1016,6 hPa 0,0 mm 7,6 km/h (2 Bft) O-NO 70 ° 1 min 0,000 mm 4,9 UV-I 817 W/m² 16,6 °C 23,1 °C 11,3 km/h (2 Bft)
18.08.2018 15:13 23,2 °C 66 % 1016,7 hPa 0,0 mm 6,4 km/h (2 Bft) N-NO 32 ° 1 min 0,000 mm 4,9 UV-I 817 W/m² 16,5 °C 23,2 °C 11,3 km/h (2 Bft)
18.08.2018 15:14 23,3 °C 66 % 1016,7 hPa 0,0 mm 10,9 km/h (2 Bft) O-NO 68 ° 1 min 0,000 mm 4,9 UV-I 846 W/m² 16,6 °C 23,3 °C 17,7 km/h (3 Bft)
18.08.2018 15:15 23,4 °C 66 % 1016,7 hPa 0,0 mm 4,8 km/h (1 Bft) N 5 ° 1 min 0,000 mm 4,9 UV-I 846 W/m² 16,7 °C 23,4 °C 8,0 km/h (2 Bft)
18.08.2018 15:16 23,6 °C 64 % 1016,6 hPa 0,0 mm 8,0 km/h (2 Bft) N 9 ° 1 min 0,000 mm 4,9 UV-I 851 W/m² 16,4 °C 23,6 °C 12,9 km/h (3 Bft)
18.08.2018 15:17 23,6 °C 62 % 1016,6 hPa 0,0 mm 8,9 km/h (2 Bft) NO 40 ° 1 min 0,000 mm 4,9 UV-I 851 W/m² 15,9 °C 23,6 °C 14,5 km/h (3 Bft)
18.08.2018 15:18 23,6 °C 63 % 1016,6 hPa 0,0 mm 9,6 km/h (2 Bft) O-NO 63 ° 1 min 0,000 mm 4,8 UV-I 821 W/m² 16,1 °C 23,6 °C 12,9 km/h (3 Bft)
18.08.2018 15:19 23,6 °C 65 % 1016,6 hPa 0,0 mm 6,9 km/h (2 Bft) O-NO 71 ° 1 min 0,000 mm 4,8 UV-I 802 W/m² 16,6 °C 23,6 °C 9,7 km/h (2 Bft)
18.08.2018 15:20 23,6 °C 67 % 1016,7 hPa 0,0 mm 5,2 km/h (1 Bft) N-NW 348 ° 1 min 0,000 mm 4,7 UV-I 777 W/m² 17,1 °C 23,6 °C 8,0 km/h (2 Bft)
18.08.2018 15:21 23,6 °C 63 % 1016,6 hPa 0,0 mm 0,9 km/h (0 Bft) N-NW 348 ° 1 min 0,000 mm 4,6 UV-I 761 W/m² 16,1 °C 23,6 °C 3,2 km/h (1 Bft)
18.08.2018 15:22 23,6 °C 66 % 1016,6 hPa 0,0 mm 4,6 km/h (1 Bft) N 355 ° 1 min 0,000 mm 4,5 UV-I 749 W/m² 16,9 °C 23,6 °C 9,7 km/h (2 Bft)
18.08.2018 15:23 23,7 °C 65 % 1016,6 hPa 0,0 mm 5,7 km/h (1 Bft) N-NO 23 ° 1 min 0,000 mm 3,1 UV-I 740 W/m² 16,7 °C 23,7 °C 6,4 km/h (2 Bft)
18.08.2018 15:24 23,7 °C 66 % 1016,6 hPa 0,0 mm 6,9 km/h (2 Bft) NO 38 ° 1 min 0,000 mm 3,6 UV-I 756 W/m² 17,0 °C 23,7 °C 9,7 km/h (2 Bft)
18.08.2018 15:25 23,6 °C 64 % 1016,6 hPa 0,0 mm 6,9 km/h (2 Bft) N 350 ° 1 min 0,000 mm 3,9 UV-I 731 W/m² 16,4 °C 23,6 °C 9,7 km/h (2 Bft)
18.08.2018 15:26 23,6 °C 65 % 1016,6 hPa 0,0 mm 7,3 km/h (2 Bft) NW 320 ° 1 min 0,000 mm 4,6 UV-I 731 W/m² 16,6 °C 23,6 °C 11,3 km/h (2 Bft)
18.08.2018 15:27 23,7 °C 66 % 1016,6 hPa 0,0 mm 5,7 km/h (1 Bft) N 9 ° 1 min 0,000 mm 4,5 UV-I 749 W/m² 17,0 °C 23,7 °C 12,9 km/h (3 Bft)
18.08.2018 15:28 23,6 °C 64 % 1016,6 hPa 0,0 mm 7,0 km/h (2 Bft) N-NW 345 ° 1 min 0,000 mm 4,2 UV-I 758 W/m² 16,4 °C 23,6 °C 12,9 km/h (3 Bft)
18.08.2018 15:29 23,6 °C 66 % 1016,6 hPa 0,0 mm 5,2 km/h (1 Bft) N 9 ° 1 min 0,000 mm 3,0 UV-I 758 W/m² 16,9 °C 23,6 °C 8,0 km/h (2 Bft)
18.08.2018 15:30 23,6 °C 65 % 1016,6 hPa 0,0 mm 2,7 km/h (1 Bft) N-NW 327 ° 0 min 0,000 mm 2,9 UV-I 195 W/m² 16,6 °C 23,6 °C 6,4 km/h (2 Bft)
18.08.2018 15:31 23,4 °C 65 % 1016,6 hPa 0,0 mm 7,9 km/h (2 Bft) O-NO 65 ° 0 min 0,000 mm 4,1 UV-I 195 W/m² 16,4 °C 23,4 °C 12,9 km/h (3 Bft)
18.08.2018 15:32 23,4 °C 66 % 1016,6 hPa 0,0 mm 6,0 km/h (2 Bft) NO 45 ° 0 min 0,000 mm 4,4 UV-I 195 W/m² 16,7 °C 23,4 °C 11,3 km/h (2 Bft)
18.08.2018 15:33 23,4 °C 65 % 1016,5 hPa 0,0 mm 8,9 km/h (2 Bft) N-NO 13 ° 1 min 0,000 mm 4,4 UV-I 717 W/m² 16,4 °C 23,4 °C 12,9 km/h (3 Bft)
18.08.2018 15:34 23,5 °C 64 % 1016,5 hPa 0,0 mm 7,3 km/h (2 Bft) O-NO 72 ° 1 min 0,000 mm 4,3 UV-I 707 W/m² 16,3 °C 23,5 °C 9,7 km/h (2 Bft)
18.08.2018 15:35 23,4 °C 64 % 1016,5 hPa 0,0 mm 5,5 km/h (1 Bft) N 360 ° 1 min 0,000 mm 4,4 UV-I 719 W/m² 16,2 °C 23,4 °C 8,0 km/h (2 Bft)
18.08.2018 15:36 23,4 °C 65 % 1016,5 hPa 0,0 mm 3,9 km/h (1 Bft) N-NO 26 ° 1 min 0,000 mm 4,4 UV-I 747 W/m² 16,4 °C 23,4 °C 8,0 km/h (2 Bft)
18.08.2018 15:37 23,5 °C 64 % 1016,5 hPa 0,0 mm 7,6 km/h (2 Bft) NO 53 ° 1 min 0,000 mm 4,3 UV-I 754 W/m² 16,3 °C 23,5 °C 9,7 km/h (2 Bft)
18.08.2018 15:38 23,6 °C 63 % 1016,5 hPa 0,0 mm 4,0 km/h (1 Bft) N-NW 344 ° 1 min 0,000 mm 4,2 UV-I 752 W/m² 16,1 °C 23,6 °C 6,4 km/h (2 Bft)
18.08.2018 15:39 23,8 °C 63 % 1016,5 hPa 0,0 mm 2,2 km/h (1 Bft) N-NO 15 ° 1 min 0,000 mm 4,2 UV-I 754 W/m² 16,3 °C 23,8 °C 6,4 km/h (2 Bft)
18.08.2018 15:40 23,8 °C 63 % 1016,5 hPa 0,0 mm 7,0 km/h (2 Bft) NO 43 ° 1 min 0,000 mm 4,2 UV-I 763 W/m² 16,3 °C 23,8 °C 12,9 km/h (3 Bft)
18.08.2018 15:41 23,9 °C 62 % 1016,6 hPa 0,0 mm 6,2 km/h (2 Bft) NO 42 ° 1 min 0,000 mm 4,1 UV-I 775 W/m² 16,2 °C 23,9 °C 14,5 km/h (3 Bft)
18.08.2018 15:42 23,9 °C 63 % 1016,5 hPa 0,0 mm 8,0 km/h (2 Bft) N-NO 15 ° 1 min 0,000 mm 4,0 UV-I 777 W/m² 16,4 °C 23,9 °C 14,5 km/h (3 Bft)
18.08.2018 15:43 23,9 °C 62 % 1016,6 hPa 0,0 mm 7,7 km/h (2 Bft) N-NO 23 ° 1 min 0,000 mm 3,8 UV-I 770 W/m² 16,2 °C 23,9 °C 12,9 km/h (3 Bft)
18.08.2018 15:44 23,9 °C 63 % 1016,6 hPa 0,0 mm 6,2 km/h (2 Bft) O-NO 73 ° 1 min 0,000 mm 3,0 UV-I 770 W/m² 16,4 °C 23,9 °C 11,3 km/h (2 Bft)
18.08.2018 15:45 23,8 °C 62 % 1016,6 hPa 0,0 mm 5,1 km/h (1 Bft) N-NO 32 ° 1 min 0,000 mm 2,4 UV-I 770 W/m² 16,1 °C 23,8 °C 8,0 km/h (2 Bft)
18.08.2018 15:46 23,6 °C 63 % 1016,6 hPa 0,0 mm 7,1 km/h (2 Bft) O 101 ° 1 min 0,000 mm 2,6 UV-I 770 W/m² 16,1 °C 23,6 °C 9,7 km/h (2 Bft)
18.08.2018 15:47 23,4 °C 63 % 1016,5 hPa 0,0 mm 6,5 km/h (2 Bft) NO 38 ° 1 min 0,000 mm 2,3 UV-I 770 W/m² 15,9 °C 23,4 °C 9,7 km/h (2 Bft)
18.08.2018 15:48 23,4 °C 65 % 1016,6 hPa 0,0 mm 6,3 km/h (2 Bft) O-NO 62 ° 0 min 0,000 mm 2,3 UV-I 301 W/m² 16,4 °C 23,4 °C 12,9 km/h (3 Bft)
18.08.2018 15:49 23,3 °C 63 % 1016,6 hPa 0,0 mm 9,4 km/h (2 Bft) NO 44 ° 0 min 0,000 mm 2,1 UV-I 251 W/m² 15,9 °C 23,3 °C 14,5 km/h (3 Bft)
18.08.2018 15:50 23,2 °C 64 % 1016,6 hPa 0,0 mm 7,7 km/h (2 Bft) N 10 ° 0 min 0,000 mm 2,0 UV-I 220 W/m² 16,0 °C 23,2 °C 11,3 km/h (2 Bft)
18.08.2018 15:51 23,2 °C 63 % 1016,6 hPa 0,0 mm 4,8 km/h (1 Bft) NO 39 ° 0 min 0,000 mm 2,1 UV-I 227 W/m² 15,8 °C 23,2 °C 11,3 km/h (2 Bft)
18.08.2018 15:52 23,1 °C 64 % 1016,6 hPa 0,0 mm 2,3 km/h (1 Bft) N 5 ° 0 min 0,000 mm 2,1 UV-I 221 W/m² 15,9 °C 23,1 °C 6,4 km/h (2 Bft)
18.08.2018 15:53 23,1 °C 65 % 1016,6 hPa 0,0 mm 6,4 km/h (2 Bft) N-NO 26 ° 0 min 0,000 mm 2,2 UV-I 218 W/m² 16,2 °C 23,1 °C 11,3 km/h (2 Bft)
18.08.2018 15:54 23,1 °C 65 % 1016,6 hPa 0,0 mm 7,2 km/h (2 Bft) NO 46 ° 0 min 0,000 mm 2,2 UV-I 227 W/m² 16,2 °C 23,1 °C 11,3 km/h (2 Bft)
18.08.2018 15:55 23,1 °C 65 % 1016,6 hPa 0,0 mm 3,0 km/h (1 Bft) N 360 ° 0 min 0,000 mm 2,4 UV-I 230 W/m² 16,2 °C 23,1 °C 4,8 km/h (1 Bft)
18.08.2018 15:56 23,0 °C 64 % 1016,6 hPa 0,0 mm 2,9 km/h (1 Bft) N-NO 32 ° 0 min 0,000 mm 2,4 UV-I 248 W/m² 15,8 °C 23,0 °C 4,8 km/h (1 Bft)
18.08.2018 15:57 22,9 °C 64 % 1016,6 hPa 0,0 mm 3,0 km/h (1 Bft) N-NO 31 ° 0 min 0,000 mm 2,4 UV-I 255 W/m² 15,7 °C 22,9 °C 6,4 km/h (2 Bft)
18.08.2018 15:58 23,0 °C 64 % 1016,6 hPa 0,0 mm 4,0 km/h (1 Bft) N-NO 32 ° 0 min 0,000 mm 2,6 UV-I 253 W/m² 15,8 °C 23,0 °C 6,4 km/h (2 Bft)
18.08.2018 15:59 23,0 °C 66 % 1016,6 hPa 0,0 mm 4,0 km/h (1 Bft) NW 323 ° 0 min 0,000 mm 2,8 UV-I 301 W/m² 16,3 °C 23,0 °C 6,4 km/h (2 Bft)
18.08.2018 16:00 23,1 °C 65 % 1016,5 hPa 0,0 mm 1,4 km/h (1 Bft) N 5 ° 0 min 0,000 mm 3,2 UV-I 591 W/m² 16,2 °C 23,1 °C 3,2 km/h (1 Bft)
18.08.2018 16:01 23,1 °C 65 % 1016,5 hPa 0,0 mm 4,4 km/h (1 Bft) N-NO 24 ° 0 min 0,356 mm 3,8 UV-I 591 W/m² 16,2 °C 23,1 °C 6,4 km/h (2 Bft)
18.08.2018 16:02 23,2 °C 65 % 1016,5 hPa 0,0 mm 3,9 km/h (1 Bft) NO 36 ° 1 min 0,000 mm 3,7 UV-I 691 W/m² 16,2 °C 23,2 °C 6,4 km/h (2 Bft)
18.08.2018 16:03 23,3 °C 64 % 1016,5 hPa 0,0 mm 7,2 km/h (2 Bft) N-NW 338 ° 1 min 0,000 mm 3,7 UV-I 691 W/m² 16,1 °C 23,3 °C 12,9 km/h (3 Bft)
18.08.2018 16:04 23,4 °C 64 % 1016,5 hPa 0,0 mm 6,6 km/h (2 Bft) N-NW 339 ° 1 min 0,000 mm 3,6 UV-I 675 W/m² 16,2 °C 23,4 °C 9,7 km/h (2 Bft)
18.08.2018 16:05 23,5 °C 64 % 1016,5 hPa 0,0 mm 3,6 km/h (1 Bft) N-NW 344 ° 1 min 0,000 mm 3,6 UV-I 675 W/m² 16,3 °C 23,5 °C 6,4 km/h (2 Bft)
18.08.2018 16:06 23,6 °C 64 % 1016,5 hPa 0,0 mm 3,9 km/h (1 Bft) N 10 ° 1 min 0,000 mm 3,5 UV-I 675 W/m² 16,4 °C 23,6 °C 4,8 km/h (1 Bft)
18.08.2018 16:07 23,7 °C 65 % 1016,5 hPa 0,0 mm 6,4 km/h (2 Bft) N 360 ° 1 min 0,000 mm 3,5 UV-I 673 W/m² 16,7 °C 23,7 °C 9,7 km/h (2 Bft)
18.08.2018 16:08 23,7 °C 63 % 1016,5 hPa 0,0 mm 6,2 km/h (2 Bft) N-NO 22 ° 1 min 0,000 mm 3,5 UV-I 673 W/m² 16,2 °C 23,7 °C 8,0 km/h (2 Bft)
18.08.2018 16:09 23,6 °C 63 % 1016,5 hPa 0,0 mm 5,6 km/h (1 Bft) NO 56 ° 1 min 0,000 mm 3,4 UV-I 673 W/m² 16,1 °C 23,6 °C 11,3 km/h (2 Bft)
18.08.2018 16:10 23,6 °C 62 % 1016,5 hPa 0,0 mm 4,3 km/h (1 Bft) NO 53 ° 1 min 0,000 mm 2,9 UV-I 673 W/m² 15,9 °C 23,6 °C 11,3 km/h (2 Bft)
18.08.2018 16:11 23,6 °C 64 % 1016,5 hPa 0,0 mm 4,4 km/h (1 Bft) NO 36 ° 0 min 0,000 mm 3,0 UV-I 346 W/m² 16,4 °C 23,6 °C 6,4 km/h (2 Bft)
18.08.2018 16:12 23,6 °C 63 % 1016,5 hPa 0,0 mm 5,7 km/h (1 Bft) NO 40 ° 1 min 0,000 mm 3,4 UV-I 635 W/m² 16,1 °C 23,6 °C 9,7 km/h (2 Bft)
18.08.2018 16:13 23,6 °C 63 % 1016,5 hPa 0,0 mm 2,4 km/h (1 Bft) NO 41 ° 1 min 0,000 mm 3,3 UV-I 638 W/m² 16,1 °C 23,6 °C 6,4 km/h (2 Bft)
18.08.2018 16:14 23,6 °C 62 % 1016,6 hPa 0,0 mm 7,7 km/h (2 Bft) N-NW 339 ° 1 min 0,000 mm 3,2 UV-I 615 W/m² 15,9 °C 23,6 °C 9,7 km/h (2 Bft)
18.08.2018 16:15 23,6 °C 62 % 1016,6 hPa 0,0 mm 4,8 km/h (1 Bft) N 350 ° 1 min 0,000 mm 3,5 UV-I 633 W/m² 15,9 °C 23,6 °C 8,0 km/h (2 Bft)
18.08.2018 16:16 23,4 °C 61 % 1016,5 hPa 0,0 mm 0,9 km/h (0 Bft) N 350 ° 0 min 0,000 mm 3,2 UV-I 584 W/m² 15,4 °C 23,4 °C 3,2 km/h (1 Bft)
18.08.2018 16:17 23,4 °C 63 % 1016,5 hPa 0,0 mm 3,6 km/h (1 Bft) NW 311 ° 0 min 0,000 mm 2,9 UV-I 584 W/m² 15,9 °C 23,4 °C 9,7 km/h (2 Bft)
18.08.2018 16:18 23,4 °C 64 % 1016,5 hPa 0,0 mm 5,5 km/h (1 Bft) N-NO 12 ° 0 min 0,000 mm 2,4 UV-I 584 W/m² 16,2 °C 23,4 °C 9,7 km/h (2 Bft)
18.08.2018 16:19 23,6 °C 63 % 1016,5 hPa 0,0 mm 9,1 km/h (2 Bft) NW 323 ° 0 min 0,000 mm 2,4 UV-I 148 W/m² 16,1 °C 23,6 °C 12,9 km/h (3 Bft)
18.08.2018 16:20 23,7 °C 63 % 1016,4 hPa 0,0 mm 6,2 km/h (2 Bft) O-NO 71 ° 0 min 0,000 mm 2,4 UV-I 139 W/m² 16,2 °C 23,7 °C 9,7 km/h (2 Bft)
18.08.2018 16:21 23,7 °C 62 % 1016,4 hPa 0,0 mm 6,3 km/h (2 Bft) O 82 ° 0 min 0,000 mm 2,3 UV-I 127 W/m² 16,0 °C 23,7 °C 9,7 km/h (2 Bft)
18.08.2018 16:22 23,7 °C 61 % 1016,5 hPa 0,0 mm 4,3 km/h (1 Bft) O 82 ° 0 min 0,000 mm 2,3 UV-I 125 W/m² 15,7 °C 23,7 °C 8,0 km/h (2 Bft)
18.08.2018 16:23 23,7 °C 62 % 1016,5 hPa 0,0 mm 2,8 km/h (1 Bft) O 82 ° 0 min 0,000 mm 2,3 UV-I 130 W/m² 16,0 °C 23,7 °C 4,8 km/h (1 Bft)
18.08.2018 16:24 23,6 °C 61 % 1016,5 hPa 0,0 mm 1,1 km/h (1 Bft) O 82 ° 0 min 0,000 mm 2,3 UV-I 134 W/m² 15,6 °C 23,6 °C 3,2 km/h (1 Bft)
18.08.2018 16:25 23,5 °C 62 % 1016,5 hPa 0,0 mm 4,3 km/h (1 Bft) O-NO 67 ° 0 min 0,000 mm 2,3 UV-I 135 W/m² 15,8 °C 23,5 °C 4,8 km/h (1 Bft)
18.08.2018 16:26 23,4 °C 62 % 1016,5 hPa 0,0 mm 2,3 km/h (1 Bft) O-NO 67 ° 0 min 0,000 mm 2,3 UV-I 139 W/m² 15,7 °C 23,4 °C 4,8 km/h (1 Bft)
18.08.2018 16:27 23,4 °C 62 % 1016,4 hPa 0,0 mm 0,4 km/h (0 Bft) O-NO 67 ° 0 min 0,000 mm 2,3 UV-I 144 W/m² 15,7 °C 23,4 °C 1,6 km/h (1 Bft)
18.08.2018 16:28 23,4 °C 63 % 1016,4 hPa 0,0 mm 3,0 km/h (1 Bft) NW 317 ° 0 min 0,000 mm 2,3 UV-I 148 W/m² 15,9 °C 23,4 °C 4,8 km/h (1 Bft)
18.08.2018 16:29 23,4 °C 63 % 1016,4 hPa 0,0 mm 1,4 km/h (1 Bft) N 350 ° 0 min 0,000 mm 2,2 UV-I 148 W/m² 15,9 °C 23,4 °C 3,2 km/h (1 Bft)
18.08.2018 16:30 23,6 °C 62 % 1016,4 hPa 0,0 mm 2,6 km/h (1 Bft) NO 36 ° 0 min 0,000 mm 2,2 UV-I 148 W/m² 15,9 °C 23,6 °C 6,4 km/h (2 Bft)
18.08.2018 16:31 23,7 °C 62 % 1016,5 hPa 0,0 mm 10,5 km/h (2 Bft) N-NW 329 ° 0 min 0,000 mm 2,2 UV-I 146 W/m² 16,0 °C 23,7 °C 14,5 km/h (3 Bft)
18.08.2018 16:32 23,7 °C 62 % 1016,5 hPa 0,0 mm 4,7 km/h (1 Bft) N 5 ° 0 min 0,000 mm 2,2 UV-I 148 W/m² 16,0 °C 23,7 °C 8,0 km/h (2 Bft)
18.08.2018 16:33 23,7 °C 61 % 1016,5 hPa 0,0 mm 5,4 km/h (1 Bft) N 355 ° 0 min 0,000 mm 2,2 UV-I 149 W/m² 15,7 °C 23,7 °C 8,0 km/h (2 Bft)
18.08.2018 16:34 23,7 °C 61 % 1016,5 hPa 0,0 mm 9,7 km/h (2 Bft) O-NO 69 ° 0 min 0,000 mm 2,2 UV-I 144 W/m² 15,7 °C 23,7 °C 14,5 km/h (3 Bft)
18.08.2018 16:35 23,7 °C 62 % 1016,5 hPa 0,0 mm 5,7 km/h (1 Bft) O-NO 67 ° 0 min 0,000 mm 2,1 UV-I 141 W/m² 16,0 °C 23,7 °C 8,0 km/h (2 Bft)
18.08.2018 16:36 23,7 °C 60 % 1016,5 hPa 0,0 mm 6,3 km/h (2 Bft) O-NO 57 ° 0 min 0,000 mm 2,1 UV-I 137 W/m² 15,5 °C 23,7 °C 11,3 km/h (2 Bft)
18.08.2018 16:37 23,6 °C 60 % 1016,5 hPa 0,0 mm 4,6 km/h (1 Bft) NO 55 ° 0 min 0,000 mm 2,1 UV-I 134 W/m² 15,4 °C 23,6 °C 8,0 km/h (2 Bft)
18.08.2018 16:38 23,6 °C 60 % 1016,5 hPa 0,0 mm 1,7 km/h (1 Bft) O 86 ° 0 min 0,000 mm 2,1 UV-I 137 W/m² 15,4 °C 23,6 °C 3,2 km/h (1 Bft)
18.08.2018 16:39 23,6 °C 62 % 1016,5 hPa 0,0 mm 2,7 km/h (1 Bft) O 87 ° 0 min 0,000 mm 2,1 UV-I 132 W/m² 15,9 °C 23,6 °C 4,8 km/h (1 Bft)
18.08.2018 16:40 23,6 °C 61 % 1016,5 hPa 0,0 mm 1,3 km/h (1 Bft) O-NO 74 ° 0 min 0,000 mm 2,1 UV-I 127 W/m² 15,6 °C 23,6 °C 3,2 km/h (1 Bft)
18.08.2018 16:41 23,6 °C 61 % 1016,5 hPa 0,0 mm 2,9 km/h (1 Bft) O 84 ° 0 min 0,000 mm 2,1 UV-I 127 W/m² 15,6 °C 23,6 °C 3,2 km/h (1 Bft)
18.08.2018 16:42 23,6 °C 61 % 1016,5 hPa 0,0 mm 3,0 km/h (1 Bft) N-NO 12 ° 0 min 0,000 mm 2,1 UV-I 128 W/m² 15,6 °C 23,6 °C 6,4 km/h (2 Bft)
18.08.2018 16:43 23,7 °C 61 % 1016,5 hPa 0,0 mm 2,5 km/h (1 Bft) O-NO 74 ° 0 min 0,000 mm 2,1 UV-I 132 W/m² 15,7 °C 23,7 °C 6,4 km/h (2 Bft)
18.08.2018 16:44 23,7 °C 62 % 1016,5 hPa 0,0 mm 3,4 km/h (1 Bft) O 86 ° 0 min 0,000 mm 2,1 UV-I 137 W/m² 16,0 °C 23,7 °C 4,8 km/h (1 Bft)
18.08.2018 16:45 23,7 °C 61 % 1016,5 hPa 0,0 mm 5,8 km/h (2 Bft) N 360 ° 0 min 0,000 mm 2,0 UV-I 139 W/m² 15,7 °C 23,7 °C 11,3 km/h (2 Bft)
18.08.2018 16:46 23,7 °C 61 % 1016,5 hPa 0,0 mm 7,0 km/h (2 Bft) O-NO 59 ° 0 min 0,000 mm 2,0 UV-I 171 W/m² 15,7 °C 23,7 °C 12,9 km/h (3 Bft)
18.08.2018 16:47 23,7 °C 62 % 1016,5 hPa 0,0 mm 7,0 km/h (2 Bft) N-NO 14 ° 0 min 0,000 mm 2,0 UV-I 165 W/m² 16,0 °C 23,7 °C 11,3 km/h (2 Bft)
18.08.2018 16:48 23,7 °C 61 % 1016,5 hPa 0,0 mm 7,6 km/h (2 Bft) N-NW 328 ° 0 min 0,000 mm 2,0 UV-I 165 W/m² 15,7 °C 23,7 °C 8,0 km/h (2 Bft)
18.08.2018 16:49 23,8 °C 61 % 1016,5 hPa 0,0 mm 6,0 km/h (2 Bft) N-NO 13 ° 0 min 0,000 mm 2,0 UV-I 178 W/m² 15,8 °C 23,8 °C 8,0 km/h (2 Bft)
18.08.2018 16:50 23,8 °C 60 % 1016,4 hPa 0,0 mm 5,8 km/h (2 Bft) NO 46 ° 0 min 0,000 mm 2,0 UV-I 165 W/m² 15,6 °C 23,8 °C 11,3 km/h (2 Bft)
18.08.2018 16:51 23,8 °C 61 % 1016,4 hPa 0,0 mm 4,6 km/h (1 Bft) N-NO 16 ° 0 min 0,000 mm 1,9 UV-I 163 W/m² 15,8 °C 23,8 °C 9,7 km/h (2 Bft)
18.08.2018 16:52 23,7 °C 61 % 1016,5 hPa 0,0 mm 3,9 km/h (1 Bft) N-NW 333 ° 0 min 0,000 mm 1,9 UV-I 158 W/m² 15,7 °C 23,7 °C 6,4 km/h (2 Bft)
18.08.2018 16:53 23,7 °C 62 % 1016,5 hPa 0,0 mm 9,5 km/h (2 Bft) N 360 ° 0 min 0,000 mm 1,8 UV-I 162 W/m² 16,0 °C 23,7 °C 12,9 km/h (3 Bft)
18.08.2018 16:54 23,7 °C 60 % 1016,5 hPa 0,0 mm 6,6 km/h (2 Bft) NW 311 ° 0 min 0,000 mm 1,8 UV-I 153 W/m² 15,5 °C 23,7 °C 12,9 km/h (3 Bft)
18.08.2018 16:55 23,7 °C 60 % 1016,5 hPa 0,0 mm 1,9 km/h (1 Bft) N-NW 331 ° 0 min 0,000 mm 1,7 UV-I 156 W/m² 15,5 °C 23,7 °C 3,2 km/h (1 Bft)
18.08.2018 16:56 23,6 °C 61 % 1016,5 hPa 0,0 mm 1,9 km/h (1 Bft) N-NW 330 ° 0 min 0,000 mm 1,7 UV-I 156 W/m² 15,6 °C 23,6 °C 4,8 km/h (1 Bft)
18.08.2018 16:57 23,5 °C 61 % 1016,6 hPa 0,0 mm 5,4 km/h (1 Bft) N 360 ° 0 min 0,000 mm 1,7 UV-I 167 W/m² 15,5 °C 23,5 °C 8,0 km/h (2 Bft)
18.08.2018 16:58 23,4 °C 62 % 1016,5 hPa 0,0 mm 6,7 km/h (2 Bft) NW 321 ° 0 min 0,000 mm 1,7 UV-I 176 W/m² 15,7 °C 23,4 °C 8,0 km/h (2 Bft)
18.08.2018 16:59 23,4 °C 61 % 1016,5 hPa 0,0 mm 6,2 km/h (2 Bft) W-NW 288 ° 0 min 0,000 mm 1,7 UV-I 185 W/m² 15,4 °C 23,4 °C 9,7 km/h (2 Bft)
18.08.2018 17:00 23,4 °C 61 % 1016,5 hPa 0,0 mm 4,6 km/h (1 Bft) NW 326 ° 0 min 0,000 mm 1,7 UV-I 188 W/m² 15,4 °C 23,4 °C 6,4 km/h (2 Bft)
18.08.2018 17:01 23,4 °C 62 % 1016,5 hPa 0,0 mm 1,4 km/h (1 Bft) N-NW 338 ° 0 min 0,203 mm 1,7 UV-I 190 W/m² 15,7 °C 23,4 °C 1,6 km/h (1 Bft)
18.08.2018 17:02 23,5 °C 62 % 1016,5 hPa 0,0 mm 3,7 km/h (1 Bft) N 11 ° 0 min 0,000 mm 1,7 UV-I 190 W/m² 15,8 °C 23,5 °C 6,4 km/h (2 Bft)
18.08.2018 17:03 23,6 °C 61 % 1016,4 hPa 0,0 mm 4,3 km/h (1 Bft) N-NW 340 ° 0 min 0,000 mm 1,6 UV-I 190 W/m² 15,6 °C 23,6 °C 4,8 km/h (1 Bft)
18.08.2018 17:04 23,7 °C 62 % 1016,5 hPa 0,0 mm 5,5 km/h (1 Bft) NO 35 ° 0 min 0,000 mm 1,6 UV-I 178 W/m² 16,0 °C 23,7 °C 9,7 km/h (2 Bft)
18.08.2018 17:05 23,8 °C 61 % 1016,5 hPa 0,0 mm 4,8 km/h (1 Bft) NO 36 ° 0 min 0,000 mm 1,6 UV-I 171 W/m² 15,8 °C 23,8 °C 6,4 km/h (2 Bft)
18.08.2018 17:06 23,8 °C 60 % 1016,5 hPa 0,0 mm 4,5 km/h (1 Bft) N-NO 25 ° 0 min 0,000 mm 1,5 UV-I 162 W/m² 15,6 °C 23,8 °C 6,4 km/h (2 Bft)
18.08.2018 17:07 23,8 °C 60 % 1016,5 hPa 0,0 mm 7,3 km/h (2 Bft) NO 45 ° 0 min 0,000 mm 1,5 UV-I 160 W/m² 15,6 °C 23,8 °C 14,5 km/h (3 Bft)
18.08.2018 17:08 23,8 °C 59 % 1016,5 hPa 0,0 mm 6,4 km/h (2 Bft) N-NO 13 ° 0 min 0,000 mm 1,5 UV-I 160 W/m² 15,3 °C 23,8 °C 11,3 km/h (2 Bft)
18.08.2018 17:09 23,8 °C 61 % 1016,5 hPa 0,0 mm 7,0 km/h (2 Bft) N-NO 21 ° 0 min 0,000 mm 1,5 UV-I 153 W/m² 15,8 °C 23,8 °C 12,9 km/h (3 Bft)
18.08.2018 17:10 23,8 °C 60 % 1016,6 hPa 0,0 mm 3,6 km/h (1 Bft) N 355 ° 0 min 0,000 mm 1,5 UV-I 141 W/m² 15,6 °C 23,8 °C 8,0 km/h (2 Bft)
18.08.2018 17:11 23,8 °C 60 % 1016,5 hPa 0,0 mm 5,2 km/h (1 Bft) N 355 ° 0 min 0,000 mm 1,5 UV-I 146 W/m² 15,6 °C 23,8 °C 8,0 km/h (2 Bft)
18.08.2018 17:12 23,8 °C 62 % 1016,5 hPa 0,0 mm 2,5 km/h (1 Bft) NO 40 ° 0 min 0,000 mm 1,5 UV-I 148 W/m² 16,1 °C 23,8 °C 4,8 km/h (1 Bft)
18.08.2018 17:13 23,7 °C 60 % 1016,5 hPa 0,0 mm 2,7 km/h (1 Bft) NO 35 ° 0 min 0,000 mm 1,6 UV-I 155 W/m² 15,5 °C 23,7 °C 6,4 km/h (2 Bft)
18.08.2018 17:14 23,7 °C 59 % 1016,5 hPa 0,0 mm 4,0 km/h (1 Bft) N 355 ° 0 min 0,000 mm 1,6 UV-I 142 W/m² 15,2 °C 23,7 °C 4,8 km/h (1 Bft)
18.08.2018 17:15 23,7 °C 61 % 1016,5 hPa 0,0 mm 8,1 km/h (2 Bft) N-NO 18 ° 0 min 0,000 mm 1,6 UV-I 130 W/m² 15,7 °C 23,7 °C 14,5 km/h (3 Bft)
18.08.2018 17:16 23,7 °C 60 % 1016,5 hPa 0,0 mm 9,2 km/h (2 Bft) N 360 ° 0 min 0,000 mm 1,5 UV-I 109 W/m² 15,5 °C 23,7 °C 12,9 km/h (3 Bft)
18.08.2018 17:17 23,7 °C 61 % 1016,5 hPa 0,0 mm 3,8 km/h (1 Bft) N 360 ° 0 min 0,000 mm 1,5 UV-I 97 W/m² 15,7 °C 23,7 °C 6,4 km/h (2 Bft)
18.08.2018 17:18 23,7 °C 61 % 1016,5 hPa 0,0 mm 7,1 km/h (2 Bft) N 355 ° 0 min 0,000 mm 1,5 UV-I 93 W/m² 15,7 °C 23,7 °C 12,9 km/h (3 Bft)
18.08.2018 17:19 23,7 °C 59 % 1016,6 hPa 0,0 mm 2,2 km/h (1 Bft) N 360 ° 0 min 0,000 mm 1,5 UV-I 142 W/m² 15,2 °C 23,7 °C 4,8 km/h (1 Bft)
18.08.2018 17:20 23,6 °C 60 % 1016,5 hPa 0,0 mm 2,5 km/h (1 Bft) N 360 ° 0 min 0,000 mm 1,6 UV-I 155 W/m² 15,4 °C 23,6 °C 6,4 km/h (2 Bft)
18.08.2018 17:21 23,6 °C 61 % 1016,5 hPa 0,0 mm 8,6 km/h (2 Bft) N-NO 20 ° 0 min 0,000 mm 1,5 UV-I 121 W/m² 15,6 °C 23,6 °C 12,9 km/h (3 Bft)
18.08.2018 17:22 23,6 °C 61 % 1016,5 hPa 0,0 mm 6,7 km/h (2 Bft) NW 309 ° 0 min 0,000 mm 1,5 UV-I 95 W/m² 15,6 °C 23,6 °C 12,9 km/h (3 Bft)
18.08.2018 17:23 23,6 °C 61 % 1016,5 hPa 0,0 mm 9,6 km/h (2 Bft) N-NW 338 ° 0 min 0,000 mm 1,5 UV-I 95 W/m² 15,6 °C 23,6 °C 16,1 km/h (3 Bft)
18.08.2018 17:24 23,6 °C 60 % 1016,5 hPa 0,0 mm 5,0 km/h (1 Bft) NW 312 ° 0 min 0,000 mm 1,5 UV-I 93 W/m² 15,4 °C 23,6 °C 8,0 km/h (2 Bft)
18.08.2018 17:25 23,5 °C 63 % 1016,5 hPa 0,0 mm 4,9 km/h (1 Bft) N-NO 27 ° 0 min 0,000 mm 1,5 UV-I 91 W/m² 16,0 °C 23,5 °C 11,3 km/h (2 Bft)
18.08.2018 17:26 23,4 °C 61 % 1016,5 hPa 0,0 mm 10,3 km/h (2 Bft) N 360 ° 0 min 0,000 mm 1,5 UV-I 90 W/m² 15,4 °C 23,4 °C 12,9 km/h (3 Bft)
18.08.2018 17:27 23,4 °C 61 % 1016,5 hPa 0,0 mm 3,7 km/h (1 Bft) N-NW 343 ° 0 min 0,000 mm 1,5 UV-I 86 W/m² 15,4 °C 23,4 °C 4,8 km/h (1 Bft)
18.08.2018 17:28 23,4 °C 61 % 1016,5 hPa 0,0 mm 1,7 km/h (1 Bft) N-NW 343 ° 0 min 0,000 mm 1,5 UV-I 86 W/m² 15,4 °C 23,4 °C 4,8 km/h (1 Bft)
18.08.2018 17:29 23,5 °C 62 % 1016,5 hPa 0,0 mm 2,0 km/h (1 Bft) N 5 ° 0 min 0,000 mm 1,5 UV-I 88 W/m² 15,8 °C 23,5 °C 3,2 km/h (1 Bft)
18.08.2018 17:30 23,6 °C 62 % 1016,5 hPa 0,0 mm 6,5 km/h (2 Bft) N-NO 32 ° 0 min 0,000 mm 1,5 UV-I 90 W/m² 15,9 °C 23,6 °C 11,3 km/h (2 Bft)
18.08.2018 17:31 23,6 °C 61 % 1016,5 hPa 0,0 mm 3,9 km/h (1 Bft) N-NO 28 ° 0 min 0,000 mm 1,5 UV-I 93 W/m² 15,6 °C 23,6 °C 8,0 km/h (2 Bft)
18.08.2018 17:32 23,5 °C 62 % 1016,5 hPa 0,0 mm 3,6 km/h (1 Bft) NW 319 ° 0 min 0,000 mm 1,5 UV-I 98 W/m² 15,8 °C 23,5 °C 8,0 km/h (2 Bft)
18.08.2018 17:33 23,6 °C 62 % 1016,5 hPa 0,0 mm 8,4 km/h (2 Bft) NW 309 ° 0 min 0,000 mm 1,5 UV-I 109 W/m² 15,9 °C 23,6 °C 12,9 km/h (3 Bft)
18.08.2018 17:34 23,6 °C 63 % 1016,5 hPa 0,0 mm 5,5 km/h (1 Bft) NW 316 ° 0 min 0,000 mm 1,5 UV-I 116 W/m² 16,1 °C 23,6 °C 8,0 km/h (2 Bft)
18.08.2018 17:35 23,6 °C 61 % 1016,5 hPa 0,0 mm 3,2 km/h (1 Bft) N 360 ° 0 min 0,000 mm 1,4 UV-I 121 W/m² 15,6 °C 23,6 °C 4,8 km/h (1 Bft)
18.08.2018 17:36 23,6 °C 62 % 1016,5 hPa 0,0 mm 5,4 km/h (1 Bft) N-NW 333 ° 0 min 0,000 mm 1,4 UV-I 125 W/m² 15,9 °C 23,6 °C 8,0 km/h (2 Bft)
18.08.2018 17:37 23,7 °C 62 % 1016,5 hPa 0,0 mm 3,6 km/h (1 Bft) O-NO 76 ° 0 min 0,000 mm 1,4 UV-I 127 W/m² 16,0 °C 23,7 °C 6,4 km/h (2 Bft)
18.08.2018 17:38 23,7 °C 60 % 1016,5 hPa 0,0 mm 2,9 km/h (1 Bft) O-NO 71 ° 0 min 0,000 mm 1,4 UV-I 127 W/m² 15,5 °C 23,7 °C 6,4 km/h (2 Bft)
18.08.2018 17:39 23,6 °C 61 % 1016,5 hPa 0,0 mm 1,9 km/h (1 Bft) O-NO 73 ° 0 min 0,000 mm 1,3 UV-I 132 W/m² 15,6 °C 23,6 °C 4,8 km/h (1 Bft)
18.08.2018 17:40 23,6 °C 61 % 1016,4 hPa 0,0 mm 3,8 km/h (1 Bft) O 89 ° 0 min 0,000 mm 1,3 UV-I 135 W/m² 15,6 °C 23,6 °C 6,4 km/h (2 Bft)
18.08.2018 17:41 23,6 °C 61 % 1016,5 hPa 0,0 mm 2,9 km/h (1 Bft) NW 316 ° 0 min 0,000 mm 1,3 UV-I 141 W/m² 15,6 °C 23,6 °C 6,4 km/h (2 Bft)
18.08.2018 17:42 23,6 °C 62 % 1016,5 hPa 0,0 mm 1,6 km/h (1 Bft) N-NO 20 ° 0 min 0,000 mm 1,3 UV-I 144 W/m² 15,9 °C 23,6 °C 6,4 km/h (2 Bft)
18.08.2018 17:43 23,7 °C 61 % 1016,5 hPa 0,0 mm 8,2 km/h (2 Bft) N-NW 337 ° 0 min 0,000 mm 1,3 UV-I 144 W/m² 15,7 °C 23,7 °C 11,3 km/h (2 Bft)
18.08.2018 17:44 23,7 °C 61 % 1016,5 hPa 0,0 mm 7,9 km/h (2 Bft) N-NW 345 ° 0 min 0,000 mm 1,3 UV-I 142 W/m² 15,7 °C 23,7 °C 12,9 km/h (3 Bft)
18.08.2018 17:45 23,8 °C 62 % 1016,5 hPa 0,0 mm 6,1 km/h (2 Bft) N 360 ° 0 min 0,000 mm 1,3 UV-I 142 W/m² 16,1 °C 23,8 °C 8,0 km/h (2 Bft)
18.08.2018 17:46 23,8 °C 63 % 1016,5 hPa 0,0 mm 7,7 km/h (2 Bft) N-NW 344 ° 0 min 0,000 mm 1,3 UV-I 144 W/m² 16,3 °C 23,8 °C 11,3 km/h (2 Bft)
18.08.2018 17:47 23,8 °C 61 % 1016,5 hPa 0,0 mm 7,3 km/h (2 Bft) N-NO 16 ° 0 min 0,000 mm 1,3 UV-I 144 W/m² 15,8 °C 23,8 °C 8,0 km/h (2 Bft)
18.08.2018 17:48 23,8 °C 62 % 1016,5 hPa 0,0 mm 4,2 km/h (1 Bft) N-NO 18 ° 0 min 0,000 mm 1,3 UV-I 144 W/m² 16,1 °C 23,8 °C 6,4 km/h (2 Bft)
18.08.2018 17:49 23,7 °C 60 % 1016,5 hPa 0,0 mm 4,7 km/h (1 Bft) NO 36 ° 0 min 0,000 mm 1,3 UV-I 141 W/m² 15,5 °C 23,7 °C 6,4 km/h (2 Bft)
18.08.2018 17:50 23,7 °C 60 % 1016,5 hPa 0,0 mm 2,3 km/h (1 Bft) NO 42 ° 0 min 0,000 mm 1,3 UV-I 134 W/m² 15,5 °C 23,7 °C 4,8 km/h (1 Bft)
18.08.2018 17:51 23,7 °C 61 % 1016,4 hPa 0,0 mm 2,5 km/h (1 Bft) N-NW 344 ° 0 min 0,000 mm 1,3 UV-I 118 W/m² 15,7 °C 23,7 °C 4,8 km/h (1 Bft)
18.08.2018 17:52 23,7 °C 60 % 1016,4 hPa 0,0 mm 3,1 km/h (1 Bft) N 5 ° 0 min 0,000 mm 1,3 UV-I 113 W/m² 15,5 °C 23,7 °C 4,8 km/h (1 Bft)
18.08.2018 17:53 23,7 °C 60 % 1016,5 hPa 0,0 mm 3,1 km/h (1 Bft) N-NO 13 ° 0 min 0,000 mm 1,3 UV-I 109 W/m² 15,5 °C 23,7 °C 4,8 km/h (1 Bft)
18.08.2018 17:54 23,7 °C 60 % 1016,4 hPa 0,0 mm 4,9 km/h (1 Bft) NO 42 ° 0 min 0,000 mm 1,3 UV-I 109 W/m² 15,5 °C 23,7 °C 8,0 km/h (2 Bft)
18.08.2018 17:55 23,7 °C 60 % 1016,5 hPa 0,0 mm 2,9 km/h (1 Bft) NO 43 ° 0 min 0,000 mm 1,2 UV-I 104 W/m² 15,5 °C 23,7 °C 4,8 km/h (1 Bft)
18.08.2018 17:56 23,7 °C 60 % 1016,5 hPa 0,0 mm 3,0 km/h (1 Bft) NO 43 ° 0 min 0,000 mm 1,2 UV-I 98 W/m² 15,5 °C 23,7 °C 4,8 km/h (1 Bft)
18.08.2018 17:57 23,6 °C 60 % 1016,5 hPa 0,0 mm 3,2 km/h (1 Bft) NO 54 ° 0 min 0,000 mm 1,2 UV-I 97 W/m² 15,4 °C 23,6 °C 4,8 km/h (1 Bft)
18.08.2018 17:58 23,6 °C 61 % 1016,5 hPa 0,0 mm 4,1 km/h (1 Bft) NO 34 ° 0 min 0,000 mm 1,2 UV-I 97 W/m² 15,6 °C 23,6 °C 6,4 km/h (2 Bft)
18.08.2018 17:59 23,7 °C 61 % 1016,5 hPa 0,0 mm 3,1 km/h (1 Bft) N-NO 12 ° 0 min 0,000 mm 1,2 UV-I 98 W/m² 15,7 °C 23,7 °C 8,0 km/h (2 Bft)
18.08.2018 18:00 23,7 °C 59 % 1016,5 hPa 0,0 mm 0,9 km/h (0 Bft) W-NW 293 ° 0 min 0,000 mm 1,2 UV-I 102 W/m² 15,2 °C 23,7 °C 3,2 km/h (1 Bft)
18.08.2018 18:01 23,6 °C 60 % 1016,5 hPa 0,0 mm 3,3 km/h (1 Bft) W 269 ° 0 min 0,102 mm 1,2 UV-I 104 W/m² 15,4 °C 23,6 °C 8,0 km/h (2 Bft)
18.08.2018 18:02 23,6 °C 62 % 1016,5 hPa 0,0 mm 2,1 km/h (1 Bft) NW 320 ° 0 min 0,000 mm 1,2 UV-I 102 W/m² 15,9 °C 23,6 °C 6,4 km/h (2 Bft)
18.08.2018 18:03 23,7 °C 61 % 1016,6 hPa 0,0 mm 1,4 km/h (1 Bft) N-NW 348 ° 0 min 0,000 mm 1,2 UV-I 98 W/m² 15,7 °C 23,7 °C 4,8 km/h (1 Bft)
18.08.2018 18:04 23,7 °C 61 % 1016,5 hPa 0,0 mm 2,1 km/h (1 Bft) N-NO 17 ° 0 min 0,000 mm 1,1 UV-I 98 W/m² 15,7 °C 23,7 °C 4,8 km/h (1 Bft)
18.08.2018 18:05 23,7 °C 61 % 1016,6 hPa 0,0 mm 6,4 km/h (2 Bft) N-NO 30 ° 0 min 0,000 mm 1,1 UV-I 95 W/m² 15,7 °C 23,7 °C 9,7 km/h (2 Bft)
18.08.2018 18:06 23,7 °C 61 % 1016,5 hPa 0,0 mm 5,6 km/h (1 Bft) N 355 ° 0 min 0,000 mm 1,1 UV-I 91 W/m² 15,7 °C 23,7 °C 8,0 km/h (2 Bft)
18.08.2018 18:07 23,8 °C 60 % 1016,5 hPa 0,0 mm 6,1 km/h (2 Bft) N-NO 12 ° 0 min 0,000 mm 1,1 UV-I 86 W/m² 15,6 °C 23,8 °C 9,7 km/h (2 Bft)
18.08.2018 18:08 23,7 °C 60 % 1016,5 hPa 0,0 mm 5,3 km/h (1 Bft) N-NO 23 ° 0 min 0,000 mm 1,1 UV-I 79 W/m² 15,5 °C 23,7 °C 8,0 km/h (2 Bft)
18.08.2018 18:09 23,7 °C 60 % 1016,5 hPa 0,0 mm 4,4 km/h (1 Bft) N 5 ° 0 min 0,000 mm 1,0 UV-I 77 W/m² 15,5 °C 23,7 °C 6,4 km/h (2 Bft)
18.08.2018 18:10 23,7 °C 61 % 1016,5 hPa 0,0 mm 3,5 km/h (1 Bft) N-NO 21 ° 0 min 0,000 mm 1,0 UV-I 76 W/m² 15,7 °C 23,7 °C 6,4 km/h (2 Bft)
18.08.2018 18:11 23,7 °C 61 % 1016,5 hPa 0,0 mm 0,3 km/h (0 Bft) N-NO 27 ° 0 min 0,000 mm 1,0 UV-I 74 W/m² 15,7 °C 23,7 °C 3,2 km/h (1 Bft)
18.08.2018 18:12 23,8 °C 61 % 1016,5 hPa 0,0 mm 5,0 km/h (1 Bft) N-NO 31 ° 0 min 0,000 mm 1,0 UV-I 74 W/m² 15,8 °C 23,8 °C 8,0 km/h (2 Bft)
18.08.2018 18:13 23,8 °C 61 % 1016,5 hPa 0,0 mm 3,2 km/h (1 Bft) N 355 ° 0 min 0,000 mm 1,0 UV-I 76 W/m² 15,8 °C 23,8 °C 6,4 km/h (2 Bft)
18.08.2018 18:14 23,8 °C 61 % 1016,6 hPa 0,0 mm 5,6 km/h (1 Bft) N-NW 346 ° 0 min 0,000 mm 1,0 UV-I 72 W/m² 15,8 °C 23,8 °C 9,7 km/h (2 Bft)
18.08.2018 18:15 23,8 °C 60 % 1016,5 hPa 0,0 mm 4,8 km/h (1 Bft) N 10 ° 0 min 0,000 mm 1,0 UV-I 72 W/m² 15,6 °C 23,8 °C 8,0 km/h (2 Bft)
18.08.2018 18:16 23,8 °C 59 % 1016,5 hPa 0,0 mm 5,9 km/h (2 Bft) N-NW 340 ° 0 min 0,000 mm 1,0 UV-I 72 W/m² 15,3 °C 23,8 °C 8,0 km/h (2 Bft)
18.08.2018 18:17 23,7 °C 60 % 1016,6 hPa 0,0 mm 4,3 km/h (1 Bft) N-NW 327 ° 0 min 0,000 mm 1,0 UV-I 72 W/m² 15,5 °C 23,7 °C 6,4 km/h (2 Bft)
18.08.2018 18:18 23,6 °C 59 % 1016,5 hPa 0,0 mm 5,4 km/h (1 Bft) N-NW 344 ° 0 min 0,000 mm 1,0 UV-I 72 W/m² 15,1 °C 23,6 °C 6,4 km/h (2 Bft)
18.08.2018 18:19 23,6 °C 61 % 1016,5 hPa 0,0 mm 0,6 km/h (0 Bft) N-NW 344 ° 0 min 0,000 mm 0,9 UV-I 74 W/m² 15,6 °C 23,6 °C 3,2 km/h (1 Bft)
18.08.2018 18:20 23,6 °C 61 % 1016,6 hPa 0,0 mm 5,3 km/h (1 Bft) N-NO 30 ° 0 min 0,000 mm 0,9 UV-I 74 W/m² 15,6 °C 23,6 °C 8,0 km/h (2 Bft)
18.08.2018 18:21 23,6 °C 59 % 1016,6 hPa 0,0 mm 1,5 km/h (1 Bft) N-NO 30 ° 0 min 0,000 mm 0,9 UV-I 76 W/m² 15,1 °C 23,6 °C 4,8 km/h (1 Bft)
18.08.2018 18:22 23,5 °C 59 % 1016,5 hPa 0,0 mm 4,5 km/h (1 Bft) NO 42 ° 0 min 0,000 mm 0,9 UV-I 76 W/m² 15,0 °C 23,5 °C 8,0 km/h (2 Bft)
18.08.2018 18:23 23,5 °C 60 % 1016,5 hPa 0,0 mm 4,4 km/h (1 Bft) O-NO 58 ° 0 min 0,000 mm 0,9 UV-I 76 W/m² 15,3 °C 23,5 °C 4,8 km/h (1 Bft)
18.08.2018 18:24 23,4 °C 60 % 1016,5 hPa 0,0 mm 4,2 km/h (1 Bft) N-NW 338 ° 0 min 0,000 mm 0,9 UV-I 76 W/m² 15,2 °C 23,4 °C 6,4 km/h (2 Bft)
18.08.2018 18:25 23,5 °C 61 % 1016,5 hPa 0,0 mm 4,3 km/h (1 Bft) NW 312 ° 0 min 0,000 mm 0,9 UV-I 76 W/m² 15,5 °C 23,5 °C 6,4 km/h (2 Bft)
18.08.2018 18:26 23,4 °C 61 % 1016,5 hPa 0,0 mm 2,5 km/h (1 Bft) N-NW 334 ° 0 min 0,000 mm 0,9 UV-I 76 W/m² 15,4 °C 23,4 °C 4,8 km/h (1 Bft)
18.08.2018 18:27 23,5 °C 62 % 1016,5 hPa 0,0 mm 5,1 km/h (1 Bft) N 5 ° 0 min 0,000 mm 0,9 UV-I 76 W/m² 15,8 °C 23,5 °C 6,4 km/h (2 Bft)
18.08.2018 18:28 23,5 °C 61 % 1016,5 hPa 0,0 mm 4,1 km/h (1 Bft) NO 37 ° 0 min 0,000 mm 0,9 UV-I 76 W/m² 15,5 °C 23,5 °C 6,4 km/h (2 Bft)
18.08.2018 18:29 23,5 °C 61 % 1016,5 hPa 0,0 mm 1,3 km/h (1 Bft) NO 37 ° 0 min 0,000 mm 0,9 UV-I 76 W/m² 15,5 °C 23,5 °C 4,8 km/h (1 Bft)
18.08.2018 18:30 23,6 °C 61 % 1016,5 hPa 0,0 mm 1,9 km/h (1 Bft) NO 37 ° 0 min 0,000 mm 0,9 UV-I 72 W/m² 15,6 °C 23,6 °C 4,8 km/h (1 Bft)
18.08.2018 18:31 23,6 °C 60 % 1016,5 hPa 0,0 mm 1,5 km/h (1 Bft) NO 37 ° 0 min 0,000 mm 0,8 UV-I 69 W/m² 15,4 °C 23,6 °C 4,8 km/h (1 Bft)
18.08.2018 18:32 23,6 °C 61 % 1016,5 hPa 0,0 mm 2,4 km/h (1 Bft) NO 46 ° 0 min 0,000 mm 0,8 UV-I 62 W/m² 15,6 °C 23,6 °C 6,4 km/h (2 Bft)
18.08.2018 18:33 23,6 °C 60 % 1016,5 hPa 0,0 mm 0,8 km/h (0 Bft) NO 46 ° 0 min 0,000 mm 0,8 UV-I 60 W/m² 15,4 °C 23,6 °C 3,2 km/h (1 Bft)
18.08.2018 18:34 23,6 °C 60 % 1016,4 hPa 0,0 mm 4,7 km/h (1 Bft) N 360 ° 0 min 0,000 mm 0,8 UV-I 58 W/m² 15,4 °C 23,6 °C 8,0 km/h (2 Bft)
18.08.2018 18:35 23,6 °C 61 % 1016,5 hPa 0,0 mm 3,8 km/h (1 Bft) NO 34 ° 0 min 0,000 mm 0,8 UV-I 56 W/m² 15,6 °C 23,6 °C 6,4 km/h (2 Bft)
18.08.2018 18:36 23,6 °C 60 % 1016,5 hPa 0,0 mm 3,5 km/h (1 Bft) NO 38 ° 0 min 0,000 mm 0,8 UV-I 56 W/m² 15,4 °C 23,6 °C 6,4 km/h (2 Bft)
18.08.2018 18:37 23,6 °C 60 % 1016,5 hPa 0,0 mm 6,0 km/h (2 Bft) O-NO 60 ° 0 min 0,000 mm 0,8 UV-I 54 W/m² 15,4 °C 23,6 °C 9,7 km/h (2 Bft)
18.08.2018 18:38 23,6 °C 60 % 1016,4 hPa 0,0 mm 1,7 km/h (1 Bft) NO 40 ° 0 min 0,000 mm 0,0 UV-I 54 W/m² 15,4 °C 23,6 °C 4,8 km/h (1 Bft)
18.08.2018 18:39 23,5 °C 60 % 1016,4 hPa 0,0 mm 1,3 km/h (1 Bft) NO 43 ° 0 min 0,000 mm 0,0 UV-I 53 W/m² 15,3 °C 23,5 °C 4,8 km/h (1 Bft)
18.08.2018 18:40 23,4 °C 60 % 1016,4 hPa 0,0 mm 0,6 km/h (0 Bft) NO 43 ° 0 min 0,000 mm 0,0 UV-I 53 W/m² 15,2 °C 23,4 °C 1,6 km/h (1 Bft)
18.08.2018 18:41 23,4 °C 61 % 1016,4 hPa 0,0 mm 2,1 km/h (1 Bft) NO 44 ° 0 min 0,000 mm 0,0 UV-I 51 W/m² 15,4 °C 23,4 °C 4,8 km/h (1 Bft)
18.08.2018 18:42 23,4 °C 60 % 1016,4 hPa 0,0 mm 0,4 km/h (0 Bft) NO 44 ° 0 min 0,000 mm 0,0 UV-I 51 W/m² 15,2 °C 23,4 °C 3,2 km/h (1 Bft)
18.08.2018 18:43 23,4 °C 61 % 1016,4 hPa 0,0 mm 0,8 km/h (0 Bft) NO 44 ° 0 min 0,000 mm 0,0 UV-I 47 W/m² 15,4 °C 23,4 °C 3,2 km/h (1 Bft)
18.08.2018 18:44 23,3 °C 61 % 1016,5 hPa 0,0 mm 3,4 km/h (1 Bft) NO 49 ° 0 min 0,000 mm 0,0 UV-I 47 W/m² 15,3 °C 23,3 °C 6,4 km/h (2 Bft)
18.08.2018 18:45 23,3 °C 60 % 1016,4 hPa 0,0 mm 4,3 km/h (1 Bft) NO 43 ° 0 min 0,000 mm 0,0 UV-I 49 W/m² 15,1 °C 23,3 °C 9,7 km/h (2 Bft)
18.08.2018 18:46 23,3 °C 61 % 1016,4 hPa 0,0 mm 2,3 km/h (1 Bft) NO 40 ° 0 min 0,000 mm 0,0 UV-I 54 W/m² 15,3 °C 23,3 °C 3,2 km/h (1 Bft)
18.08.2018 18:47 23,2 °C 60 % 1016,5 hPa 0,0 mm 0,1 km/h (0 Bft) NO 53 ° 0 min 0,000 mm 0,0 UV-I 54 W/m² 15,0 °C 23,2 °C 1,6 km/h (1 Bft)
18.08.2018 18:48 23,2 °C 61 % 1016,5 hPa 0,0 mm 1,1 km/h (1 Bft) NO 53 ° 0 min 0,000 mm 0,0 UV-I 54 W/m² 15,3 °C 23,2 °C 3,2 km/h (1 Bft)
18.08.2018 18:49 23,2 °C 60 % 1016,5 hPa 0,0 mm 2,3 km/h (1 Bft) O-NO 71 ° 0 min 0,000 mm 0,0 UV-I 54 W/m² 15,0 °C 23,2 °C 4,8 km/h (1 Bft)
18.08.2018 18:50 23,2 °C 61 % 1016,5 hPa 0,0 mm 4,1 km/h (1 Bft) N-NW 346 ° 0 min 0,000 mm 0,0 UV-I 54 W/m² 15,3 °C 23,2 °C 8,0 km/h (2 Bft)
18.08.2018 18:51 23,2 °C 60 % 1016,5 hPa 0,0 mm 3,1 km/h (1 Bft) N-NW 336 ° 0 min 0,000 mm 0,0 UV-I 49 W/m² 15,0 °C 23,2 °C 8,0 km/h (2 Bft)
18.08.2018 18:52 23,2 °C 61 % 1016,5 hPa 0,0 mm 0,0 km/h (0 Bft) N-NW 336 ° 0 min 0,000 mm 0,0 UV-I 51 W/m² 15,3 °C 23,2 °C 0,0 km/h (0 Bft)
18.08.2018 18:53 23,2 °C 61 % 1016,5 hPa 0,0 mm 1,4 km/h (1 Bft) N-NO 17 ° 0 min 0,000 mm 0,0 UV-I 49 W/m² 15,3 °C 23,2 °C 3,2 km/h (1 Bft)
18.08.2018 18:54 23,2 °C 60 % 1016,5 hPa 0,0 mm 0,7 km/h (0 Bft) N-NO 17 ° 0 min 0,000 mm 0,0 UV-I 46 W/m² 15,0 °C 23,2 °C 3,2 km/h (1 Bft)
18.08.2018 18:55 23,2 °C 60 % 1016,5 hPa 0,0 mm 0,1 km/h (0 Bft) NO 34 ° 0 min 0,000 mm 0,0 UV-I 49 W/m² 15,0 °C 23,2 °C 1,6 km/h (1 Bft)
18.08.2018 18:56 23,2 °C 60 % 1016,5 hPa 0,0 mm 2,2 km/h (1 Bft) NO 39 ° 0 min 0,000 mm 0,0 UV-I 49 W/m² 15,0 °C 23,2 °C 6,4 km/h (2 Bft)
18.08.2018 18:57 23,2 °C 60 % 1016,5 hPa 0,0 mm 0,6 km/h (0 Bft) NO 36 ° 0 min 0,000 mm 0,0 UV-I 47 W/m² 15,0 °C 23,2 °C 3,2 km/h (1 Bft)
18.08.2018 18:58 23,2 °C 61 % 1016,5 hPa 0,0 mm 3,5 km/h (1 Bft) N-NO 15 ° 0 min 0,000 mm 0,0 UV-I 49 W/m² 15,3 °C 23,2 °C 4,8 km/h (1 Bft)
18.08.2018 18:59 23,2 °C 61 % 1016,5 hPa 0,0 mm 4,0 km/h (1 Bft) N-NO 16 ° 0 min 0,000 mm 0,0 UV-I 51 W/m² 15,3 °C 23,2 °C 4,8 km/h (1 Bft)
18.08.2018 19:00 23,2 °C 61 % 1016,5 hPa 0,0 mm 1,4 km/h (1 Bft) N-NO 16 ° 0 min 0,000 mm 0,0 UV-I 51 W/m² 15,3 °C 23,2 °C 3,2 km/h (1 Bft)
18.08.2018 19:01 23,3 °C 60 % 1016,6 hPa 0,0 mm 1,9 km/h (1 Bft) N-NO 33 ° 0 min 0,076 mm 0,0 UV-I 54 W/m² 15,1 °C 23,3 °C 3,2 km/h (1 Bft)
18.08.2018 19:02 23,3 °C 60 % 1016,6 hPa 0,0 mm 0,3 km/h (0 Bft) N-NO 33 ° 0 min 0,000 mm 0,5 UV-I 56 W/m² 15,1 °C 23,3 °C 3,2 km/h (1 Bft)
18.08.2018 19:03 23,3 °C 61 % 1016,6 hPa 0,0 mm 1,1 km/h (1 Bft) N-NO 33 ° 0 min 0,000 mm 0,5 UV-I 56 W/m² 15,3 °C 23,3 °C 3,2 km/h (1 Bft)
18.08.2018 19:04 23,3 °C 61 % 1016,6 hPa 0,0 mm 2,5 km/h (1 Bft) N-NO 33 ° 0 min 0,000 mm 0,5 UV-I 60 W/m² 15,3 °C 23,3 °C 4,8 km/h (1 Bft)
18.08.2018 19:05 23,3 °C 61 % 1016,6 hPa 0,0 mm 1,1 km/h (1 Bft) N-NO 33 ° 0 min 0,000 mm 0,5 UV-I 56 W/m² 15,3 °C 23,3 °C 3,2 km/h (1 Bft)
18.08.2018 19:06 23,3 °C 61 % 1016,6 hPa 0,0 mm 2,7 km/h (1 Bft) N-NO 32 ° 0 min 0,000 mm 0,5 UV-I 62 W/m² 15,3 °C 23,3 °C 3,2 km/h (1 Bft)
18.08.2018 19:07 23,3 °C 62 % 1016,7 hPa 0,0 mm 0,9 km/h (0 Bft) N-NO 32 ° 0 min 0,000 mm 0,5 UV-I 63 W/m² 15,6 °C 23,3 °C 3,2 km/h (1 Bft)
18.08.2018 19:08 23,3 °C 62 % 1016,7 hPa 0,0 mm 0,8 km/h (0 Bft) N-NO 30 ° 0 min 0,000 mm 0,5 UV-I 67 W/m² 15,6 °C 23,3 °C 3,2 km/h (1 Bft)
18.08.2018 19:09 23,2 °C 62 % 1016,7 hPa 0,0 mm 2,2 km/h (1 Bft) N-NO 30 ° 0 min 0,000 mm 0,5 UV-I 69 W/m² 15,5 °C 23,2 °C 3,2 km/h (1 Bft)
18.08.2018 19:10 23,2 °C 61 % 1016,7 hPa 0,0 mm 2,5 km/h (1 Bft) N-NO 30 ° 0 min 0,000 mm 0,5 UV-I 58 W/m² 15,3 °C 23,2 °C 3,2 km/h (1 Bft)
18.08.2018 19:11 23,2 °C 61 % 1016,7 hPa 0,0 mm 2,3 km/h (1 Bft) N-NO 30 ° 0 min 0,000 mm 0,5 UV-I 56 W/m² 15,3 °C 23,2 °C 3,2 km/h (1 Bft)
18.08.2018 19:12 23,2 °C 61 % 1016,7 hPa 0,0 mm 2,7 km/h (1 Bft) N-NW 346 ° 0 min 0,000 mm 0,5 UV-I 65 W/m² 15,3 °C 23,2 °C 4,8 km/h (1 Bft)
18.08.2018 19:13 23,1 °C 60 % 1016,8 hPa 0,0 mm 3,2 km/h (1 Bft) N-NW 346 ° 0 min 0,000 mm 0,5 UV-I 91 W/m² 14,9 °C 23,1 °C 4,8 km/h (1 Bft)
18.08.2018 19:14 23,1 °C 61 % 1016,7 hPa 0,0 mm 0,6 km/h (0 Bft) N-NW 346 ° 0 min 0,000 mm 0,0 UV-I 90 W/m² 15,2 °C 23,1 °C 3,2 km/h (1 Bft)
18.08.2018 19:15 23,1 °C 62 % 1016,8 hPa 0,0 mm 1,9 km/h (1 Bft) N-NW 346 ° 0 min 0,000 mm 0,0 UV-I 86 W/m² 15,4 °C 23,1 °C 4,8 km/h (1 Bft)
18.08.2018 19:16 23,1 °C 62 % 1016,8 hPa 0,0 mm 0,4 km/h (0 Bft) N-NW 346 ° 0 min 0,000 mm 0,0 UV-I 83 W/m² 15,4 °C 23,1 °C 1,6 km/h (1 Bft)
18.08.2018 19:17 23,0 °C 63 % 1016,8 hPa 0,0 mm 0,7 km/h (0 Bft) N-NW 346 ° 0 min 0,000 mm 0,0 UV-I 79 W/m² 15,6 °C 23,0 °C 1,6 km/h (1 Bft)
18.08.2018 19:18 22,9 °C 62 % 1016,8 hPa 0,0 mm 1,0 km/h (0 Bft) N-NW 346 ° 0 min 0,000 mm 0,0 UV-I 77 W/m² 15,2 °C 22,9 °C 1,6 km/h (1 Bft)
18.08.2018 19:19 22,9 °C 63 % 1016,8 hPa 0,0 mm 0,0 km/h (0 Bft) N-NW 346 ° 0 min 0,000 mm 0,0 UV-I 74 W/m² 15,5 °C 22,9 °C 0,0 km/h (0 Bft)
18.08.2018 19:20 22,8 °C 62 % 1016,8 hPa 0,0 mm 0,0 km/h (0 Bft) N-NW 346 ° 0 min 0,000 mm 0,0 UV-I 74 W/m² 15,1 °C 22,8 °C 0,0 km/h (0 Bft)
18.08.2018 19:21 22,9 °C 61 % 1016,8 hPa 0,0 mm 0,0 km/h (0 Bft) N-NW 346 ° 0 min 0,000 mm 0,0 UV-I 72 W/m² 15,0 °C 22,9 °C 0,0 km/h (0 Bft)
18.08.2018 19:22 22,9 °C 62 % 1016,8 hPa 0,0 mm 0,0 km/h (0 Bft) N-NW 346 ° 0 min 0,000 mm 0,0 UV-I 72 W/m² 15,2 °C 22,9 °C 0,0 km/h (0 Bft)
18.08.2018 19:23 22,8 °C 62 % 1016,8 hPa 0,0 mm 2,0 km/h (1 Bft) N-NW 346 ° 0 min 0,000 mm 0,0 UV-I 70 W/m² 15,1 °C 22,8 °C 4,8 km/h (1 Bft)
18.08.2018 19:24 22,9 °C 62 % 1016,8 hPa 0,0 mm 1,8 km/h (1 Bft) N-NW 346 ° 0 min 0,000 mm 0,0 UV-I 69 W/m² 15,2 °C 22,9 °C 3,2 km/h (1 Bft)
18.08.2018 19:25 22,9 °C 61 % 1016,8 hPa 0,0 mm 0,0 km/h (0 Bft) N-NW 346 ° 0 min 0,000 mm 0,0 UV-I 65 W/m² 15,0 °C 22,9 °C 0,0 km/h (0 Bft)
18.08.2018 19:26 22,9 °C 62 % 1016,9 hPa 0,0 mm 0,1 km/h (0 Bft) N-NW 346 ° 0 min 0,000 mm 0,0 UV-I 63 W/m² 15,2 °C 22,9 °C 1,6 km/h (1 Bft)
18.08.2018 19:27 22,8 °C 62 % 1016,8 hPa 0,0 mm 0,1 km/h (0 Bft) N-NW 346 ° 0 min 0,000 mm 0,0 UV-I 54 W/m² 15,1 °C 22,8 °C 1,6 km/h (1 Bft)
18.08.2018 19:28 22,7 °C 63 % 1016,9 hPa 0,0 mm 0,0 km/h (0 Bft) N-NW 346 ° 0 min 0,000 mm 0,0 UV-I 42 W/m² 15,3 °C 22,7 °C 0,0 km/h (0 Bft)
18.08.2018 19:29 22,7 °C 64 % 1016,8 hPa 0,0 mm 0,0 km/h (0 Bft) N-NW 346 ° 0 min 0,000 mm 0,0 UV-I 30 W/m² 15,5 °C 22,7 °C 0,0 km/h (0 Bft)
18.08.2018 19:30 22,6 °C 63 % 1016,9 hPa 0,0 mm 0,1 km/h (0 Bft) N-NW 346 ° 0 min 0,000 mm 0,0 UV-I 28 W/m² 15,2 °C 22,6 °C 1,6 km/h (1 Bft)
18.08.2018 19:31 22,6 °C 64 % 1016,9 hPa 0,0 mm 1,9 km/h (1 Bft) N-NW 346 ° 0 min 0,000 mm 0,0 UV-I 28 W/m² 15,4 °C 22,6 °C 4,8 km/h (1 Bft)
18.08.2018 19:32 22,5 °C 64 % 1016,9 hPa 0,0 mm 0,6 km/h (0 Bft) N-NW 346 ° 0 min 0,000 mm 0,0 UV-I 28 W/m² 15,3 °C 22,5 °C 1,6 km/h (1 Bft)
18.08.2018 19:33 22,4 °C 64 % 1016,9 hPa 0,0 mm 0,5 km/h (0 Bft) N-NW 346 ° 0 min 0,000 mm 0,0 UV-I 28 W/m² 15,2 °C 22,4 °C 1,6 km/h (1 Bft)
18.08.2018 19:34 22,4 °C 64 % 1016,9 hPa 0,0 mm 0,5 km/h (0 Bft) N-NW 346 ° 0 min 0,000 mm 0,0 UV-I 30 W/m² 15,2 °C 22,4 °C 1,6 km/h (1 Bft)
18.08.2018 19:35 22,3 °C 64 % 1016,9 hPa 0,0 mm 0,0 km/h (0 Bft) N-NW 346 ° 0 min 0,000 mm 0,0 UV-I 33 W/m² 15,2 °C 22,3 °C 0,0 km/h (0 Bft)
18.08.2018 19:36 22,2 °C 65 % 1017,0 hPa 0,0 mm 0,0 km/h (0 Bft) N-NW 346 ° 0 min 0,000 mm 0,0 UV-I 28 W/m² 15,3 °C 22,2 °C 0,0 km/h (0 Bft)
18.08.2018 19:37 22,1 °C 65 % 1017,0 hPa 0,0 mm 0,0 km/h (0 Bft) N-NW 346 ° 0 min 0,000 mm 0,0 UV-I 26 W/m² 15,2 °C 22,1 °C 0,0 km/h (0 Bft)
18.08.2018 19:38 22,1 °C 65 % 1017,0 hPa 0,0 mm 0,0 km/h (0 Bft) N-NW 346 ° 0 min 0,000 mm 0,0 UV-I 26 W/m² 15,2 °C 22,1 °C 0,0 km/h (0 Bft)
18.08.2018 19:39 22,0 °C 65 % 1017,0 hPa 0,0 mm 0,0 km/h (0 Bft) N-NW 346 ° 0 min 0,000 mm 0,0 UV-I 26 W/m² 15,1 °C 22,0 °C 0,0 km/h (0 Bft)
18.08.2018 19:40 22,0 °C 65 % 1017,0 hPa 0,0 mm 0,0 km/h (0 Bft) N-NW 346 ° 0 min 0,000 mm 0,0 UV-I 25 W/m² 15,1 °C 22,0 °C 0,0 km/h (0 Bft)
18.08.2018 19:41 21,9 °C 65 % 1017,0 hPa 0,0 mm 0,0 km/h (0 Bft) N-NW 346 ° 0 min 0,000 mm 0,0 UV-I 25 W/m² 15,0 °C 21,9 °C 0,0 km/h (0 Bft)
18.08.2018 19:42 21,9 °C 65 % 1017,0 hPa 0,0 mm 0,0 km/h (0 Bft) N-NW 346 ° 0 min 0,000 mm 0,0 UV-I 25 W/m² 15,0 °C 21,9 °C 0,0 km/h (0 Bft)
18.08.2018 19:43 21,9 °C 65 % 1017,0 hPa 0,0 mm 0,0 km/h (0 Bft) N-NW 346 ° 0 min 0,000 mm 0,0 UV-I 25 W/m² 15,0 °C 21,9 °C 0,0 km/h (0 Bft)
18.08.2018 19:44 21,8 °C 65 % 1017,1 hPa 0,0 mm 0,0 km/h (0 Bft) N-NW 346 ° 0 min 0,000 mm 0,0 UV-I 23 W/m² 14,9 °C 21,8 °C 0,0 km/h (0 Bft)
18.08.2018 19:45 21,7 °C 66 % 1017,0 hPa 0,0 mm 0,0 km/h (0 Bft) N-NW 346 ° 0 min 0,000 mm 0,0 UV-I 23 W/m² 15,1 °C 21,7 °C 0,0 km/h (0 Bft)
18.08.2018 19:46 21,6 °C 68 % 1017,0 hPa 0,0 mm 0,0 km/h (0 Bft) N-NW 346 ° 0 min 0,000 mm 0,0 UV-I 23 W/m² 15,4 °C 21,6 °C 0,0 km/h (0 Bft)
18.08.2018 19:47 21,6 °C 68 % 1017,1 hPa 0,0 mm 0,1 km/h (0 Bft) N-NW 346 ° 0 min 0,000 mm 0,0 UV-I 21 W/m² 15,4 °C 21,6 °C 1,6 km/h (1 Bft)
18.08.2018 19:48 21,3 °C 69 % 1017,1 hPa 0,0 mm 0,0 km/h (0 Bft) N-NW 346 ° 0 min 0,000 mm 0,0 UV-I 21 W/m² 15,4 °C 21,3 °C 0,0 km/h (0 Bft)
18.08.2018 19:49 21,1 °C 70 % 1017,1 hPa 0,0 mm 0,0 km/h (0 Bft) N-NW 346 ° 0 min 0,000 mm 0,0 UV-I 21 W/m² 15,4 °C 21,1 °C 0,0 km/h (0 Bft)
18.08.2018 19:50 20,9 °C 69 % 1017,1 hPa 0,0 mm 0,0 km/h (0 Bft) N-NW 346 ° 0 min 0,000 mm 0,0 UV-I 19 W/m² 15,0 °C 20,9 °C 0,0 km/h (0 Bft)
18.08.2018 19:51 20,9 °C 70 % 1017,1 hPa 0,0 mm 0,0 km/h (0 Bft) N-NW 346 ° 0 min 0,000 mm 0,0 UV-I 19 W/m² 15,2 °C 20,9 °C 0,0 km/h (0 Bft)
18.08.2018 19:52 20,8 °C 71 % 1017,2 hPa 0,0 mm 0,0 km/h (0 Bft) N-NW 346 ° 0 min 0,000 mm 0,0 UV-I 19 W/m² 15,3 °C 20,8 °C 0,0 km/h (0 Bft)
18.08.2018 19:53 20,7 °C 72 % 1017,2 hPa 0,0 mm 0,0 km/h (0 Bft) N-NW 346 ° 0 min 0,000 mm 0,0 UV-I 18 W/m² 15,5 °C 20,7 °C 0,0 km/h (0 Bft)
18.08.2018 19:54 20,5 °C 72 % 1017,1 hPa 0,0 mm 0,0 km/h (0 Bft) N-NW 346 ° 0 min 0,000 mm 0,0 UV-I 18 W/m² 15,3 °C 20,5 °C 0,0 km/h (0 Bft)
18.08.2018 19:55 20,4 °C 72 % 1017,2 hPa 0,0 mm 0,0 km/h (0 Bft) N-NW 346 ° 0 min 0,000 mm 0,0 UV-I 16 W/m² 15,2 °C 20,4 °C 0,0 km/h (0 Bft)
18.08.2018 19:56 20,4 °C 72 % 1017,2 hPa 0,0 mm 0,0 km/h (0 Bft) N-NW 346 ° 0 min 0,000 mm 0,0 UV-I 16 W/m² 15,2 °C 20,4 °C 0,0 km/h (0 Bft)
18.08.2018 19:57 20,4 °C 72 % 1017,2 hPa 0,0 mm 0,0 km/h (0 Bft) N-NW 346 ° 0 min 0,000 mm 0,0 UV-I 16 W/m² 15,2 °C 20,4 °C 0,0 km/h (0 Bft)
18.08.2018 19:58 20,5 °C 71 % 1017,2 hPa 0,0 mm 0,0 km/h (0 Bft) N-NW 346 ° 0 min 0,000 mm 0,0 UV-I 16 W/m² 15,1 °C 20,5 °C 0,0 km/h (0 Bft)
18.08.2018 19:59 20,6 °C 71 % 1017,3 hPa 0,0 mm 0,0 km/h (0 Bft) N-NW 346 ° 0 min 0,000 mm 0,0 UV-I 16 W/m² 15,2 °C 20,6 °C 0,0 km/h (0 Bft)
18.08.2018 20:00 20,5 °C 72 % 1017,2 hPa 0,0 mm 0,0 km/h (0 Bft) N-NW 346 ° 0 min 0,000 mm 0,0 UV-I 14 W/m² 15,3 °C 20,5 °C 0,0 km/h (0 Bft)
18.08.2018 20:01 20,5 °C 72 % 1017,3 hPa 0,0 mm 0,0 km/h (0 Bft) N-NW 346 ° 0 min 0,025 mm 0,0 UV-I 14 W/m² 15,3 °C 20,5 °C 0,0 km/h (0 Bft)
18.08.2018 20:02 20,4 °C 72 % 1017,3 hPa 0,0 mm 0,0 km/h (0 Bft) N-NW 346 ° 0 min 0,000 mm 0,0 UV-I 14 W/m² 15,2 °C 20,4 °C 0,0 km/h (0 Bft)
18.08.2018 20:03 20,4 °C 73 % 1017,3 hPa 0,0 mm 0,0 km/h (0 Bft) N-NW 346 ° 0 min 0,000 mm 0,0 UV-I 12 W/m² 15,4 °C 20,4 °C 0,0 km/h (0 Bft)
18.08.2018 20:04 20,4 °C 72 % 1017,3 hPa 0,0 mm 0,0 km/h (0 Bft) N-NW 346 ° 0 min 0,000 mm 0,0 UV-I 12 W/m² 15,2 °C 20,4 °C 0,0 km/h (0 Bft)
18.08.2018 20:05 20,3 °C 72 % 1017,3 hPa 0,0 mm 0,1 km/h (0 Bft) N-NW 346 ° 0 min 0,000 mm 0,0 UV-I 11 W/m² 15,1 °C 20,3 °C 1,6 km/h (1 Bft)
18.08.2018 20:06 20,3 °C 73 % 1017,3 hPa 0,0 mm 0,0 km/h (0 Bft) N-NW 346 ° 0 min 0,000 mm 0,0 UV-I 11 W/m² 15,3 °C 20,3 °C 0,0 km/h (0 Bft)
18.08.2018 20:07 20,3 °C 72 % 1017,3 hPa 0,0 mm 0,5 km/h (0 Bft) N-NW 346 ° 0 min 0,000 mm 0,0 UV-I 11 W/m² 15,1 °C 20,3 °C 1,6 km/h (1 Bft)
18.08.2018 20:08 20,3 °C 72 % 1017,3 hPa 0,0 mm 0,5 km/h (0 Bft) N-NW 346 ° 0 min 0,000 mm 0,0 UV-I 11 W/m² 15,1 °C 20,3 °C 1,6 km/h (1 Bft)
18.08.2018 20:09 20,3 °C 72 % 1017,3 hPa 0,0 mm 0,0 km/h (0 Bft) N-NW 346 ° 0 min 0,000 mm 0,0 UV-I 11 W/m² 15,1 °C 20,3 °C 0,0 km/h (0 Bft)
18.08.2018 20:10 20,3 °C 72 % 1017,3 hPa 0,0 mm 0,0 km/h (0 Bft) N-NW 346 ° 0 min 0,000 mm 0,0 UV-I 11 W/m² 15,1 °C 20,3 °C 0,0 km/h (0 Bft)
18.08.2018 20:11 20,2 °C 72 % 1017,3 hPa 0,0 mm 0,0 km/h (0 Bft) N-NW 346 ° 0 min 0,000 mm 0,0 UV-I 9 W/m² 15,0 °C 20,2 °C 0,0 km/h (0 Bft)
18.08.2018 20:12 20,2 °C 72 % 1017,4 hPa 0,0 mm 0,0 km/h (0 Bft) N-NW 346 ° 0 min 0,000 mm 0,0 UV-I 9 W/m² 15,0 °C 20,2 °C 0,0 km/h (0 Bft)
18.08.2018 20:13 20,2 °C 72 % 1017,4 hPa 0,0 mm 0,0 km/h (0 Bft) N-NW 346 ° 0 min 0,000 mm 0,0 UV-I 9 W/m² 15,0 °C 20,2 °C 0,0 km/h (0 Bft)
18.08.2018 20:14 20,2 °C 72 % 1017,4 hPa 0,0 mm 0,0 km/h (0 Bft) N-NW 346 ° 0 min 0,000 mm 0,0 UV-I 7 W/m² 15,0 °C 20,2 °C 0,0 km/h (0 Bft)
18.08.2018 20:15 20,1 °C 72 % 1017,4 hPa 0,0 mm 0,7 km/h (0 Bft) N-NW 346 ° 0 min 0,000 mm 0,0 UV-I 7 W/m² 14,9 °C 20,1 °C 1,6 km/h (1 Bft)
18.08.2018 20:16 20,1 °C 72 % 1017,4 hPa 0,0 mm 0,0 km/h (0 Bft) N-NW 346 ° 0 min 0,000 mm 0,0 UV-I 7 W/m² 14,9 °C 20,1 °C 0,0 km/h (0 Bft)
18.08.2018 20:17 20,0 °C 73 % 1017,4 hPa 0,0 mm 0,0 km/h (0 Bft) N-NW 346 ° 0 min 0,000 mm 0,0 UV-I 5 W/m² 15,0 °C 20,0 °C 0,0 km/h (0 Bft)
18.08.2018 20:18 19,9 °C 73 % 1017,5 hPa 0,0 mm 0,0 km/h (0 Bft) N-NW 346 ° 0 min 0,000 mm 0,0 UV-I 5 W/m² 14,9 °C 19,9 °C 0,0 km/h (0 Bft)
18.08.2018 20:19 19,8 °C 73 % 1017,4 hPa 0,0 mm 0,0 km/h (0 Bft) N-NW 346 ° 0 min 0,000 mm 0,0 UV-I 5 W/m² 14,8 °C 19,8 °C 0,0 km/h (0 Bft)
18.08.2018 20:20 19,8 °C 73 % 1017,5 hPa 0,0 mm 0,0 km/h (0 Bft) N-NW 346 ° 0 min 0,000 mm 0,0 UV-I 5 W/m² 14,8 °C 19,8 °C 0,0 km/h (0 Bft)
18.08.2018 20:21 19,8 °C 73 % 1017,4 hPa 0,0 mm 0,0 km/h (0 Bft) N-NW 346 ° 0 min 0,000 mm 0,0 UV-I 5 W/m² 14,8 °C 19,8 °C 0,0 km/h (0 Bft)
18.08.2018 20:22 19,8 °C 73 % 1017,4 hPa 0,0 mm 0,0 km/h (0 Bft) N-NW 346 ° 0 min 0,000 mm 0,0 UV-I 0 W/m² 14,8 °C 19,8 °C 0,0 km/h (0 Bft)
18.08.2018 20:23 19,7 °C 73 % 1017,4 hPa 0,0 mm 0,0 km/h (0 Bft) N-NW 346 ° 0 min 0,000 mm 0,0 UV-I 0 W/m² 14,7 °C 19,7 °C 0,0 km/h (0 Bft)
18.08.2018 20:24 19,6 °C 74 % 1017,5 hPa 0,0 mm 0,0 km/h (0 Bft) N-NW 346 ° 0 min 0,000 mm 0,0 UV-I 0 W/m² 14,8 °C 19,6 °C 0,0 km/h (0 Bft)
18.08.2018 20:25 19,5 °C 74 % 1017,5 hPa 0,0 mm 0,0 km/h (0 Bft) N-NW 346 ° 0 min 0,000 mm 0,0 UV-I 0 W/m² 14,7 °C 19,5 °C 0,0 km/h (0 Bft)
18.08.2018 20:26 19,3 °C 75 % 1017,4 hPa 0,0 mm 0,0 km/h (0 Bft) N-NW 346 ° 0 min 0,000 mm 0,0 UV-I 0 W/m² 14,8 °C 19,3 °C 0,0 km/h (0 Bft)
18.08.2018 20:27 19,2 °C 75 % 1017,5 hPa 0,0 mm 0,0 km/h (0 Bft) N-NW 346 ° 0 min 0,000 mm 0,0 UV-I 0 W/m² 14,7 °C 19,2 °C 0,0 km/h (0 Bft)
18.08.2018 20:28 18,9 °C 76 % 1017,5 hPa 0,0 mm 0,0 km/h (0 Bft) N-NW 346 ° 0 min 0,000 mm 0,0 UV-I 0 W/m² 14,6 °C 18,9 °C 0,0 km/h (0 Bft)
18.08.2018 20:29 18,8 °C 77 % 1017,5 hPa 0,0 mm 0,0 km/h (0 Bft) N-NW 346 ° 0 min 0,000 mm 0,0 UV-I 0 W/m² 14,7 °C 18,8 °C 0,0 km/h (0 Bft)
18.08.2018 20:30 18,8 °C 77 % 1017,5 hPa 0,0 mm 0,0 km/h (0 Bft) N-NW 346 ° 0 min 0,000 mm 0,0 UV-I 0 W/m² 14,7 °C 18,8 °C 0,0 km/h (0 Bft)
18.08.2018 20:31 18,6 °C 77 % 1017,6 hPa 0,0 mm 0,0 km/h (0 Bft) N-NW 346 ° 0 min 0,000 mm 0,0 UV-I 0 W/m² 14,5 °C 18,6 °C 0,0 km/h (0 Bft)
18.08.2018 20:32 18,5 °C 78 % 1017,6 hPa 0,0 mm 0,0 km/h (0 Bft) N-NW 346 ° 0 min 0,000 mm 0,0 UV-I 0 W/m² 14,6 °C 18,5 °C 0,0 km/h (0 Bft)
18.08.2018 20:33 18,3 °C 79 % 1017,6 hPa 0,0 mm 1,3 km/h (1 Bft) N-NW 346 ° 0 min 0,000 mm 0,0 UV-I 0 W/m² 14,6 °C 18,3 °C 3,2 km/h (1 Bft)
18.08.2018 20:34 18,2 °C 80 % 1017,6 hPa 0,0 mm 2,4 km/h (1 Bft) N-NW 346 ° 0 min 0,000 mm 0,0 UV-I 0 W/m² 14,7 °C 18,2 °C 4,8 km/h (1 Bft)
18.08.2018 20:35 18,2 °C 80 % 1017,6 hPa 0,0 mm 0,9 km/h (0 Bft) N-NW 346 ° 0 min 0,000 mm 0,0 UV-I 0 W/m² 14,7 °C 18,2 °C 3,2 km/h (1 Bft)
18.08.2018 20:36 18,2 °C 80 % 1017,6 hPa 0,0 mm 2,3 km/h (1 Bft) N-NW 346 ° 0 min 0,000 mm 0,0 UV-I 0 W/m² 14,7 °C 18,2 °C 3,2 km/h (1 Bft)
18.08.2018 20:37 18,2 °C 80 % 1017,6 hPa 0,0 mm 0,1 km/h (0 Bft) N-NW 346 ° 0 min 0,000 mm 0,0 UV-I 0 W/m² 14,7 °C 18,2 °C 1,6 km/h (1 Bft)
18.08.2018 20:38 18,3 °C 79 % 1017,7 hPa 0,0 mm 3,1 km/h (1 Bft) SW 227 ° 0 min 0,000 mm 0,0 UV-I 0 W/m² 14,6 °C 18,3 °C 4,8 km/h (1 Bft)
18.08.2018 20:39 18,4 °C 79 % 1017,7 hPa 0,0 mm 3,2 km/h (1 Bft) SW 227 ° 0 min 0,000 mm 0,0 UV-I 0 W/m² 14,7 °C 18,4 °C 4,8 km/h (1 Bft)
18.08.2018 20:40 18,5 °C 78 % 1017,6 hPa 0,0 mm 3,3 km/h (1 Bft) SW 227 ° 0 min 0,000 mm 0,0 UV-I 0 W/m² 14,6 °C 18,5 °C 4,8 km/h (1 Bft)
18.08.2018 20:41 18,6 °C 78 % 1017,7 hPa 0,0 mm 1,1 km/h (1 Bft) SW 227 ° 0 min 0,000 mm 0,0 UV-I 0 W/m² 14,7 °C 18,6 °C 3,2 km/h (1 Bft)
18.08.2018 20:42 18,6 °C 78 % 1017,7 hPa 0,0 mm 4,1 km/h (1 Bft) SW 227 ° 0 min 0,000 mm 0,0 UV-I 0 W/m² 14,7 °C 18,6 °C 4,8 km/h (1 Bft)
18.08.2018 20:43 18,6 °C 78 % 1017,7 hPa 0,0 mm 4,0 km/h (1 Bft) SW 227 ° 0 min 0,000 mm 0,0 UV-I 0 W/m² 14,7 °C 18,6 °C 4,8 km/h (1 Bft)
18.08.2018 20:44 18,7 °C 77 % 1017,7 hPa 0,0 mm 3,0 km/h (1 Bft) SW 227 ° 0 min 0,000 mm 0,0 UV-I 0 W/m² 14,6 °C 18,7 °C 4,8 km/h (1 Bft)
18.08.2018 20:45 18,7 °C 77 % 1017,7 hPa 0,0 mm 3,3 km/h (1 Bft) SW 221 ° 0 min 0,000 mm 0,0 UV-I 0 W/m² 14,6 °C 18,7 °C 4,8 km/h (1 Bft)
18.08.2018 20:46 18,8 °C 77 % 1017,7 hPa 0,0 mm 3,0 km/h (1 Bft) SW 221 ° 0 min 0,000 mm 0,0 UV-I 0 W/m² 14,7 °C 18,8 °C 4,8 km/h (1 Bft)
18.08.2018 20:47 18,8 °C 77 % 1017,7 hPa 0,0 mm 1,9 km/h (1 Bft) SW 221 ° 0 min 0,000 mm 0,0 UV-I 0 W/m² 14,7 °C 18,8 °C 4,8 km/h (1 Bft)
18.08.2018 20:48 18,8 °C 77 % 1017,8 hPa 0,0 mm 1,4 km/h (1 Bft) SW 221 ° 0 min 0,000 mm 0,0 UV-I 0 W/m² 14,7 °C 18,8 °C 3,2 km/h (1 Bft)
18.08.2018 20:49 18,8 °C 77 % 1017,8 hPa 0,0 mm 2,3 km/h (1 Bft) SW 221 ° 0 min 0,000 mm 0,0 UV-I 0 W/m² 14,7 °C 18,8 °C 3,2 km/h (1 Bft)
18.08.2018 20:50 18,8 °C 77 % 1017,8 hPa 0,0 mm 3,2 km/h (1 Bft) SW 221 ° 0 min 0,000 mm 0,0 UV-I 0 W/m² 14,7 °C 18,8 °C 4,8 km/h (1 Bft)
18.08.2018 20:51 18,8 °C 77 % 1017,8 hPa 0,0 mm 2,1 km/h (1 Bft) SW 221 ° 0 min 0,000 mm 0,0 UV-I 0 W/m² 14,7 °C 18,8 °C 3,2 km/h (1 Bft)
18.08.2018 20:52 18,8 °C 77 % 1017,8 hPa 0,0 mm 1,4 km/h (1 Bft) SW 221 ° 0 min 0,000 mm 0,0 UV-I 0 W/m² 14,7 °C 18,8 °C 3,2 km/h (1 Bft)
18.08.2018 20:53 18,8 °C 77 % 1017,8 hPa 0,0 mm 3,0 km/h (1 Bft) SW 221 ° 0 min 0,000 mm 0,0 UV-I 0 W/m² 14,7 °C 18,8 °C 4,8 km/h (1 Bft)
18.08.2018 20:54 18,8 °C 77 % 1017,8 hPa 0,0 mm 2,1 km/h (1 Bft) SW 221 ° 0 min 0,000 mm 0,0 UV-I 0 W/m² 14,7 °C 18,8 °C 3,2 km/h (1 Bft)
18.08.2018 20:55 18,8 °C 77 % 1017,9 hPa 0,0 mm 1,3 km/h (1 Bft) SW 221 ° 0 min 0,000 mm 0,0 UV-I 0 W/m² 14,7 °C 18,8 °C 3,2 km/h (1 Bft)
18.08.2018 20:56 18,7 °C 77 % 1017,9 hPa 0,0 mm 0,1 km/h (0 Bft) SW 221 ° 0 min 0,000 mm 0,0 UV-I 0 W/m² 14,6 °C 18,7 °C 1,6 km/h (1 Bft)
18.08.2018 20:57 18,7 °C 77 % 1017,9 hPa 0,0 mm 0,0 km/h (0 Bft) SW 221 ° 0 min 0,000 mm 0,0 UV-I 0 W/m² 14,6 °C 18,7 °C 0,0 km/h (0 Bft)
18.08.2018 20:58 18,7 °C 78 % 1018,0 hPa 0,0 mm 0,0 km/h (0 Bft) SW 221 ° 0 min 0,000 mm 0,0 UV-I 0 W/m² 14,8 °C 18,7 °C 0,0 km/h (0 Bft)
18.08.2018 20:59 18,7 °C 78 % 1017,9 hPa 0,0 mm 0,6 km/h (0 Bft) SW 221 ° 0 min 0,000 mm 0,0 UV-I 0 W/m² 14,8 °C 18,7 °C 3,2 km/h (1 Bft)
18.08.2018 21:00 18,7 °C 78 % 1017,9 hPa 0,0 mm 1,2 km/h (1 Bft) SW 221 ° 0 min 0,000 mm 0,0 UV-I 0 W/m² 14,8 °C 18,7 °C 3,2 km/h (1 Bft)
18.08.2018 21:01 18,7 °C 78 % 1017,9 hPa 0,0 mm 1,1 km/h (1 Bft) SW 221 ° 0 min 0,000 mm 0,0 UV-I 0 W/m² 14,8 °C 18,7 °C 3,2 km/h (1 Bft)
18.08.2018 21:02 18,6 °C 78 % 1018,0 hPa 0,0 mm 0,2 km/h (0 Bft) SW 221 ° 0 min 0,000 mm 0,0 UV-I 0 W/m² 14,7 °C 18,6 °C 1,6 km/h (1 Bft)
18.08.2018 21:03 18,7 °C 78 % 1018,0 hPa 0,0 mm 1,8 km/h (1 Bft) SW 221 ° 0 min 0,000 mm 0,0 UV-I 0 W/m² 14,8 °C 18,7 °C 3,2 km/h (1 Bft)
18.08.2018 21:04 18,6 °C 79 % 1018,0 hPa 0,0 mm 2,2 km/h (1 Bft) SW 221 ° 0 min 0,000 mm 0,0 UV-I 0 W/m² 14,9 °C 18,6 °C 3,2 km/h (1 Bft)
18.08.2018 21:05 18,7 °C 79 % 1018,0 hPa 0,0 mm 3,4 km/h (1 Bft) SW 221 ° 0 min 0,000 mm 0,0 UV-I 0 W/m² 15,0 °C 18,7 °C 4,8 km/h (1 Bft)
18.08.2018 21:06 18,7 °C 79 % 1018,0 hPa 0,0 mm 3,7 km/h (1 Bft) SW 221 ° 0 min 0,000 mm 0,0 UV-I 0 W/m² 15,0 °C 18,7 °C 4,8 km/h (1 Bft)
18.08.2018 21:07 18,7 °C 79 % 1018,0 hPa 0,0 mm 3,3 km/h (1 Bft) SW 221 ° 0 min 0,000 mm 0,0 UV-I 0 W/m² 15,0 °C 18,7 °C 4,8 km/h (1 Bft)
18.08.2018 21:08 18,7 °C 79 % 1018,1 hPa 0,0 mm 2,9 km/h (1 Bft) SW 221 ° 0 min 0,000 mm 0,0 UV-I 0 W/m² 15,0 °C 18,7 °C 4,8 km/h (1 Bft)
18.08.2018 21:09 18,7 °C 79 % 1018,0 hPa 0,0 mm 2,3 km/h (1 Bft) SW 221 ° 0 min 0,000 mm 0,0 UV-I 0 W/m² 15,0 °C 18,7 °C 4,8 km/h (1 Bft)
18.08.2018 21:10 18,7 °C 79 % 1018,0 hPa 0,0 mm 1,7 km/h (1 Bft) SW 221 ° 0 min 0,000 mm 0,0 UV-I 0 W/m² 15,0 °C 18,7 °C 3,2 km/h (1 Bft)
18.08.2018 21:11 18,8 °C 79 % 1018,0 hPa 0,0 mm 0,6 km/h (0 Bft) SW 221 ° 0 min 0,000 mm 0,0 UV-I 0 W/m² 15,1 °C 18,8 °C 1,6 km/h (1 Bft)
18.08.2018 21:12 18,8 °C 79 % 1018,1 hPa 0,0 mm 0,8 km/h (0 Bft) SW 221 ° 0 min 0,000 mm 0,0 UV-I 0 W/m² 15,1 °C 18,8 °C 3,2 km/h (1 Bft)
18.08.2018 21:13 18,8 °C 79 % 1018,1 hPa 0,0 mm 1,5 km/h (1 Bft) SW 221 ° 0 min 0,000 mm 0,0 UV-I 0 W/m² 15,1 °C 18,8 °C 4,8 km/h (1 Bft)
18.08.2018 21:14 18,8 °C 79 % 1018,0 hPa 0,0 mm 2,3 km/h (1 Bft) SW 221 ° 0 min 0,000 mm 0,0 UV-I 0 W/m² 15,1 °C 18,8 °C 3,2 km/h (1 Bft)
18.08.2018 21:15 18,8 °C 79 % 1018,1 hPa 0,0 mm 1,5 km/h (1 Bft) SW 221 ° 0 min 0,000 mm 0,0 UV-I 0 W/m² 15,1 °C 18,8 °C 3,2 km/h (1 Bft)
18.08.2018 21:16 18,7 °C 79 % 1018,1 hPa 0,0 mm 2,1 km/h (1 Bft) SW 221 ° 0 min 0,000 mm 0,0 UV-I 0 W/m² 15,0 °C 18,7 °C 3,2 km/h (1 Bft)
18.08.2018 21:17 18,7 °C 80 % 1018,1 hPa 0,0 mm 2,6 km/h (1 Bft) SW 221 ° 0 min 0,000 mm 0,0 UV-I 0 W/m² 15,2 °C 18,7 °C 4,8 km/h (1 Bft)
18.08.2018 21:18 18,6 °C 80 % 1018,2 hPa 0,0 mm 1,3 km/h (1 Bft) SW 221 ° 0 min 0,000 mm 0,0 UV-I 0 W/m² 15,1 °C 18,6 °C 3,2 km/h (1 Bft)
18.08.2018 21:19 18,6 °C 81 % 1018,2 hPa 0,0 mm 1,2 km/h (1 Bft) SW 221 ° 0 min 0,000 mm 0,0 UV-I 0 W/m² 15,3 °C 18,6 °C 3,2 km/h (1 Bft)
18.08.2018 21:20 18,5 °C 81 % 1018,1 hPa 0,0 mm 0,9 km/h (0 Bft) SW 221 ° 0 min 0,000 mm 0,0 UV-I 0 W/m² 15,2 °C 18,5 °C 1,6 km/h (1 Bft)
18.08.2018 21:21 18,6 °C 80 % 1018,2 hPa 0,0 mm 1,0 km/h (0 Bft) SW 221 ° 0 min 0,000 mm 0,0 UV-I 0 W/m² 15,1 °C 18,6 °C 3,2 km/h (1 Bft)
18.08.2018 21:22 18,6 °C 81 % 1018,2 hPa 0,0 mm 1,0 km/h (0 Bft) SW 221 ° 0 min 0,000 mm 0,0 UV-I 0 W/m² 15,3 °C 18,6 °C 1,6 km/h (1 Bft)
18.08.2018 21:23 18,6 °C 81 % 1018,2 hPa 0,0 mm 2,0 km/h (1 Bft) SW 221 ° 0 min 0,000 mm 0,0 UV-I 0 W/m² 15,3 °C 18,6 °C 3,2 km/h (1 Bft)
18.08.2018 21:24 18,5 °C 81 % 1018,2 hPa 0,0 mm 0,7 km/h (0 Bft) SW 221 ° 0 min 0,000 mm 0,0 UV-I 0 W/m² 15,2 °C 18,5 °C 1,6 km/h (1 Bft)
18.08.2018 21:25 18,6 °C 80 % 1018,2 hPa 0,0 mm 0,2 km/h (0 Bft) SW 221 ° 0 min 0,000 mm 0,0 UV-I 0 W/m² 15,1 °C 18,6 °C 1,6 km/h (1 Bft)
18.08.2018 21:26 18,6 °C 81 % 1018,1 hPa 0,0 mm 0,6 km/h (0 Bft) SW 221 ° 0 min 0,000 mm 0,0 UV-I 0 W/m² 15,3 °C 18,6 °C 1,6 km/h (1 Bft)
18.08.2018 21:27 18,6 °C 80 % 1018,2 hPa 0,0 mm 0,6 km/h (0 Bft) SW 221 ° 0 min 0,000 mm 0,0 UV-I 0 W/m² 15,1 °C 18,6 °C 1,6 km/h (1 Bft)
18.08.2018 21:28 18,7 °C 80 % 1018,2 hPa 0,0 mm 1,5 km/h (1 Bft) SW 221 ° 0 min 0,000 mm 0,0 UV-I 0 W/m² 15,2 °C 18,7 °C 3,2 km/h (1 Bft)
18.08.2018 21:29 18,7 °C 80 % 1018,2 hPa 0,0 mm 0,9 km/h (0 Bft) SW 221 ° 0 min 0,000 mm 0,0 UV-I 0 W/m² 15,2 °C 18,7 °C 1,6 km/h (1 Bft)
18.08.2018 21:30 18,7 °C 80 % 1018,2 hPa 0,0 mm 0,1 km/h (0 Bft) SW 221 ° 0 min 0,000 mm 0,0 UV-I 0 W/m² 15,2 °C 18,7 °C 1,6 km/h (1 Bft)
18.08.2018 21:31 18,7 °C 80 % 1018,2 hPa 0,0 mm 0,4 km/h (0 Bft) SW 221 ° 0 min 0,000 mm 0,0 UV-I 0 W/m² 15,2 °C 18,7 °C 1,6 km/h (1 Bft)
18.08.2018 21:32 18,6 °C 80 % 1018,2 hPa 0,0 mm 1,1 km/h (1 Bft) SW 221 ° 0 min 0,000 mm 0,0 UV-I 0 W/m² 15,1 °C 18,6 °C 3,2 km/h (1 Bft)
18.08.2018 21:33 18,6 °C 81 % 1018,2 hPa 0,0 mm 0,8 km/h (0 Bft) SW 221 ° 0 min 0,000 mm 0,0 UV-I 0 W/m² 15,3 °C 18,6 °C 3,2 km/h (1 Bft)
18.08.2018 21:34 18,6 °C 81 % 1018,2 hPa 0,0 mm 0,9 km/h (0 Bft) SW 221 ° 0 min 0,000 mm 0,0 UV-I 0 W/m² 15,3 °C 18,6 °C 3,2 km/h (1 Bft)
18.08.2018 21:35 18,6 °C 81 % 1018,2 hPa 0,0 mm 1,0 km/h (0 Bft) SW 221 ° 0 min 0,000 mm 0,0 UV-I 0 W/m² 15,3 °C 18,6 °C 1,6 km/h (1 Bft)
18.08.2018 21:36 18,6 °C 81 % 1018,2 hPa 0,0 mm 0,2 km/h (0 Bft) SW 221 ° 0 min 0,000 mm 0,0 UV-I 0 W/m² 15,3 °C 18,6 °C 1,6 km/h (1 Bft)
18.08.2018 21:37 18,6 °C 81 % 1018,2 hPa 0,0 mm 0,5 km/h (0 Bft) SW 221 ° 0 min 0,000 mm 0,0 UV-I 0 W/m² 15,3 °C 18,6 °C 1,6 km/h (1 Bft)
18.08.2018 21:38 18,6 °C 81 % 1018,2 hPa 0,0 mm 0,3 km/h (0 Bft) SW 221 ° 0 min 0,000 mm 0,0 UV-I 0 W/m² 15,3 °C 18,6 °C 1,6 km/h (1 Bft)
18.08.2018 21:39 18,6 °C 81 % 1018,2 hPa 0,0 mm 1,1 km/h (1 Bft) SW 221 ° 0 min 0,000 mm 0,0 UV-I 0 W/m² 15,3 °C 18,6 °C 3,2 km/h (1 Bft)
18.08.2018 21:40 18,6 °C 81 % 1018,2 hPa 0,0 mm 0,5 km/h (0 Bft) SW 221 ° 0 min 0,000 mm 0,0 UV-I 0 W/m² 15,3 °C 18,6 °C 1,6 km/h (1 Bft)
18.08.2018 21:41 18,6 °C 81 % 1018,2 hPa 0,0 mm 0,8 km/h (0 Bft) SW 221 ° 0 min 0,000 mm 0,0 UV-I 0 W/m² 15,3 °C 18,6 °C 1,6 km/h (1 Bft)
18.08.2018 21:42 18,5 °C 81 % 1018,2 hPa 0,0 mm 2,3 km/h (1 Bft) SW 221 ° 0 min 0,000 mm 0,0 UV-I 0 W/m² 15,2 °C 18,5 °C 3,2 km/h (1 Bft)
18.08.2018 21:43 18,4 °C 81 % 1018,2 hPa 0,0 mm 2,2 km/h (1 Bft) SW 221 ° 0 min 0,000 mm 0,0 UV-I 0 W/m² 15,1 °C 18,4 °C 3,2 km/h (1 Bft)
18.08.2018 21:44 18,3 °C 82 % 1018,2 hPa 0,0 mm 1,1 km/h (1 Bft) SW 221 ° 0 min 0,000 mm 0,0 UV-I 0 W/m² 15,2 °C 18,3 °C 3,2 km/h (1 Bft)
18.08.2018 21:45 18,3 °C 82 % 1018,1 hPa 0,0 mm 0,3 km/h (0 Bft) SW 221 ° 0 min 0,000 mm 0,0 UV-I 0 W/m² 15,2 °C 18,3 °C 1,6 km/h (1 Bft)
18.08.2018 21:46 18,2 °C 82 % 1018,2 hPa 0,0 mm 0,0 km/h (0 Bft) SW 221 ° 0 min 0,000 mm 0,0 UV-I 0 W/m² 15,1 °C 18,2 °C 0,0 km/h (0 Bft)
18.08.2018 21:47 18,2 °C 82 % 1018,2 hPa 0,0 mm 0,0 km/h (0 Bft) SW 221 ° 0 min 0,000 mm 0,0 UV-I 0 W/m² 15,1 °C 18,2 °C 0,0 km/h (0 Bft)
18.08.2018 21:48 18,2 °C 82 % 1018,2 hPa 0,0 mm 0,0 km/h (0 Bft) SW 221 ° 0 min 0,000 mm 0,0 UV-I 0 W/m² 15,1 °C 18,2 °C 0,0 km/h (0 Bft)
18.08.2018 21:49 18,2 °C 82 % 1018,2 hPa 0,0 mm 0,0 km/h (0 Bft) SW 221 ° 0 min 0,000 mm 0,0 UV-I 0 W/m² 15,1 °C 18,2 °C 0,0 km/h (0 Bft)
18.08.2018 21:50 18,2 °C 82 % 1018,2 hPa 0,0 mm 0,0 km/h (0 Bft) SW 221 ° 0 min 0,000 mm 0,0 UV-I 0 W/m² 15,1 °C 18,2 °C 0,0 km/h (0 Bft)
18.08.2018 21:51 18,1 °C 82 % 1018,2 hPa 0,0 mm 0,0 km/h (0 Bft) SW 221 ° 0 min 0,000 mm 0,0 UV-I 0 W/m² 15,0 °C 18,1 °C 0,0 km/h (0 Bft)
18.08.2018 21:52 18,1 °C 82 % 1018,2 hPa 0,0 mm 0,0 km/h (0 Bft) SW 221 ° 0 min 0,000 mm 0,0 UV-I 0 W/m² 15,0 °C 18,1 °C 0,0 km/h (0 Bft)
18.08.2018 21:53 18,1 °C 82 % 1018,2 hPa 0,0 mm 0,0 km/h (0 Bft) SW 221 ° 0 min 0,000 mm 0,0 UV-I 0 W/m² 15,0 °C 18,1 °C 0,0 km/h (0 Bft)
18.08.2018 21:54 18,1 °C 82 % 1018,2 hPa 0,0 mm 0,0 km/h (0 Bft) SW 221 ° 0 min 0,000 mm 0,0 UV-I 0 W/m² 15,0 °C 18,1 °C 0,0 km/h (0 Bft)
18.08.2018 21:55 18,1 °C 82 % 1018,2 hPa 0,0 mm 0,0 km/h (0 Bft) SW 221 ° 0 min 0,000 mm 0,0 UV-I 0 W/m² 15,0 °C 18,1 °C 0,0 km/h (0 Bft)
18.08.2018 21:56 18,0 °C 82 % 1018,2 hPa 0,0 mm 0,0 km/h (0 Bft) SW 221 ° 0 min 0,000 mm 0,0 UV-I 0 W/m² 14,9 °C 18,0 °C 0,0 km/h (0 Bft)
18.08.2018 21:57 18,0 °C 82 % 1018,2 hPa 0,0 mm 0,0 km/h (0 Bft) SW 221 ° 0 min 0,000 mm 0,0 UV-I 0 W/m² 14,9 °C 18,0 °C 0,0 km/h (0 Bft)
18.08.2018 21:58 18,0 °C 82 % 1018,2 hPa 0,0 mm 0,7 km/h (0 Bft) SW 221 ° 0 min 0,000 mm 0,0 UV-I 0 W/m² 14,9 °C 18,0 °C 1,6 km/h (1 Bft)
18.08.2018 21:59 17,9 °C 82 % 1018,2 hPa 0,0 mm 1,2 km/h (1 Bft) SW 221 ° 0 min 0,000 mm 0,0 UV-I 0 W/m² 14,8 °C 17,9 °C 1,6 km/h (1 Bft)
18.08.2018 22:00 17,9 °C 82 % 1018,2 hPa 0,0 mm 0,4 km/h (0 Bft) SW 221 ° 0 min 0,000 mm 0,0 UV-I 0 W/m² 14,8 °C 17,9 °C 1,6 km/h (1 Bft)
18.08.2018 22:01 17,9 °C 82 % 1018,3 hPa 0,0 mm 0,3 km/h (0 Bft) SW 221 ° 0 min 0,026 mm 0,0 UV-I 0 W/m² 14,8 °C 17,9 °C 1,6 km/h (1 Bft)
18.08.2018 22:02 17,9 °C 82 % 1018,3 hPa 0,0 mm 0,1 km/h (0 Bft) SW 221 ° 0 min 0,000 mm 0,0 UV-I 0 W/m² 14,8 °C 17,9 °C 1,6 km/h (1 Bft)
18.08.2018 22:04 17,8 °C 83 % 1018,4 hPa 0,0 mm 0,2 km/h (0 Bft) SW 221 ° 0 min 0,000 mm 0,0 UV-I 0 W/m² 14,9 °C 17,8 °C 1,6 km/h (1 Bft)
18.08.2018 22:05 17,8 °C 82 % 1018,3 hPa 0,0 mm 0,1 km/h (0 Bft) SW 221 ° 0 min 0,000 mm 0,0 UV-I 0 W/m² 14,7 °C 17,8 °C 1,6 km/h (1 Bft)
18.08.2018 22:06 17,8 °C 82 % 1018,3 hPa 0,0 mm 0,0 km/h (0 Bft) SW 221 ° 0 min 0,000 mm 0,0 UV-I 0 W/m² 14,7 °C 17,8 °C 0,0 km/h (0 Bft)
18.08.2018 22:07 17,8 °C 83 % 1018,3 hPa 0,0 mm 0,4 km/h (0 Bft) SW 221 ° 0 min 0,000 mm 0,0 UV-I 0 W/m² 14,9 °C 17,8 °C 1,6 km/h (1 Bft)
18.08.2018 22:08 17,8 °C 83 % 1018,3 hPa 0,0 mm 0,0 km/h (0 Bft) SW 221 ° 0 min 0,000 mm 0,0 UV-I 0 W/m² 14,9 °C 17,8 °C 0,0 km/h (0 Bft)
18.08.2018 22:09 17,7 °C 83 % 1018,3 hPa 0,0 mm 0,4 km/h (0 Bft) SW 221 ° 0 min 0,000 mm 0,0 UV-I 0 W/m² 14,8 °C 17,7 °C 1,6 km/h (1 Bft)
18.08.2018 22:10 17,7 °C 83 % 1018,3 hPa 0,0 mm 0,0 km/h (0 Bft) SW 221 ° 0 min 0,000 mm 0,0 UV-I 0 W/m² 14,8 °C 17,7 °C 0,0 km/h (0 Bft)
18.08.2018 22:11 17,7 °C 83 % 1018,3 hPa 0,0 mm 0,2 km/h (0 Bft) SW 221 ° 0 min 0,000 mm 0,0 UV-I 0 W/m² 14,8 °C 17,7 °C 1,6 km/h (1 Bft)
18.08.2018 22:12 17,7 °C 83 % 1018,3 hPa 0,0 mm 0,0 km/h (0 Bft) SW 221 ° 0 min 0,000 mm 0,0 UV-I 0 W/m² 14,8 °C 17,7 °C 0,0 km/h (0 Bft)
18.08.2018 22:13 17,8 °C 83 % 1018,4 hPa 0,0 mm 0,0 km/h (0 Bft) SW 221 ° 0 min 0,000 mm 0,0 UV-I 0 W/m² 14,9 °C 17,8 °C 0,0 km/h (0 Bft)
18.08.2018 22:14 17,8 °C 83 % 1018,3 hPa 0,0 mm 0,0 km/h (0 Bft) SW 221 ° 0 min 0,000 mm 0,0 UV-I 0 W/m² 14,9 °C 17,8 °C 0,0 km/h (0 Bft)
18.08.2018 22:15 17,9 °C 83 % 1018,4 hPa 0,0 mm 0,0 km/h (0 Bft) SW 221 ° 0 min 0,000 mm 0,0 UV-I 0 W/m² 15,0 °C 17,9 °C 0,0 km/h (0 Bft)
18.08.2018 22:16 17,9 °C 83 % 1018,3 hPa 0,0 mm 0,0 km/h (0 Bft) SW 221 ° 0 min 0,000 mm 0,0 UV-I 0 W/m² 15,0 °C 17,9 °C 0,0 km/h (0 Bft)
18.08.2018 22:17 17,9 °C 83 % 1018,3 hPa 0,0 mm 0,0 km/h (0 Bft) SW 221 ° 0 min 0,000 mm 0,0 UV-I 0 W/m² 15,0 °C 17,9 °C 0,0 km/h (0 Bft)
18.08.2018 22:18 17,9 °C 83 % 1018,3 hPa 0,0 mm 0,0 km/h (0 Bft) SW 221 ° 0 min 0,000 mm 0,0 UV-I 0 W/m² 15,0 °C 17,9 °C 0,0 km/h (0 Bft)
18.08.2018 22:19 17,9 °C 83 % 1018,3 hPa 0,0 mm 0,0 km/h (0 Bft) SW 221 ° 0 min 0,000 mm 0,0 UV-I 0 W/m² 15,0 °C 17,9 °C 0,0 km/h (0 Bft)
18.08.2018 22:20 18,0 °C 84 % 1018,3 hPa 0,0 mm 0,0 km/h (0 Bft) SW 221 ° 0 min 0,000 mm 0,0 UV-I 0 W/m² 15,3 °C 18,0 °C 0,0 km/h (0 Bft)
18.08.2018 22:21 18,0 °C 84 % 1018,3 hPa 0,0 mm 0,0 km/h (0 Bft) SW 221 ° 0 min 0,000 mm 0,0 UV-I 0 W/m² 15,3 °C 18,0 °C 0,0 km/h (0 Bft)
18.08.2018 22:22 18,1 °C 83 % 1018,3 hPa 0,0 mm 0,0 km/h (0 Bft) SW 221 ° 0 min 0,000 mm 0,0 UV-I 0 W/m² 15,2 °C 18,1 °C 0,0 km/h (0 Bft)
18.08.2018 22:23 18,1 °C 83 % 1018,4 hPa 0,0 mm 0,0 km/h (0 Bft) SW 221 ° 0 min 0,000 mm 0,0 UV-I 0 W/m² 15,2 °C 18,1 °C 0,0 km/h (0 Bft)
18.08.2018 22:24 18,1 °C 83 % 1018,4 hPa 0,0 mm 0,0 km/h (0 Bft) SW 221 ° 0 min 0,000 mm 0,0 UV-I 0 W/m² 15,2 °C 18,1 °C 0,0 km/h (0 Bft)
18.08.2018 22:25 18,2 °C 83 % 1018,4 hPa 0,0 mm 0,0 km/h (0 Bft) SW 221 ° 0 min 0,000 mm 0,0 UV-I 0 W/m² 15,3 °C 18,2 °C 0,0 km/h (0 Bft)
18.08.2018 22:26 18,1 °C 83 % 1018,4 hPa 0,0 mm 0,0 km/h (0 Bft) SW 221 ° 0 min 0,000 mm 0,0 UV-I 0 W/m² 15,2 °C 18,1 °C 0,0 km/h (0 Bft)
18.08.2018 22:27 18,1 °C 83 % 1018,4 hPa 0,0 mm 0,0 km/h (0 Bft) SW 221 ° 0 min 0,000 mm 0,0 UV-I 0 W/m² 15,2 °C 18,1 °C 0,0 km/h (0 Bft)
18.08.2018 22:28 18,1 °C 84 % 1018,4 hPa 0,0 mm 0,0 km/h (0 Bft) SW 221 ° 0 min 0,000 mm 0,0 UV-I 0 W/m² 15,4 °C 18,1 °C 0,0 km/h (0 Bft)
18.08.2018 22:29 18,0 °C 84 % 1018,4 hPa 0,0 mm 0,0 km/h (0 Bft) SW 221 ° 0 min 0,000 mm 0,0 UV-I 0 W/m² 15,3 °C 18,0 °C 0,0 km/h (0 Bft)
18.08.2018 22:30 17,9 °C 84 % 1018,3 hPa 0,0 mm 0,0 km/h (0 Bft) SW 221 ° 0 min 0,000 mm 0,0 UV-I 0 W/m² 15,2 °C 17,9 °C 0,0 km/h (0 Bft)
18.08.2018 22:31 18,0 °C 84 % 1018,4 hPa 0,0 mm 0,0 km/h (0 Bft) SW 221 ° 0 min 0,000 mm 0,0 UV-I 0 W/m² 15,3 °C 18,0 °C 0,0 km/h (0 Bft)
18.08.2018 22:32 17,9 °C 83 % 1018,4 hPa 0,0 mm 0,0 km/h (0 Bft) SW 221 ° 0 min 0,000 mm 0,0 UV-I 0 W/m² 15,0 °C 17,9 °C 0,0 km/h (0 Bft)
18.08.2018 22:33 17,9 °C 84 % 1018,4 hPa 0,0 mm 0,0 km/h (0 Bft) SW 221 ° 0 min 0,000 mm 0,0 UV-I 0 W/m² 15,2 °C 17,9 °C 0,0 km/h (0 Bft)
18.08.2018 22:34 17,9 °C 83 % 1018,5 hPa 0,0 mm 0,0 km/h (0 Bft) SW 221 ° 0 min 0,000 mm 0,0 UV-I 0 W/m² 15,0 °C 17,9 °C 0,0 km/h (0 Bft)
18.08.2018 22:35 17,9 °C 83 % 1018,4 hPa 0,0 mm 0,0 km/h (0 Bft) SW 221 ° 0 min 0,000 mm 0,0 UV-I 0 W/m² 15,0 °C 17,9 °C 0,0 km/h (0 Bft)
18.08.2018 22:36 17,8 °C 83 % 1018,5 hPa 0,0 mm 0,0 km/h (0 Bft) SW 221 ° 0 min 0,000 mm 0,0 UV-I 0 W/m² 14,9 °C 17,8 °C 0,0 km/h (0 Bft)
18.08.2018 22:37 17,8 °C 83 % 1018,4 hPa 0,0 mm 0,0 km/h (0 Bft) SW 221 ° 0 min 0,000 mm 0,0 UV-I 0 W/m² 14,9 °C 17,8 °C 0,0 km/h (0 Bft)
18.08.2018 22:38 17,8 °C 83 % 1018,4 hPa 0,0 mm 0,0 km/h (0 Bft) SW 221 ° 0 min 0,000 mm 0,0 UV-I 0 W/m² 14,9 °C 17,8 °C 0,0 km/h (0 Bft)
18.08.2018 22:39 17,8 °C 83 % 1018,4 hPa 0,0 mm 0,0 km/h (0 Bft) SW 221 ° 0 min 0,000 mm 0,0 UV-I 0 W/m² 14,9 °C 17,8 °C 0,0 km/h (0 Bft)
18.08.2018 22:40 17,8 °C 83 % 1018,5 hPa 0,0 mm 0,0 km/h (0 Bft) SW 221 ° 0 min 0,000 mm 0,0 UV-I 0 W/m² 14,9 °C 17,8 °C 0,0 km/h (0 Bft)
18.08.2018 22:41 17,7 °C 84 % 1018,5 hPa 0,0 mm 0,0 km/h (0 Bft) SW 221 ° 0 min 0,000 mm 0,0 UV-I 0 W/m² 15,0 °C 17,7 °C 0,0 km/h (0 Bft)
18.08.2018 22:42 17,7 °C 84 % 1018,4 hPa 0,0 mm 0,0 km/h (0 Bft) SW 221 ° 0 min 0,000 mm 0,0 UV-I 0 W/m² 15,0 °C 17,7 °C 0,0 km/h (0 Bft)
18.08.2018 22:43 17,6 °C 84 % 1018,4 hPa 0,0 mm 0,0 km/h (0 Bft) SW 221 ° 0 min 0,000 mm 0,0 UV-I 0 W/m² 14,9 °C 17,6 °C 0,0 km/h (0 Bft)
18.08.2018 22:44 17,6 °C 85 % 1018,5 hPa 0,0 mm 0,0 km/h (0 Bft) SW 221 ° 0 min 0,000 mm 0,0 UV-I 0 W/m² 15,0 °C 17,6 °C 0,0 km/h (0 Bft)
18.08.2018 22:45 17,6 °C 84 % 1018,5 hPa 0,0 mm 0,0 km/h (0 Bft) SW 221 ° 0 min 0,000 mm 0,0 UV-I 0 W/m² 14,9 °C 17,6 °C 0,0 km/h (0 Bft)
18.08.2018 22:46 17,6 °C 84 % 1018,5 hPa 0,0 mm 0,0 km/h (0 Bft) SW 221 ° 0 min 0,000 mm 0,0 UV-I 0 W/m² 14,9 °C 17,6 °C 0,0 km/h (0 Bft)
18.08.2018 22:47 17,6 °C 84 % 1018,5 hPa 0,0 mm 0,0 km/h (0 Bft) SW 221 ° 0 min 0,000 mm 0,0 UV-I 0 W/m² 14,9 °C 17,6 °C 0,0 km/h (0 Bft)
18.08.2018 22:48 17,5 °C 84 % 1018,6 hPa 0,0 mm 0,0 km/h (0 Bft) SW 221 ° 0 min 0,000 mm 0,0 UV-I 0 W/m² 14,8 °C 17,5 °C 0,0 km/h (0 Bft)
18.08.2018 22:49 17,4 °C 85 % 1018,5 hPa 0,0 mm 0,0 km/h (0 Bft) SW 221 ° 0 min 0,000 mm 0,0 UV-I 0 W/m² 14,8 °C 17,4 °C 0,0 km/h (0 Bft)
18.08.2018 22:50 17,4 °C 85 % 1018,5 hPa 0,0 mm 0,0 km/h (0 Bft) SW 221 ° 0 min 0,000 mm 0,0 UV-I 0 W/m² 14,8 °C 17,4 °C 0,0 km/h (0 Bft)
18.08.2018 22:51 17,3 °C 85 % 1018,5 hPa 0,0 mm 0,0 km/h (0 Bft) SW 221 ° 0 min 0,000 mm 0,0 UV-I 0 W/m² 14,8 °C 17,3 °C 0,0 km/h (0 Bft)
18.08.2018 22:52 17,3 °C 85 % 1018,6 hPa 0,0 mm 0,0 km/h (0 Bft) SW 221 ° 0 min 0,000 mm 0,0 UV-I 0 W/m² 14,8 °C 17,3 °C 0,0 km/h (0 Bft)
18.08.2018 22:53 17,3 °C 85 % 1018,5 hPa 0,0 mm 0,0 km/h (0 Bft) SW 221 ° 0 min 0,000 mm 0,0 UV-I 0 W/m² 14,8 °C 17,3 °C 0,0 km/h (0 Bft)
18.08.2018 22:54 17,3 °C 85 % 1018,6 hPa 0,0 mm 0,0 km/h (0 Bft) SW 221 ° 0 min 0,000 mm 0,0 UV-I 0 W/m² 14,8 °C 17,3 °C 0,0 km/h (0 Bft)
18.08.2018 22:55 17,3 °C 85 % 1018,6 hPa 0,0 mm 0,0 km/h (0 Bft) SW 221 ° 0 min 0,000 mm 0,0 UV-I 0 W/m² 14,8 °C 17,3 °C 0,0 km/h (0 Bft)
18.08.2018 22:56 17,4 °C 85 % 1018,6 hPa 0,0 mm 0,0 km/h (0 Bft) SW 221 ° 0 min 0,000 mm 0,0 UV-I 0 W/m² 14,8 °C 17,4 °C 0,0 km/h (0 Bft)
18.08.2018 22:57 17,4 °C 84 % 1018,6 hPa 0,0 mm 0,0 km/h (0 Bft) SW 221 ° 0 min 0,000 mm 0,0 UV-I 0 W/m² 14,7 °C 17,4 °C 0,0 km/h (0 Bft)
18.08.2018 22:58 17,4 °C 84 % 1018,6 hPa 0,0 mm 0,0 km/h (0 Bft) SW 221 ° 0 min 0,000 mm 0,0 UV-I 0 W/m² 14,7 °C 17,4 °C 0,0 km/h (0 Bft)
18.08.2018 22:59 17,4 °C 84 % 1018,6 hPa 0,0 mm 0,0 km/h (0 Bft) SW 221 ° 0 min 0,000 mm 0,0 UV-I 0 W/m² 14,7 °C 17,4 °C 0,0 km/h (0 Bft)
18.08.2018 23:00 17,4 °C 84 % 1018,6 hPa 0,0 mm 0,0 km/h (0 Bft) SW 221 ° 0 min 0,000 mm 0,0 UV-I 0 W/m² 14,7 °C 17,4 °C 0,0 km/h (0 Bft)
18.08.2018 23:01 17,4 °C 84 % 1018,6 hPa 0,0 mm 0,0 km/h (0 Bft) SW 221 ° 0 min 0,025 mm 0,0 UV-I 0 W/m² 14,7 °C 17,4 °C 0,0 km/h (0 Bft)
18.08.2018 23:02 17,4 °C 84 % 1018,6 hPa 0,0 mm 0,0 km/h (0 Bft) SW 221 ° 0 min 0,000 mm 0,0 UV-I 0 W/m² 14,7 °C 17,4 °C 0,0 km/h (0 Bft)
18.08.2018 23:03 17,4 °C 84 % 1018,6 hPa 0,0 mm 0,0 km/h (0 Bft) SW 221 ° 0 min 0,000 mm 0,0 UV-I 0 W/m² 14,7 °C 17,4 °C 0,0 km/h (0 Bft)
18.08.2018 23:04 17,3 °C 84 % 1018,7 hPa 0,0 mm 0,0 km/h (0 Bft) SW 221 ° 0 min 0,000 mm 0,0 UV-I 0 W/m² 14,6 °C 17,3 °C 0,0 km/h (0 Bft)
18.08.2018 23:05 17,3 °C 84 % 1018,6 hPa 0,0 mm 0,0 km/h (0 Bft) SW 221 ° 0 min 0,000 mm 0,0 UV-I 0 W/m² 14,6 °C 17,3 °C 0,0 km/h (0 Bft)
18.08.2018 23:06 17,3 °C 84 % 1018,6 hPa 0,0 mm 0,0 km/h (0 Bft) SW 221 ° 0 min 0,000 mm 0,0 UV-I 0 W/m² 14,6 °C 17,3 °C 0,0 km/h (0 Bft)
18.08.2018 23:07 17,3 °C 84 % 1018,7 hPa 0,0 mm 0,0 km/h (0 Bft) SW 221 ° 0 min 0,000 mm 0,0 UV-I 0 W/m² 14,6 °C 17,3 °C 0,0 km/h (0 Bft)
18.08.2018 23:08 17,3 °C 84 % 1018,6 hPa 0,0 mm 0,0 km/h (0 Bft) SW 221 ° 0 min 0,000 mm 0,0 UV-I 0 W/m² 14,6 °C 17,3 °C 0,0 km/h (0 Bft)
18.08.2018 23:09 17,3 °C 84 % 1018,6 hPa 0,0 mm 0,0 km/h (0 Bft) SW 221 ° 0 min 0,000 mm 0,0 UV-I 0 W/m² 14,6 °C 17,3 °C 0,0 km/h (0 Bft)
18.08.2018 23:10 17,3 °C 84 % 1018,6 hPa 0,0 mm 0,0 km/h (0 Bft) SW 221 ° 0 min 0,000 mm 0,0 UV-I 0 W/m² 14,6 °C 17,3 °C 0,0 km/h (0 Bft)
18.08.2018 23:11 17,3 °C 84 % 1018,6 hPa 0,0 mm 0,0 km/h (0 Bft) SW 221 ° 0 min 0,000 mm 0,0 UV-I 0 W/m² 14,6 °C 17,3 °C 0,0 km/h (0 Bft)
18.08.2018 23:12 17,3 °C 84 % 1018,6 hPa 0,0 mm 0,0 km/h (0 Bft) SW 221 ° 0 min 0,000 mm 0,0 UV-I 0 W/m² 14,6 °C 17,3 °C 0,0 km/h (0 Bft)
18.08.2018 23:13 17,3 °C 84 % 1018,6 hPa 0,0 mm 0,0 km/h (0 Bft) SW 221 ° 0 min 0,000 mm 0,0 UV-I 0 W/m² 14,6 °C 17,3 °C 0,0 km/h (0 Bft)
18.08.2018 23:14 17,3 °C 84 % 1018,7 hPa 0,0 mm 0,0 km/h (0 Bft) SW 221 ° 0 min 0,000 mm 0,0 UV-I 0 W/m² 14,6 °C 17,3 °C 0,0 km/h (0 Bft)
18.08.2018 23:15 17,3 °C 85 % 1018,7 hPa 0,0 mm 0,0 km/h (0 Bft) SW 221 ° 0 min 0,000 mm 0,0 UV-I 0 W/m² 14,8 °C 17,3 °C 0,0 km/h (0 Bft)
18.08.2018 23:16 17,3 °C 85 % 1018,6 hPa 0,0 mm 0,0 km/h (0 Bft) SW 221 ° 0 min 0,000 mm 0,0 UV-I 0 W/m² 14,8 °C 17,3 °C 0,0 km/h (0 Bft)
18.08.2018 23:17 17,3 °C 85 % 1018,6 hPa 0,0 mm 0,0 km/h (0 Bft) SW 221 ° 0 min 0,000 mm 0,0 UV-I 0 W/m² 14,8 °C 17,3 °C 0,0 km/h (0 Bft)
18.08.2018 23:18 17,3 °C 85 % 1018,6 hPa 0,0 mm 0,0 km/h (0 Bft) SW 221 ° 0 min 0,000 mm 0,0 UV-I 0 W/m² 14,8 °C 17,3 °C 0,0 km/h (0 Bft)
18.08.2018 23:19 17,3 °C 85 % 1018,6 hPa 0,0 mm 0,0 km/h (0 Bft) SW 221 ° 0 min 0,000 mm 0,0 UV-I 0 W/m² 14,8 °C 17,3 °C 0,0 km/h (0 Bft)
18.08.2018 23:20 17,3 °C 85 % 1018,7 hPa 0,0 mm 0,0 km/h (0 Bft) SW 221 ° 0 min 0,000 mm 0,0 UV-I 0 W/m² 14,8 °C 17,3 °C 0,0 km/h (0 Bft)
18.08.2018 23:21 17,2 °C 85 % 1018,7 hPa 0,0 mm 0,0 km/h (0 Bft) SW 221 ° 0 min 0,000 mm 0,0 UV-I 0 W/m² 14,7 °C 17,2 °C 0,0 km/h (0 Bft)
18.08.2018 23:22 17,2 °C 85 % 1018,7 hPa 0,0 mm 0,0 km/h (0 Bft) SW 221 ° 0 min 0,000 mm 0,0 UV-I 0 W/m² 14,7 °C 17,2 °C 0,0 km/h (0 Bft)
18.08.2018 23:23 17,2 °C 85 % 1018,7 hPa 0,0 mm 0,0 km/h (0 Bft) SW 221 ° 0 min 0,000 mm 0,0 UV-I 0 W/m² 14,7 °C 17,2 °C 0,0 km/h (0 Bft)
18.08.2018 23:24 17,2 °C 85 % 1018,7 hPa 0,0 mm 0,0 km/h (0 Bft) SW 221 ° 0 min 0,000 mm 0,0 UV-I 0 W/m² 14,7 °C 17,2 °C 0,0 km/h (0 Bft)
18.08.2018 23:25 17,2 °C 85 % 1018,7 hPa 0,0 mm 0,0 km/h (0 Bft) SW 221 ° 0 min 0,000 mm 0,0 UV-I 0 W/m² 14,7 °C 17,2 °C 0,0 km/h (0 Bft)
18.08.2018 23:26 17,1 °C 85 % 1018,7 hPa 0,0 mm 0,0 km/h (0 Bft) SW 221 ° 0 min 0,000 mm 0,0 UV-I 0 W/m² 14,6 °C 17,1 °C 0,0 km/h (0 Bft)
18.08.2018 23:27 17,1 °C 85 % 1018,7 hPa 0,0 mm 0,0 km/h (0 Bft) SW 221 ° 0 min 0,000 mm 0,0 UV-I 0 W/m² 14,6 °C 17,1 °C 0,0 km/h (0 Bft)
18.08.2018 23:28 17,0 °C 85 % 1018,7 hPa 0,0 mm 0,0 km/h (0 Bft) SW 221 ° 0 min 0,000 mm 0,0 UV-I 0 W/m² 14,5 °C 17,0 °C 0,0 km/h (0 Bft)
18.08.2018 23:29 17,0 °C 86 % 1018,7 hPa 0,0 mm 0,0 km/h (0 Bft) SW 221 ° 0 min 0,000 mm 0,0 UV-I 0 W/m² 14,6 °C 17,0 °C 0,0 km/h (0 Bft)
18.08.2018 23:30 16,9 °C 86 % 1018,7 hPa 0,0 mm 0,0 km/h (0 Bft) SW 221 ° 0 min 0,000 mm 0,0 UV-I 0 W/m² 14,5 °C 16,9 °C 0,0 km/h (0 Bft)
18.08.2018 23:31 16,9 °C 86 % 1018,7 hPa 0,0 mm 0,0 km/h (0 Bft) SW 221 ° 0 min 0,000 mm 0,0 UV-I 0 W/m² 14,5 °C 16,9 °C 0,0 km/h (0 Bft)
18.08.2018 23:32 16,9 °C 86 % 1018,7 hPa 0,0 mm 0,0 km/h (0 Bft) SW 221 ° 0 min 0,000 mm 0,0 UV-I 0 W/m² 14,5 °C 16,9 °C 0,0 km/h (0 Bft)
18.08.2018 23:33 17,0 °C 86 % 1018,8 hPa 0,0 mm 0,0 km/h (0 Bft) SW 221 ° 0 min 0,000 mm 0,0 UV-I 0 W/m² 14,6 °C 17,0 °C 0,0 km/h (0 Bft)
18.08.2018 23:34 17,0 °C 86 % 1018,7 hPa 0,0 mm 0,0 km/h (0 Bft) SW 221 ° 0 min 0,000 mm 0,0 UV-I 0 W/m² 14,6 °C 17,0 °C 0,0 km/h (0 Bft)
18.08.2018 23:35 17,0 °C 85 % 1018,8 hPa 0,0 mm 0,0 km/h (0 Bft) SW 221 ° 0 min 0,000 mm 0,0 UV-I 0 W/m² 14,5 °C 17,0 °C 0,0 km/h (0 Bft)
18.08.2018 23:36 17,0 °C 86 % 1018,7 hPa 0,0 mm 0,0 km/h (0 Bft) SW 221 ° 0 min 0,000 mm 0,0 UV-I 0 W/m² 14,6 °C 17,0 °C 0,0 km/h (0 Bft)
18.08.2018 23:37 17,0 °C 86 % 1018,8 hPa 0,0 mm 0,0 km/h (0 Bft) SW 221 ° 0 min 0,000 mm 0,0 UV-I 0 W/m² 14,6 °C 17,0 °C 0,0 km/h (0 Bft)
18.08.2018 23:38 17,1 °C 85 % 1018,7 hPa 0,0 mm 0,0 km/h (0 Bft) SW 221 ° 0 min 0,000 mm 0,0 UV-I 0 W/m² 14,6 °C 17,1 °C 0,0 km/h (0 Bft)
18.08.2018 23:39 17,1 °C 85 % 1018,8 hPa 0,0 mm 0,0 km/h (0 Bft) SW 221 ° 0 min 0,000 mm 0,0 UV-I 0 W/m² 14,6 °C 17,1 °C 0,0 km/h (0 Bft)
18.08.2018 23:40 17,1 °C 85 % 1018,8 hPa 0,0 mm 0,0 km/h (0 Bft) SW 221 ° 0 min 0,000 mm 0,0 UV-I 0 W/m² 14,6 °C 17,1 °C 0,0 km/h (0 Bft)
18.08.2018 23:41 17,1 °C 85 % 1018,8 hPa 0,0 mm 0,0 km/h (0 Bft) SW 221 ° 0 min 0,000 mm 0,0 UV-I 0 W/m² 14,6 °C 17,1 °C 0,0 km/h (0 Bft)
18.08.2018 23:42 17,1 °C 85 % 1018,8 hPa 0,0 mm 0,0 km/h (0 Bft) SW 221 ° 0 min 0,000 mm 0,0 UV-I 0 W/m² 14,6 °C 17,1 °C 0,0 km/h (0 Bft)
18.08.2018 23:43 17,1 °C 86 % 1018,9 hPa 0,0 mm 0,0 km/h (0 Bft) SW 221 ° 0 min 0,000 mm 0,0 UV-I 0 W/m² 14,7 °C 17,1 °C 0,0 km/h (0 Bft)
18.08.2018 23:44 17,1 °C 86 % 1018,8 hPa 0,0 mm 0,0 km/h (0 Bft) SW 221 ° 0 min 0,000 mm 0,0 UV-I 0 W/m² 14,7 °C 17,1 °C 0,0 km/h (0 Bft)
18.08.2018 23:45 17,1 °C 85 % 1018,8 hPa 0,0 mm 0,0 km/h (0 Bft) SW 221 ° 0 min 0,000 mm 0,0 UV-I 0 W/m² 14,6 °C 17,1 °C 0,0 km/h (0 Bft)
18.08.2018 23:46 17,1 °C 86 % 1018,9 hPa 0,0 mm 0,0 km/h (0 Bft) SW 221 ° 0 min 0,000 mm 0,0 UV-I 0 W/m² 14,7 °C 17,1 °C 0,0 km/h (0 Bft)
18.08.2018 23:47 17,1 °C 86 % 1018,9 hPa 0,0 mm 0,0 km/h (0 Bft) SW 221 ° 0 min 0,000 mm 0,0 UV-I 0 W/m² 14,7 °C 17,1 °C 0,0 km/h (0 Bft)
18.08.2018 23:48 17,1 °C 86 % 1018,8 hPa 0,0 mm 0,0 km/h (0 Bft) SW 221 ° 0 min 0,000 mm 0,0 UV-I 0 W/m² 14,7 °C 17,1 °C 0,0 km/h (0 Bft)
18.08.2018 23:49 17,1 °C 85 % 1018,8 hPa 0,0 mm 0,0 km/h (0 Bft) SW 221 ° 0 min 0,000 mm 0,0 UV-I 0 W/m² 14,6 °C 17,1 °C 0,0 km/h (0 Bft)
18.08.2018 23:50 17,1 °C 85 % 1018,8 hPa 0,0 mm 0,0 km/h (0 Bft) SW 221 ° 0 min 0,000 mm 0,0 UV-I 0 W/m² 14,6 °C 17,1 °C 0,0 km/h (0 Bft)
18.08.2018 23:51 17,0 °C 85 % 1018,8 hPa 0,0 mm 0,0 km/h (0 Bft) SW 221 ° 0 min 0,000 mm 0,0 UV-I 0 W/m² 14,5 °C 17,0 °C 0,0 km/h (0 Bft)
18.08.2018 23:52 16,9 °C 86 % 1018,8 hPa 0,0 mm 0,0 km/h (0 Bft) SW 221 ° 0 min 0,000 mm 0,0 UV-I 0 W/m² 14,5 °C 16,9 °C 0,0 km/h (0 Bft)
18.08.2018 23:53 16,8 °C 86 % 1018,8 hPa 0,0 mm 0,0 km/h (0 Bft) SW 221 ° 0 min 0,000 mm 0,0 UV-I 0 W/m² 14,4 °C 16,8 °C 0,0 km/h (0 Bft)
18.08.2018 23:54 16,7 °C 86 % 1018,8 hPa 0,0 mm 0,0 km/h (0 Bft) SW 221 ° 0 min 0,000 mm 0,0 UV-I 0 W/m² 14,3 °C 16,7 °C 0,0 km/h (0 Bft)
18.08.2018 23:55 16,7 °C 86 % 1018,8 hPa 0,0 mm 0,0 km/h (0 Bft) SW 221 ° 0 min 0,000 mm 0,0 UV-I 0 W/m² 14,3 °C 16,7 °C 0,0 km/h (0 Bft)
18.08.2018 23:56 16,6 °C 87 % 1018,8 hPa 0,0 mm 0,0 km/h (0 Bft) SW 221 ° 0 min 0,000 mm 0,0 UV-I 0 W/m² 14,4 °C 16,6 °C 0,0 km/h (0 Bft)
18.08.2018 23:57 16,6 °C 87 % 1018,8 hPa 0,0 mm 0,0 km/h (0 Bft) SW 221 ° 0 min 0,000 mm 0,0 UV-I 0 W/m² 14,4 °C 16,6 °C 0,0 km/h (0 Bft)
18.08.2018 23:58 16,5 °C 87 % 1018,8 hPa 0,0 mm 0,0 km/h (0 Bft) SW 221 ° 0 min 0,000 mm 0,0 UV-I 0 W/m² 14,3 °C 16,5 °C 0,0 km/h (0 Bft)
18.08.2018 23:59 16,4 °C 87 % 1018,8 hPa 0,0 mm 0,0 km/h (0 Bft) SW 221 ° 0 min 0,000 mm 0,0 UV-I 0 W/m² 14,2 °C 16,4 °C 0,0 km/h (0 Bft)
_ Min-Zeit 03:40 18:22 00:01 - 23:59 - - - - - - 03:23 06:55 23:59
Minimum _ 16,2 °C 59 % 1015,1 hPa - 0,0 km/h (0 Bft) - - - - - - 12,0 °C 16,3 °C 0,0 km/h (0 Bft)
_ Max-Zeit 14:57 23:59 23:47 23:59 14:40 - - 16:15 15:01 12:32 13:33 14:55 14:57 15:14
Maximum _ 24,1 °C 87 % 1018,9 hPa 0,0 mm 11,5 km/h
N (2 Bft)
- - 1 min 0,406 mm 6,2 UV-I 972 W/m² 17,9 °C 24,1 °C 17,7 km/h
N-NW (3 Bft)
Durchschnitt _ 19,7 °C 73 % 1016,9 hPa #0,0 mm 2,4 km/h (1 Bft) N-NO - #3:38 h #3,251 mm 3,0 UV-I 197 W/m² 14,7 °C 19,7 °C 4,3 km/h (1 Bft)